[[{"header":{"parameterUnit":"m.s-1","parameterCategory":1,"la1":30.6,"la2":29.2853,"lo1":-89.7004,"lo2":-87.6739,"dy":0.0162,"dx":0.0183,"nx":112,"ny":82,"refTime":"2026-03-21T00:00:00:Z","depth":0,"parameterNumber":2,"parameterNumberName":"U-component_of_WINDS"},"data":[0.0,0.0,0.0,0.0,0.0,0.0,0.0,0.0,0.0,0.0,0.0,0.0,0.0,0.0,0.0,0.0,0.0,0.0,0.0,0.0,0.0,0.0,0.0,0.0,0.0,0.0,0.0,0.0,0.0,0.0,0.0,0.0,0.0,0.0,0.0,0.0,0.0,0.0,0.0,0.0,0.0,0.0,0.0,0.0,0.0,0.0,0.0,0.0,0.0,0.0,0.0,0.0,0.0,0.0,0.0,0.0,0.0,0.0,0.0,0.0,0.0,0.0,0.0,0.0,0.0,0.0,0.0,0.0,0.0,0.0,0.0,0.0,0.0,0.0,0.0,0.0,0.0,0.0,0.0,0.0,0.0,0.0,0.0,0.0,0.0,0.0,0.0,0.0,0.0,0.0,-2.7764,-2.958,-3.4021,-3.6956,-3.7375,-3.6851,-3.4517,-2.9879,0.0,0.0,0.0,0.0,0.0,0.0,0.0,0.0,0.0,0.0,0.0,0.0,0.0,0.0,0.0,0.0,0.0,0.0,0.0,0.0,0.0,0.0,0.0,0.0,0.0,0.0,0.0,0.0,0.0,0.0,0.0,0.0,0.0,0.0,0.0,0.0,0.0,0.0,0.0,0.0,0.0,0.0,0.0,0.0,0.0,0.0,0.0,0.0,0.0,0.0,0.0,0.0,0.0,0.0,0.0,0.0,0.0,0.0,0.0,0.0,0.0,0.0,0.0,0.0,0.0,0.0,0.0,0.0,0.0,0.0,0.0,0.0,0.0,0.0,0.0,0.0,0.0,0.0,0.0,0.0,0.0,0.0,0.0,0.0,0.0,0.0,0.0,0.0,0.0,0.0,0.0,0.0,0.0,0.0,0.0,0.0,0.0,0.0,0.0,0.0,0.0,0.0,0.0,0.0,-2.8742,-3.5332,-3.7276,-3.7913,-3.7449,-3.6851,-3.4517,-2.9879,0.0,0.0,0.0,0.0,0.0,0.0,0.0,0.0,0.0,0.0,0.0,0.0,0.0,0.0,0.0,0.0,0.0,0.0,0.0,0.0,0.0,0.0,0.0,0.0,0.0,0.0,0.0,0.0,0.0,0.0,0.0,0.0,0.0,0.0,0.0,0.0,0.0,0.0,0.0,0.0,0.0,0.0,0.0,0.0,0.0,0.0,0.0,0.0,0.0,0.0,0.0,0.0,0.0,0.0,0.0,0.0,0.0,0.0,0.0,0.0,0.0,0.0,0.0,0.0,0.0,0.0,0.0,0.0,0.0,0.0,0.0,0.0,0.0,0.0,0.0,0.0,0.0,0.0,0.0,0.0,0.0,0.0,0.0,0.0,0.0,0.0,0.0,0.0,0.0,0.0,0.0,0.0,0.0,0.0,0.0,0.0,0.0,0.0,0.0,0.0,0.0,0.0,0.0,-2.673,-3.0168,-3.604,-3.7693,-3.7898,-3.6711,-3.6402,-3.409,-2.9057,-2.7265,0.0,0.0,0.0,0.0,0.0,0.0,0.0,0.0,0.0,0.0,0.0,0.0,0.0,0.0,0.0,0.0,0.0,0.0,0.0,0.0,0.0,0.0,0.0,0.0,0.0,0.0,0.0,0.0,0.0,0.0,0.0,0.0,0.0,0.0,0.0,0.0,0.0,0.0,0.0,0.0,0.0,0.0,0.0,0.0,0.0,0.0,0.0,0.0,0.0,0.0,0.0,0.0,0.0,0.0,0.0,0.0,0.0,0.0,0.0,0.0,0.0,0.0,0.0,0.0,0.0,0.0,0.0,0.0,0.0,0.0,0.0,0.0,0.0,0.0,0.0,0.0,0.0,0.0,0.0,0.0,0.0,0.0,0.0,0.0,0.0,0.0,0.0,0.0,0.0,0.0,0.0,0.0,0.0,0.0,0.0,0.0,0.0,0.0,0.0,0.0,0.0,0.0,-2.9195,-3.1657,-3.5582,-3.701,-3.7214,-3.6114,-3.5281,-3.2837,-2.8132,-2.5795,0.0,0.0,0.0,0.0,0.0,0.0,0.0,0.0,0.0,0.0,0.0,0.0,0.0,0.0,0.0,0.0,0.0,0.0,0.0,0.0,0.0,0.0,0.0,0.0,0.0,0.0,0.0,0.0,0.0,0.0,0.0,0.0,0.0,0.0,0.0,0.0,0.0,0.0,0.0,0.0,0.0,0.0,0.0,0.0,0.0,0.0,0.0,0.0,0.0,0.0,0.0,0.0,0.0,0.0,0.0,0.0,0.0,0.0,0.0,0.0,0.0,0.0,0.0,0.0,0.0,0.0,0.0,0.0,0.0,0.0,0.0,0.0,0.0,0.0,0.0,0.0,0.0,0.0,0.0,0.0,0.0,0.0,0.0,0.0,0.0,0.0,0.0,0.0,0.0,0.0,0.0,0.0,0.0,0.0,0.0,0.0,0.0,0.0,0.0,0.0,0.0,0.0,-2.9384,-3.3016,-3.5741,-3.5737,-3.57,-3.5957,-3.3194,-3.0229,-2.7414,-2.4164,0.0,0.0,0.0,0.0,0.0,0.0,0.0,0.0,0.0,0.0,0.0,0.0,0.0,0.0,0.0,0.0,0.0,0.0,0.0,0.0,0.0,0.0,0.0,0.0,0.0,0.0,0.0,0.0,0.0,0.0,0.0,0.0,0.0,0.0,0.0,0.0,0.0,0.0,0.0,0.0,0.0,0.0,0.0,0.0,0.0,0.0,0.0,0.0,0.0,0.0,0.0,0.0,0.0,0.0,0.0,0.0,0.0,0.0,0.0,0.0,0.0,0.0,0.0,0.0,0.0,0.0,0.0,0.0,0.0,0.0,0.0,0.0,0.0,0.0,0.0,0.0,0.0,0.0,0.0,0.0,0.0,0.0,0.0,0.0,0.0,0.0,0.0,0.0,0.0,0.0,0.0,0.0,0.0,0.0,0.0,0.0,0.0,0.0,0.0,0.0,0.0,0.0,-2.8572,-3.1917,-3.3916,-3.4906,-3.503,-3.4183,-3.2671,-3.0191,-2.6413,0.0,0.0,0.0,0.0,0.0,0.0,0.0,0.0,0.0,0.0,0.0,0.0,0.0,0.0,0.0,0.0,0.0,0.0,0.0,0.0,0.0,0.0,0.0,0.0,0.0,0.0,0.0,0.0,0.0,0.0,0.0,0.0,0.0,0.0,0.0,0.0,0.0,0.0,0.0,0.0,0.0,0.0,0.0,0.0,0.0,0.0,0.0,0.0,0.0,0.0,0.0,0.0,0.0,0.0,0.0,0.0,0.0,0.0,0.0,0.0,0.0,0.0,0.0,0.0,0.0,0.0,0.0,0.0,0.0,0.0,0.0,0.0,0.0,0.0,0.0,0.0,0.0,0.0,0.0,0.0,0.0,0.0,0.0,0.0,0.0,0.0,0.0,0.0,0.0,0.0,0.0,0.0,0.0,0.0,0.0,0.0,0.0,0.0,0.0,0.0,0.0,0.0,-2.4531,-2.8132,-3.1192,-3.2803,-3.3672,-3.3898,-3.3291,-3.1612,-2.9099,-2.5589,0.0,0.0,0.0,0.0,0.0,0.0,0.0,0.0,0.0,0.0,0.0,0.0,0.0,0.0,0.0,0.0,0.0,0.0,0.0,0.0,0.0,0.0,0.0,0.0,0.0,0.0,0.0,0.0,0.0,0.0,0.0,0.0,0.0,0.0,0.0,0.0,0.0,0.0,0.0,0.0,0.0,0.0,0.0,0.0,0.0,0.0,0.0,0.0,0.0,0.0,0.0,0.0,0.0,0.0,0.0,0.0,0.0,0.0,0.0,0.0,0.0,0.0,0.0,0.0,0.0,0.0,0.0,0.0,0.0,0.0,0.0,0.0,0.0,0.0,0.0,0.0,0.0,0.0,0.0,0.0,0.0,0.0,0.0,0.0,0.0,0.0,0.0,0.0,0.0,0.0,0.0,0.0,0.0,0.0,0.0,0.0,0.0,0.0,0.0,0.0,0.0,0.0,-2.4682,-2.8222,-3.1207,-3.2817,-3.2021,-3.2077,-3.3633,-2.9841,-2.659,0.0,0.0,0.0,0.0,0.0,0.0,0.0,0.0,0.0,0.0,0.0,0.0,0.0,0.0,0.0,0.0,0.0,0.0,0.0,0.0,0.0,0.0,0.0,0.0,0.0,0.0,0.0,0.0,0.0,0.0,0.0,0.0,0.0,0.0,0.0,0.0,0.0,0.0,0.0,0.0,0.0,0.0,0.0,0.0,0.0,0.0,0.0,0.0,0.0,0.0,0.0,0.0,0.0,0.0,0.0,0.0,0.0,0.0,0.0,0.0,0.0,0.0,0.0,0.0,0.0,0.0,0.0,0.0,0.0,0.0,0.0,0.0,0.0,0.0,0.0,0.0,0.0,0.0,0.0,0.0,0.0,0.0,0.0,0.0,0.0,0.0,0.0,0.0,0.0,0.0,0.0,0.0,0.0,0.0,0.0,0.0,0.0,0.0,0.0,0.0,0.0,0.0,0.0,-2.5172,-2.8762,-3.1524,-3.2301,-3.2129,-3.2193,-3.2663,-3.0413,-2.7846,-2.4996,0.0,0.0,0.0,0.0,0.0,0.0,0.0,0.0,0.0,0.0,0.0,0.0,0.0,0.0,0.0,0.0,0.0,0.0,0.0,0.0,0.0,0.0,0.0,0.0,0.0,0.0,0.0,0.0,0.0,0.0,0.0,0.0,0.0,0.0,0.0,0.0,0.0,0.0,0.0,0.0,0.0,0.0,0.0,0.0,0.0,0.0,0.0,0.0,0.0,0.0,0.0,0.0,0.0,0.0,0.0,0.0,0.0,0.0,0.0,0.0,0.0,0.0,0.0,0.0,0.0,0.0,0.0,0.0,0.0,0.0,0.0,0.0,0.0,0.0,0.0,0.0,0.0,0.0,0.0,0.0,0.0,0.0,0.0,0.0,0.0,0.0,0.0,0.0,0.0,0.0,0.0,0.0,0.0,0.0,0.0,0.0,0.0,0.0,0.0,0.0,0.0,0.0,-2.5385,-2.8812,-3.1373,-3.2127,-3.2215,-3.2303,-3.2541,-3.106,-2.8699,-2.5347,0.0,0.0,0.0,0.0,0.0,0.0,0.0,0.0,0.0,0.0,0.0,0.0,0.0,0.0,0.0,0.0,0.0,0.0,0.0,0.0,0.0,0.0,0.0,0.0,0.0,0.0,0.0,0.0,0.0,0.0,0.0,0.0,0.0,0.0,0.0,0.0,0.0,0.0,0.0,0.0,0.0,0.0,0.0,0.0,0.0,0.0,0.0,0.0,0.0,0.0,0.0,0.0,0.0,0.0,0.0,0.0,0.0,0.0,0.0,0.0,0.0,0.0,0.0,0.0,0.0,0.0,0.0,0.0,0.0,0.0,0.0,0.0,0.0,0.0,0.0,0.0,0.0,0.0,0.0,0.0,0.0,0.0,0.0,0.0,0.0,0.0,0.0,0.0,0.0,0.0,0.0,0.0,0.0,0.0,0.0,0.0,0.0,0.0,0.0,0.0,0.0,0.0,-2.5448,-2.8612,-3.1097,-3.2177,-3.229,-3.2503,-3.3031,-3.1562,-2.9227,-2.595,0.0,0.0,0.0,0.0,0.0,0.0,0.0,0.0,0.0,0.0,0.0,0.0,0.0,0.0,0.0,0.0,0.0,0.0,0.0,0.0,0.0,0.0,0.0,0.0,0.0,0.0,0.0,0.0,0.0,0.0,0.0,0.0,0.0,0.0,0.0,0.0,0.0,0.0,0.0,0.0,0.0,0.0,0.0,0.0,0.0,0.0,0.0,0.0,0.0,0.0,0.0,0.0,0.0,0.0,0.0,0.0,0.0,0.0,0.0,0.0,-2.5196,0.0,0.0,0.0,0.0,0.0,0.0,0.0,0.0,0.0,0.0,0.0,0.0,0.0,0.0,0.0,0.0,0.0,0.0,0.0,0.0,0.0,0.0,0.0,0.0,0.0,0.0,0.0,0.0,0.0,0.0,0.0,0.0,0.0,0.0,0.0,0.0,0.0,0.0,0.0,0.0,0.0,-2.6,-2.9176,-3.165,-3.2767,-3.2893,-3.2943,-3.3068,-3.1562,-2.9553,-2.708,-2.4431,0.0,0.0,0.0,0.0,0.0,0.0,0.0,0.0,0.0,0.0,0.0,0.0,0.0,0.0,0.0,0.0,0.0,0.0,0.0,0.0,0.0,0.0,0.0,0.0,0.0,0.0,0.0,0.0,0.0,0.0,0.0,0.0,0.0,0.0,0.0,0.0,0.0,0.0,0.0,0.0,0.0,0.0,0.0,0.0,0.0,0.0,0.0,0.0,0.0,0.0,0.0,0.0,0.0,0.0,0.0,0.0,0.0,0.0,0.0,0.0,-2.7156,0.0,0.0,0.0,0.0,0.0,0.0,0.0,0.0,0.0,0.0,0.0,0.0,0.0,0.0,0.0,0.0,0.0,0.0,0.0,0.0,0.0,0.0,0.0,0.0,0.0,0.0,0.0,0.0,0.0,0.0,0.0,0.0,0.0,0.0,0.0,0.0,0.0,0.0,0.0,0.0,-2.6244,-2.934,-3.1825,-3.2955,-3.3081,-3.3081,-3.3081,-3.1788,-3.0156,-2.8197,-2.5711,0.0,0.0,0.0,0.0,0.0,0.0,0.0,0.0,0.0,0.0,0.0,0.0,0.0,0.0,0.0,0.0,0.0,0.0,0.0,0.0,0.0,0.0,0.0,0.0,0.0,0.0,0.0,0.0,0.0,0.0,0.0,0.0,0.0,0.0,0.0,0.0,0.0,0.0,0.0,0.0,0.0,0.0,0.0,0.0,0.0,0.0,0.0,0.0,0.0,0.0,0.0,0.0,0.0,-3.2826,-3.344,-3.2885,-3.4038,-3.4592,-3.4577,-3.2407,-3.1689,-3.1913,-3.0163,0.0,0.0,0.0,0.0,0.0,0.0,0.0,0.0,0.0,0.0,0.0,0.0,0.0,0.0,0.0,0.0,0.0,0.0,0.0,0.0,0.0,0.0,0.0,0.0,-2.6615,-2.6138,0.0,0.0,0.0,0.0,0.0,0.0,0.0,0.0,0.0,0.0,0.0,0.0,-2.6314,-2.9402,-3.1825,-3.2955,-3.3081,-3.3031,-3.293,-3.1976,-3.0733,-2.9176,-2.708,-2.4918,0.0,0.0,0.0,0.0,0.0,0.0,0.0,0.0,0.0,0.0,0.0,0.0,0.0,0.0,0.0,0.0,0.0,0.0,0.0,0.0,0.0,0.0,0.0,0.0,0.0,0.0,0.0,0.0,0.0,0.0,0.0,0.0,-2.1538,-2.2211,0.0,0.0,0.0,0.0,0.0,0.0,0.0,0.0,0.0,0.0,0.0,0.0,0.0,-3.0205,-3.2572,-3.3987,-3.5292,-3.6387,-3.7823,-3.8467,-3.8377,-3.8556,-3.8945,-3.9469,-3.9125,0.0,-3.4023,-3.3185,0.0,0.0,0.0,0.0,0.0,0.0,0.0,0.0,0.0,0.0,0.0,0.0,0.0,0.0,0.0,0.0,0.0,0.0,0.0,0.0,0.0,0.0,-2.9026,-2.8586,-2.8925,-2.9076,0.0,-2.4921,-2.2071,-2.1217,-2.0778,0.0,0.0,0.0,0.0,0.0,0.0,0.0,-2.6892,-2.9641,-3.1825,-3.2955,-3.3081,-3.2867,-3.2365,-3.175,-3.0896,-2.9741,-2.8034,-2.6144,-2.401,-2.1906,0.0,0.0,0.0,0.0,0.0,0.0,0.0,0.0,0.0,0.0,0.0,0.0,0.0,0.0,0.0,0.0,0.0,0.0,0.0,0.0,0.0,0.0,0.0,0.0,0.0,0.0,0.0,0.0,0.0,-2.1158,-2.2357,-2.2673,-2.3054,-2.289,0.0,0.0,0.0,0.0,0.0,0.0,0.0,0.0,0.0,-3.1854,-3.2945,-3.4379,-3.6237,-3.7571,-3.8693,-3.9649,-4.0621,-4.1265,-4.1609,-4.1235,-4.1429,-4.2028,-4.1669,-4.0516,-3.8736,-3.6582,-3.4756,-3.311,0.0,0.0,0.0,0.0,-2.8324,-2.7525,-2.8173,-2.7742,0.0,-2.6063,0.0,0.0,0.0,0.0,0.0,0.0,0.0,0.0,0.0,0.0,-3.0344,-3.0683,-3.0972,-3.1085,-3.0834,-2.8775,-2.6352,0.0,-2.3602,-2.2698,-2.0351,0.0,0.0,0.0,0.0,-2.5586,-2.7494,-2.988,-3.1825,-3.2955,-3.278,-3.2491,-3.2227,-3.1436,-3.0758,-3.0281,-2.8963,-2.7397,-2.5587,-2.3439,-2.1146,0.0,0.0,0.0,0.0,0.0,0.0,0.0,0.0,0.0,0.0,0.0,0.0,0.0,0.0,0.0,0.0,0.0,0.0,0.0,0.0,0.0,0.0,0.0,0.0,0.0,0.0,0.0,0.0,-2.2938,-2.3714,-2.3699,-2.4977,-2.5125,0.0,0.0,0.0,0.0,0.0,0.0,-2.9986,-3.1334,-3.3156,-3.5684,-3.6881,-3.8182,-3.9664,-4.0651,-4.1564,-4.2387,-4.2701,-4.312,-4.3569,-4.3075,-4.303,-4.3314,-4.3,-4.2761,-4.2387,-3.9589,-3.7659,-3.6342,-3.4666,-3.3619,-3.3048,-3.3158,-3.2365,-3.1364,-3.2306,-3.1603,-3.0043,-2.9076,0.0,-2.7444,-2.4808,0.0,0.0,0.0,0.0,-2.7118,-2.9051,-3.0281,-3.126,-3.2202,-3.2441,-3.2441,-3.2441,-3.1687,-3.0156,0.0,-2.644,-2.5372,-2.2682,0.0,0.0,0.0,0.0,-2.664,-2.8323,-3.0206,-3.1763,-3.2754,-3.2466,-3.2102,-3.1825,-3.1072,-3.0557,-3.0407,-2.9359,-2.8017,-2.6405,-2.4337,-2.2149,-2.0047,0.0,0.0,0.0,0.0,0.0,0.0,0.0,0.0,0.0,0.0,0.0,0.0,0.0,0.0,0.0,0.0,0.0,0.0,0.0,0.0,0.0,0.0,0.0,0.0,0.0,0.0,0.0,0.0,0.0,-2.6398,-2.8134,0.0,0.0,0.0,0.0,-2.833,-3.015,-3.2112,-3.408,-3.5457,-3.7097,-3.911,-3.9843,-4.1145,-4.312,-4.3165,-4.3823,-4.5095,-4.4496,-4.4227,-4.4272,-4.4227,-4.3883,-4.3359,-4.3958,-4.3868,-4.318,-4.1758,-4.0412,-3.9155,-3.8392,-3.7689,-3.7044,-3.6851,-3.6014,-3.5022,-3.4781,-3.3157,-3.1474,-3.2466,-3.1373,-2.9528,-2.8812,-2.7858,0.0,0.0,-2.8712,-2.9842,-3.0972,-3.17,-3.229,-3.2893,-3.3031,-3.3031,-3.3031,-3.2554,-3.1625,0.0,-2.8712,-2.7595,-2.6377,0.0,-2.5372,-2.5347,-2.6402,-2.7808,-2.949,-3.0696,-3.1612,-3.219,-3.2227,-3.18,-3.0783,-3.0645,-3.0394,-2.9867,-2.8755,-2.7425,-2.5881,-2.3926,-2.178,-1.9383,-1.7586,0.0,0.0,0.0,0.0,0.0,0.0,0.0,0.0,0.0,0.0,0.0,0.0,0.0,0.0,0.0,0.0,0.0,0.0,0.0,0.0,0.0,0.0,0.0,0.0,0.0,0.0,0.0,0.0,-2.9089,-3.129,0.0,-2.9954,-3.0991,-3.1911,-3.2386,-3.3844,-3.5547,-3.7529,-3.8894,-4.0352,-4.1893,-4.2566,-4.3464,-4.4601,-4.4182,-4.4407,-4.5289,-4.4631,-4.4541,-4.493,-4.4511,-4.4182,-4.3958,-4.3763,-4.3554,-4.3299,-4.2836,-4.2117,-4.125,-4.0576,-4.0172,-3.9757,-3.8296,-3.7418,-3.6907,-3.5305,-3.4197,-3.3483,-3.3181,-3.2051,-3.0721,-3.0181,-2.9741,-2.9541,-3.0068,-3.0758,-3.1524,-3.2277,-3.2616,-3.2817,-3.3031,-3.3081,-3.3081,-3.3081,-3.2918,-3.2604,-3.2014,-3.0721,-2.9252,-2.777,-2.7645,-2.7381,-2.6314,-2.772,-2.9252,-3.0206,-3.0947,-3.1599,-3.2152,-3.1599,-3.1035,-3.0645,-3.0281,-2.9842,-2.9277,-2.8256,-2.6968,-2.5352,-2.3772,-2.1855,-1.9707,-1.8545,-1.6973,0.0,0.0,0.0,0.0,0.0,0.0,0.0,0.0,0.0,0.0,0.0,0.0,0.0,0.0,0.0,0.0,0.0,0.0,0.0,0.0,0.0,0.0,0.0,0.0,0.0,0.0,-3.0869,-3.175,-3.4178,-3.5111,-3.3345,-3.4578,-3.5672,-3.6148,-3.718,-3.8661,-4.0636,-4.1564,-4.2641,-4.3943,-4.4212,-4.4631,-4.5289,-4.4646,-4.4646,-4.5289,-4.4631,-4.4541,-4.4945,-4.4511,-4.4317,-4.4287,-4.3853,-4.3658,-4.3643,-4.3419,-4.3075,-4.2641,-4.2207,-4.2043,-4.1873,-4.0429,-3.9353,-3.8331,-3.5827,-3.5002,-3.4851,-3.3935,-3.3006,-3.2202,-3.2051,-3.1876,-3.1838,-3.2365,-3.2641,-3.2867,-3.3257,-3.3219,-3.3081,-3.3081,-3.3081,-3.3081,-3.3081,-3.3081,-3.3081,-3.3081,-3.2039,-3.0809,-2.9679,-2.9641,-2.9327,-2.8059,-2.9277,-3.047,-3.0834,-3.1336,-3.1738,-3.1913,-3.1298,-3.0733,-3.0369,-2.9829,-2.9174,-2.8472,-2.7323,-2.5977,-2.4382,-2.2907,-2.1399,-1.9922,-1.8789,-1.7363,-1.5625,0.0,0.0,0.0,0.0,0.0,0.0,0.0,0.0,0.0,0.0,0.0,0.0,0.0,0.0,0.0,0.0,0.0,0.0,0.0,0.0,0.0,0.0,0.0,-2.855,-3.0927,-3.3104,-3.4416,-3.6936,-3.7982,-3.6765,-3.837,-3.9506,-3.9486,-4.0127,-4.1339,-4.3284,-4.3389,-4.3988,-4.5259,-4.4676,-4.4646,-4.5289,-4.4646,-4.4631,-4.5259,-4.4601,-4.4287,-4.4287,-4.4287,-4.4287,-4.4287,-4.4287,-4.4287,-4.4227,-4.3599,-4.3329,-4.3329,-4.3329,-4.3329,-4.3329,-4.325,-4.1782,-3.9467,-3.6533,-3.5567,-3.5479,-3.4926,-3.4387,-3.4048,-3.4562,-3.4349,-3.4035,-3.4575,-3.4336,-3.3922,-3.3909,-3.3508,-3.3106,-3.3081,-3.3081,-3.3081,-3.3081,-3.3081,-3.3081,-3.3081,-3.2629,-3.2227,-3.2215,-3.1763,-3.1235,-3.0721,-3.1085,0.0,-3.1411,-3.1888,-3.2001,-3.1449,-3.1373,-3.0934,-2.988,-2.9264,-2.8523,-2.7543,-2.5865,-2.4349,-2.2896,-2.1376,-2.0342,-1.9922,-1.8262,-1.6982,-1.6184,0.0,0.0,0.0,0.0,0.0,0.0,0.0,0.0,0.0,0.0,0.0,0.0,0.0,0.0,0.0,0.0,0.0,0.0,0.0,0.0,0.0,-2.7911,-2.9802,-2.9951,-3.3142,-3.5913,-3.7192,-3.9241,-4.0467,-4.0054,-4.0531,-4.1264,-4.2192,-4.2432,-4.318,-4.4676,-4.4751,-4.493,-4.5289,-4.5125,-4.511,-4.5289,-4.4646,-4.4407,-4.4571,-4.3928,-4.3599,-4.3599,-4.3599,-4.3599,-4.3599,-4.3599,-4.3599,-4.3584,-4.3404,-4.3329,-4.3329,-4.3329,-4.3329,-4.317,-4.2371,-4.0547,-3.8366,-3.6718,-3.6132,-3.6044,-3.5504,-3.5215,-3.5052,-3.4801,-3.4613,-3.4525,-3.4675,-3.4613,-3.4399,-3.401,-3.3784,-3.3571,-3.3169,-3.3081,-3.3081,-3.3081,-3.3081,-3.3081,-3.3081,-3.2955,-3.2704,-3.229,-3.2089,-3.18,-3.126,-3.1637,0.0,-3.1989,-3.2127,-3.2001,-3.1449,-3.1047,-3.0545,-2.9854,-2.9264,-2.8274,-2.6916,-2.5079,-2.35,-2.2303,-2.0837,-2.0039,-1.9912,-1.8545,-1.7715,0.0,0.0,0.0,0.0,0.0,0.0,0.0,0.0,0.0,0.0,0.0,0.0,0.0,0.0,0.0,0.0,0.0,0.0,0.0,0.0,0.0,0.0,-3.0441,-3.2523,-3.3661,-3.5779,-3.7853,-3.9455,-4.0929,-4.2055,-4.2566,-4.2611,-4.3045,-4.4077,-4.4152,-4.4481,-4.5259,-4.5289,-4.5289,-4.5289,-4.5035,-4.502,-4.5289,-4.4646,-4.4317,-4.4317,-4.3928,-4.3599,-4.3329,-4.3329,-4.3479,-4.3718,-4.3449,-4.3494,-4.3718,-4.3449,-4.3329,0.0,0.0,0.0,0.0,0.0,-4.0166,-3.8622,-3.7234,-3.6612,-3.6307,-3.5994,-3.5579,-3.5228,-3.5366,-3.509,-3.4813,-3.5278,-3.5077,-3.465,-3.4324,-3.3897,-3.347,-3.3156,-3.3081,-3.3081,-3.3081,-3.3081,-3.3081,-3.3081,-3.3081,0.0,-3.2641,-3.2579,-3.239,-3.1813,-3.2215,-3.2491,-3.224,-3.2428,-3.2353,-3.18,-3.1474,-3.0972,-3.0206,-2.9616,0.0,0.0,0.0,-2.313,-2.1175,-2.0163,0.0,0.0,0.0,0.0,0.0,0.0,0.0,0.0,-1.7383,-1.7383,0.0,0.0,0.0,0.0,0.0,0.0,0.0,0.0,0.0,0.0,0.0,0.0,0.0,0.0,0.0,0.0,-3.3254,-3.5885,-3.8429,-3.8959,-3.9668,-4.1488,-4.2177,-4.3034,-4.4343,-4.4383,-4.4616,-4.5364,-4.5334,-4.5334,-4.5409,0.0,0.0,0.0,0.0,-4.4556,-4.5065,-4.4571,-4.4272,-4.4212,-4.4212,-4.3898,-4.3329,-4.3329,-4.3643,-4.4167,-4.3584,-4.3658,-4.4152,-4.3584,-4.3329,-4.3329,-4.3329,-4.3329,-4.3096,-4.1389,-4.0448,-3.9816,-3.7869,0.0,0.0,-3.6452,-3.5705,-3.509,-3.6069,-3.5642,-3.5014,-3.5994,-3.5529,-3.4713,-3.465,-3.3897,-3.3156,-3.3093,-3.3081,-3.3081,-3.3081,-3.3081,-3.3081,-3.3081,-3.3081,-3.3081,-3.3081,-3.3081,-3.2905,-3.239,-3.2754,-3.2893,-3.2378,-3.2754,-3.2855,-3.2277,0.0,0.0,-3.053,-2.9804,-2.8222,-2.5307,-2.4415,-2.2798,-2.0174,-1.9746,-1.9561,-1.9512,-1.9922,-2.0303,-2.0644,-2.1133,-2.1406,-2.1396,-1.8955,-1.8652,0.0,0.0,0.0,0.0,0.0,0.0,0.0,0.0,0.0,0.0,0.0,0.0,0.0,0.0,0.0,-3.4294,-3.6551,-3.8697,-4.1081,-4.2327,-4.3052,-4.3291,-4.3181,-4.3735,-4.5248,-4.4754,-4.4811,-4.6037,-4.5618,-4.5544,-4.6097,-4.5095,-4.4496,-4.4496,-4.4377,-4.4122,-4.3718,-4.4107,-4.4047,-4.3524,0.0,0.0,-4.3329,-4.3329,-4.3404,-4.3524,-4.3389,-4.3404,-4.3509,-4.3389,-4.3329,-4.3329,-4.3329,-4.3329,-4.3155,-4.1884,-4.132,-4.0972,-3.868,-3.7847,-3.7586,-3.6709,-3.6219,-3.6081,-3.6295,-3.5906,0.0,-3.5642,-3.5228,-3.4625,-3.4173,-3.3897,-3.3633,-3.3181,-3.3081,-3.3081,-3.3081,-3.3081,-3.3081,-3.3081,-3.3081,-3.3081,-3.3081,-3.3081,-3.3043,-3.293,-3.3006,-3.3031,-3.2918,-3.3006,-3.2855,-3.2277,-3.1333,-3.0457,-2.9834,-2.8069,-2.6382,-2.4954,-2.3289,-2.1909,-2.0996,-2.124,-2.1221,-2.0859,-2.1289,-2.1377,-2.1103,-2.1885,-2.2441,-2.2734,-2.1201,-2.0859,0.0,0.0,0.0,0.0,0.0,0.0,0.0,0.0,0.0,0.0,0.0,-2.7147,-2.8831,0.0,-3.3976,-3.6435,-3.8542,-4.0595,-4.2799,-4.3712,-4.4024,-4.3811,-4.4347,-4.5153,-4.6191,-4.6284,-4.6498,-4.6991,-4.6747,-4.6167,-4.5334,-4.4676,-4.4317,-4.4317,-4.4317,-4.4317,-4.4317,-4.4646,-4.4466,-4.3823,-4.3823,-4.3643,-4.3329,-4.3329,-4.3329,-4.3329,-4.3329,-4.3329,-4.3329,-4.3329,-4.3329,-4.3329,-4.3329,-4.3135,-4.2727,-4.1789,-4.0934,-4.0041,-3.8542,-3.7619,-3.715,-3.6628,-3.5994,-3.5642,-3.6194,-3.5592,-3.4839,-3.5391,-3.4951,-3.4248,-3.3972,-3.3696,-3.342,-3.3144,-3.3081,-3.3081,-3.3081,-3.3081,-3.3081,-3.3081,-3.3081,-3.3081,-3.3081,-3.3081,-3.3081,-3.3081,-3.3081,-3.3081,-3.3081,-3.3081,-3.2968,-3.2679,-3.2105,-3.1258,-3.0093,-2.724,-2.5368,-2.4872,-2.2996,-2.1787,-2.1572,-2.1768,-2.1787,-2.1562,-2.2197,-2.2412,-2.2187,-2.3047,-2.3574,-2.376,-2.3125,-2.2949,0.0,0.0,0.0,0.0,0.0,0.0,0.0,-2.3476,-2.4968,-2.6251,-2.8234,-3.0081,-3.1503,-3.4349,-3.6974,-3.8528,-4.0398,-4.234,-4.435,-4.4771,-4.4777,-4.4559,-4.5555,-4.647,-4.7145,-4.7909,-4.8199,-4.8058,-4.7758,-4.6834,-4.4931,-4.4338,-4.4122,-4.4122,-4.4242,-4.4511,-4.4915,-4.5035,-4.4781,-4.4122,-4.4122,-4.3838,-4.3329,-4.3329,-4.3329,-4.3329,-4.3329,-4.3329,-4.3329,-4.3329,-4.3329,-4.3329,-4.3329,-4.294,-4.2312,-4.1908,-4.0756,-3.9326,-3.8825,-3.7853,-3.6823,-3.6764,-3.5941,-3.519,-3.5968,-3.5278,-3.4361,-3.5039,-3.4587,-3.3872,-3.3771,-3.3407,-3.3081,-3.3081,-3.3081,-3.3081,-3.3081,-3.3081,-3.3081,-3.3081,-3.3081,-3.3081,-3.3081,-3.3081,-3.3081,-3.3081,-3.3081,-3.3081,-3.3081,-3.3081,-3.3081,-3.3081,-3.2698,-3.1559,-2.95,-2.6606,-2.4819,-2.4726,-2.3238,-2.2373,-2.2373,-2.2373,-2.2373,-2.2373,-2.3057,-2.3398,-2.3389,-2.416,-2.4541,-2.4551,-2.4629,-2.4629,-2.0594,-2.0472,-2.0868,-2.1965,-2.2817,-2.4134,0.0,-2.7865,-2.8412,-2.9691,-3.1647,-3.3748,-3.5783,-3.7502,-3.9511,-4.2278,-4.3456,-4.4608,-4.6253,-4.7026,-4.7371,-4.7176,-4.6629,-4.6759,-4.8282,-4.8352,-4.8515,-4.905,-4.7793,-4.6857,-4.6624,-4.4592,-4.3449,-4.3449,-4.4003,-4.4062,-4.3554,-4.4122,-4.4092,-4.3449,-4.3449,-4.3404,-4.3329,-4.3329,-4.3329,-4.3329,-4.3329,-4.3329,-4.3329,-4.3329,-4.3329,-4.3329,-4.3329,-4.294,-4.2432,-4.2925,-4.2246,-4.1133,-4.1189,-4.0069,-3.8537,-3.8026,-3.7153,-3.6107,-3.5742,-3.5504,-3.519,-3.4324,-3.3997,-3.3784,-3.3294,-3.3119,-3.3081,-3.3081,-3.3081,-3.3081,-3.3081,-3.3081,-3.3081,-3.3081,-3.3081,-3.3081,-3.3081,-3.3081,-3.3081,-3.3081,-3.3081,-3.3081,-3.3081,-3.3081,-3.3081,-3.3081,-3.1146,-2.8657,-2.5916,-2.5298,-2.4864,-2.447,-2.4271,-2.4131,-2.4131,-2.4131,-2.4131,-2.4131,-2.4228,-2.4277,-2.4277,-2.4756,-2.5,-2.5,-2.54,-2.5371,-2.2361,-2.2405,-2.2626,-2.3588,-2.5155,-2.686,-2.8266,-2.9464,-3.0805,-3.2571,-3.4326,-3.6006,-3.776,-3.9631,-4.1269,0.0,-4.4121,-4.5554,-4.665,-4.7073,-4.7393,-4.773,-4.74,-4.7572,-4.8561,-4.9092,-4.9417,-4.9561,-4.8061,-4.6878,-4.6376,-4.4428,-4.3509,-4.3898,-4.4167,-4.4182,-4.3898,-4.4182,-4.3988,-4.3329,-4.3329,-4.3329,-4.3329,-4.3329,-4.3329,-4.3329,-4.3329,-4.3329,-4.3329,-4.3329,-4.3329,-4.3329,-4.3329,-4.294,-4.2387,-4.2671,-4.1996,-4.0923,-4.103,-3.99,-3.8336,-3.7811,-3.6612,-3.5429,-3.5516,-3.5102,-3.4562,-3.4412,-3.4148,-3.3771,-3.3219,-3.3081,-3.3081,-3.3081,-3.3081,-3.3081,-3.3081,-3.3081,-3.3081,-3.3081,-3.3081,-3.3081,-3.3081,-3.3081,-3.3081,-3.3081,-3.3081,-3.3081,-3.3081,-3.3081,-3.2797,-3.2052,-3.0406,-2.8593,-2.6763,-2.568,-2.499,-2.4805,-2.456,-2.4414,-2.4414,-2.4414,-2.4414,-2.4414,-2.4668,-2.4795,-2.4795,-2.5244,-2.5459,-2.5459,-2.5644,-2.5635,-2.3201,-2.3644,-2.4222,-2.4944,-2.7117,-2.9175,-2.9337,-3.1095,-3.3081,-3.4611,-3.6229,-3.7783,-3.8983,-4.0933,-4.2362,-4.2565,-4.4498,-4.6126,-4.6447,-4.6853,-4.7225,-4.7564,-4.7614,-4.7844,-4.8397,-4.9433,-5.0032,-4.9909,-4.8723,-4.7509,-4.6319,-4.4802,-4.4037,-4.4032,-4.4047,-4.4047,-4.4047,-4.4047,-4.3808,-4.3329,-4.3329,-4.3329,-4.3329,-4.3329,-4.3329,-4.3329,-4.3329,-4.3329,-4.3329,-4.3329,-4.3329,-4.3329,-4.3329,-4.3045,-4.2626,-4.2626,-4.1888,-4.0866,-4.1215,-4.0055,-3.8238,-3.7899,-3.6454,-3.4964,-3.5064,-3.4638,-3.4148,-3.4248,-3.4085,-3.3771,-3.3219,-3.3081,-3.3081,-3.3081,-3.3081,-3.3081,-3.3081,-3.3081,-3.3081,-3.3081,-3.3081,-3.3081,-3.3081,-3.3081,-3.3081,-3.3081,-3.3081,-3.3081,-3.3081,-3.3081,-3.2513,-3.0866,-2.9943,-2.8773,-2.722,-2.5984,-2.5254,-2.5254,-2.4961,-2.4775,-2.4775,-2.4775,-2.4775,-2.4775,-2.5088,-2.5254,-2.5254,-2.5586,-2.5742,-2.5742,-2.5742,-2.5742,-2.2661,-2.3748,-2.5463,-2.6309,-2.8532,-3.06,-3.123,-3.3541,-3.5471,-3.5561,-3.7287,-3.9106,-3.9935,-4.1318,-4.254,-4.3247,-4.5297,-4.6515,-4.5838,-4.6972,-4.7631,-4.6904,-4.6819,-4.7124,0.0,-4.9255,-5.0101,-5.0118,-4.9826,-4.8968,-4.7349,-4.6347,-4.5033,-4.3374,-4.3359,-4.3359,-4.3359,-4.3359,-4.3359,-4.3329,-4.3329,-4.3329,-4.3329,-4.3329,-4.3329,-4.3329,-4.3329,-4.3329,-4.3329,-4.3329,-4.3329,-4.3329,-4.3329,-4.3329,-4.3299,-4.3299,-4.2506,-4.1594,-4.2772,-4.1348,-3.8889,-3.896,-3.74,-3.5316,-3.4274,-3.4299,-3.4474,-3.342,-3.3495,-3.3771,-3.3219,-3.3081,-3.3081,-3.3081,-3.3081,-3.3081,-3.3081,-3.3081,-3.3081,-3.3081,-3.3081,-3.3081,-3.3081,-3.3081,-3.3081,-3.3081,-3.3081,-3.3081,-3.3081,-3.3081,-3.2152,-2.9681,-2.9407,-2.8402,-2.6014,-2.5723,-2.5713,-2.5713,-2.5703,-2.5693,-2.5693,-2.5693,-2.5693,-2.5693,-2.5713,-2.5713,-2.5713,-2.5732,-2.5742,-2.5742,-2.5742,-2.5742,-2.4798,-2.5864,-2.7179,-2.8858,-3.0944,-3.2803,-3.3453,-3.5393,-3.708,-3.7053,-3.7644,-3.8405,-3.9225,-4.0154,-4.1221,-4.2472,-4.4587,-4.5974,-4.5737,-4.6989,-4.7462,-4.6227,-4.6498,0.0,0.0,0.0,0.0,-5.0016,-4.9476,-4.8777,-4.799,-4.7054,-4.5786,-4.4003,-4.3988,-4.3778,-4.3329,-4.3329,-4.3329,-4.3329,-4.3329,-4.3329,-4.3329,-4.3329,-4.3329,-4.3329,-4.3329,-4.3329,-4.3329,-4.3329,-4.3329,-4.3329,-4.3329,-4.3329,-4.3329,-4.3329,-4.306,-4.2731,-4.318,-4.1637,-3.9443,-3.8699,-3.6843,-3.4864,-3.4123,-3.4035,-3.4098,-3.3721,-3.3759,-3.3771,-3.3219,-3.3081,-3.3081,-3.3081,-3.3081,-3.3081,-3.3081,-3.3081,-3.3081,-3.3081,-3.3081,-3.3081,-3.3081,-3.3081,-3.3081,-3.3081,-3.3081,-3.3081,-3.3081,-3.3081,-3.2152,-2.9681,-2.9407,-2.8402,-2.5917,-2.5742,-2.5742,-2.5742,-2.5742,-2.5742,-2.5742,-2.5742,-2.5742,-2.5742,-2.5742,-2.5742,-2.5742,-2.5742,-2.5742,-2.5742,-2.5742,-2.5742,-2.6942,-2.7885,-2.8936,-3.082,-3.2498,-3.3799,-3.4532,-3.6071,-3.7345,-3.7072,-3.725,-3.7503,-3.7725,-3.8396,-3.9478,-4.1221,-4.32,-4.4773,-4.5602,-4.6532,-4.687,-4.6177,-4.6278,-4.643,0.0,0.0,0.0,-4.9238,-4.9488,-4.9085,-4.799,-4.7798,-4.6733,-4.4332,-4.4317,-4.4003,-4.3344,-4.3329,-4.3329,-4.3329,-4.3569,-4.3569,-4.3344,-4.3584,-4.3688,-4.3688,-4.3688,-4.3688,-4.3688,-4.3688,-4.3539,-4.3329,-4.3329,-4.3329,-4.3329,-4.3329,-4.3329,-4.3329,-4.3329,-4.1637,-3.9402,-3.8463,-3.6505,-3.4324,-3.3771,-3.3608,-3.3608,-3.3608,-3.3608,-3.352,-3.3169,-3.3081,-3.3081,-3.3081,-3.3081,-3.3081,-3.3081,-3.3081,-3.3081,-3.3081,-3.3081,-3.3081,-3.3081,-3.3081,-3.3081,-3.3081,-3.3081,-3.3081,-3.3081,-3.3081,-3.2152,-2.9681,-2.9407,-2.8402,-2.5917,-2.5742,-2.5742,-2.5742,-2.5742,-2.5742,-2.5742,-2.5742,-2.5742,-2.5742,-2.5742,-2.5742,-2.5742,-2.5742,-2.5742,-2.5742,-2.5742,-2.5742,-2.8853,-2.9837,-3.0752,-3.2287,-3.3145,-3.381,-3.4478,-3.573,-3.6486,-3.5695,-3.61,-3.6349,-3.5537,-3.6079,-3.7398,-3.9648,-4.1288,-4.3098,-4.5382,-4.5771,-4.6058,-4.6718,-4.621,-4.6363,-4.7733,-4.7902,-4.7919,-4.7919,0.0,-5.0043,-4.7357,-4.8621,-4.7916,-4.4533,-4.4421,-4.4107,-4.3449,-4.3434,-4.3419,-4.3389,-4.4047,-4.4032,-4.3449,-4.4077,-4.4347,-4.4317,-4.4317,-4.4287,-4.4272,-4.4272,-4.3898,-4.3329,-4.3329,-4.3329,-4.3329,-4.3329,-4.3329,-4.3329,-4.3329,-4.143,-3.8934,-3.8325,-3.6239,-3.3796,-3.3244,-3.3081,-3.3081,-3.3081,-3.3081,-3.3081,-3.3081,-3.3081,-3.3081,-3.3081,-3.3081,-3.3081,-3.3081,-3.3081,-3.3081,-3.3081,-3.3081,-3.3081,-3.3081,-3.3081,-3.3081,-3.3081,-3.3081,-3.3081,-3.3081,-3.3081,-3.2152,-2.9772,-2.9407,-2.8402,-2.6014,-2.5732,-2.5742,-2.5742,-2.5742,-2.5742,-2.5742,-2.5742,-2.5742,-2.5742,-2.5742,-2.5742,-2.5742,-2.5742,-2.5742,-2.5742,-2.5742,-2.5742,-3.0426,-3.1653,-3.2896,-3.3843,-3.4643,-3.5194,-3.5362,-3.6108,-3.6404,-3.5048,-3.4492,-3.3863,-3.256,-3.3829,-3.5825,-3.8091,-4.0612,0.0,-4.5382,-4.6667,-4.7208,-4.6836,-4.7124,-4.7276,-4.7107,-4.7581,-4.7919,0.0,-4.9965,-5.0259,-4.8013,-4.9357,-4.8812,-4.5912,-4.5813,-4.5484,-4.4811,-4.4796,-4.4541,-4.4062,-4.4721,-4.496,-4.4811,-4.4975,-4.4781,-4.4317,-4.4317,-4.4032,-4.3584,-4.3584,-4.3479,-4.3329,-4.3329,-4.3329,-4.3329,-4.3329,-4.3329,-4.3329,-4.3329,-4.143,-3.8934,-3.8325,-3.6239,-3.3796,-3.3244,-3.3081,-3.3081,-3.3081,-3.3081,-3.3081,-3.3081,-3.3081,-3.3081,-3.3081,-3.3081,-3.3081,-3.3081,-3.3081,-3.3081,-3.3081,-3.3081,-3.3081,-3.3081,-3.3081,-3.3081,-3.3081,-3.3081,-3.3081,-3.3081,-3.3081,-3.2513,-3.0944,-2.9954,-2.8762,-2.722,-2.6294,-2.5742,-2.5742,-2.5742,-2.5742,-2.5742,-2.5742,-2.5742,-2.5742,-2.5742,-2.5742,-2.5742,-2.5742,-2.5742,-2.5742,-2.5742,-2.5742,-3.2273,-3.3311,-3.4129,-3.4841,-3.5146,-3.5134,-3.4758,-3.5026,-3.4692,-3.251,-3.2002,-3.1393,-2.955,-3.1309,-3.3778,-3.6045,-3.8903,-4.1863,-4.4807,-4.621,-4.7022,-4.7259,-4.7665,-4.7868,-4.7767,-4.8139,-4.8392,-4.8392,-5.0152,-5.0326,-4.8179,-4.9537,-4.9158,-4.6421,-4.6322,-4.5992,-4.5304,-4.5289,-4.511,-4.4751,-4.5424,-4.5589,-4.5304,-4.5603,-4.5379,-4.4751,0.0,-4.4377,-4.3763,-4.3763,-4.3599,-4.3329,-4.3329,-4.3329,-4.3329,-4.3329,-4.3329,-4.3329,-4.3329,-4.143,-3.8934,-3.8325,-3.6066,-3.3483,-3.3169,-3.3081,-3.3081,-3.3081,-3.3081,-3.3081,-3.3081,-3.3081,-3.3081,-3.3081,-3.3081,-3.3081,-3.3081,-3.3081,-3.3081,-3.3081,-3.3081,-3.3081,-3.3081,-3.3081,-3.3081,-3.3081,-3.3081,-3.3081,-3.3081,-3.3081,-3.2426,-3.0586,-2.9772,-2.868,-2.6945,-2.611,-2.5742,-2.5742,-2.5742,-2.5742,-2.5742,-2.5742,-2.5742,-2.5742,-2.5742,-2.5742,-2.5742,-2.5742,-2.5742,-2.5742,-2.5742,-2.5742,-3.3964,-3.4621,-3.4894,-3.5453,-3.5078,-3.4396,-3.3583,-3.3186,-3.2188,-2.9397,-2.9194,-2.8907,-2.6911,-2.8924,-3.1698,-3.41,-3.6941,-4.0189,-4.4045,-4.5145,-4.6143,-4.7733,-4.7919,-4.8206,-4.8934,-4.9001,-4.9001,-4.9001,-5.0287,-5.0176,-4.8125,-4.9409,-4.9111,-4.6541,-4.6456,-4.6127,-4.5439,-4.5514,-4.5514,-4.5439,-4.6037,-4.6022,-4.5454,-4.5963,-4.5813,-4.517,-4.517,0.0,-4.4182,-4.4182,-4.3838,-4.3329,-4.3329,-4.3329,-4.3329,-4.3329,-4.3329,-4.3329,-4.3329,-4.143,-3.8948,-3.8422,-3.596,-3.3181,-3.3181,-3.3131,-3.3081,-3.3081,-3.3081,-3.3081,-3.3081,-3.3081,-3.3081,-3.3081,-3.3081,-3.3081,-3.3081,-3.3081,-3.3081,-3.3081,-3.3081,-3.3081,-3.3081,-3.3081,-3.3081,-3.3081,-3.3081,-3.3081,-3.3081,-3.3081,-3.2239,-2.9863,-2.9498,-2.8495,-2.61,-2.583,-2.5742,-2.5742,-2.5742,-2.5742,-2.5742,-2.5742,-2.5742,-2.5742,-2.5742,-2.5742,-2.5742,-2.5742,-2.5742,-2.5742,-2.5742,-2.5742,-3.4387,-3.4941,-3.5453,-3.5577,-3.5043,-3.4307,-3.355,-3.2002,-3.0176,-2.8383,-2.7148,-2.6268,-2.5862,-2.7757,-3.048,-3.3931,-3.6518,-3.9614,-4.3961,-4.4688,-4.5551,-4.7665,-4.7919,-4.8206,-4.8934,-4.9001,-4.9001,0.0,-4.9796,-4.9426,-4.7437,-4.869,-4.8749,-4.7201,-4.713,-4.6815,-4.6157,-4.6681,-4.6681,-4.6157,-4.6262,-4.6262,-4.6127,-4.5678,-4.511,-4.4481,-4.4481,0.0,-4.3509,-4.3509,-4.3434,-4.3329,-4.3329,-4.3329,-4.3329,-4.3329,-4.3329,-4.3329,-4.3329,-4.143,-3.9017,-3.8906,-3.6571,-3.3759,-3.3759,-3.3432,-3.3081,-3.3081,-3.3081,-3.3081,-3.3081,-3.3081,-3.3081,-3.3081,-3.3081,-3.3081,-3.3081,-3.3081,-3.3081,-3.3081,-3.3081,-3.3081,-3.3081,-3.3081,-3.3081,-3.3081,-3.3081,-3.3081,-3.3081,-3.3081,-3.2513,-3.1045,-3.0045,-2.8855,-2.74,-2.6294,-2.5742,-2.5742,-2.5742,-2.5742,-2.5742,-2.5742,-2.5742,-2.5742,-2.5742,-2.5742,-2.5742,-2.5742,-2.5742,-2.5742,-2.5742,-2.5742,-3.4861,-3.5351,-3.5622,-3.5622,-3.5064,-3.3998,-3.2121,-3.0565,-2.8755,-2.6065,-2.5253,-2.4797,-2.4036,-2.6353,-2.9093,-3.1275,-3.4167,-3.7567,-4.166,-4.2895,-4.4367,-4.7005,-4.7682,-4.8206,-4.8934,-4.9001,-4.9001,-4.9001,-4.9323,-4.9055,-4.8025,-4.7925,-4.7431,-4.6331,-4.6262,-4.6097,-4.5783,-4.6097,-4.6097,-4.5783,-4.5783,-4.5783,-4.5783,-4.5454,-4.493,-4.4317,-4.4317,0.0,-4.3329,-4.3329,-4.3329,-4.3329,-4.3329,-4.3329,-4.3329,-4.3329,-4.3329,-4.325,-4.2629,-4.0922,-3.8861,-3.8274,-3.621,-3.3897,-3.3897,-3.352,-3.3081,-3.3081,-3.3081,-3.3081,-3.3081,-3.3081,-3.3081,-3.3081,-3.3081,-3.3081,-3.3081,-3.3081,-3.3081,-3.3081,-3.3081,-3.3081,-3.3081,-3.3081,-3.3081,-3.3081,-3.3081,-3.3081,-3.3081,-3.3081,-3.2612,-3.1311,-3.0135,-2.8947,-2.7683,-2.638,-2.5742,-2.5742,-2.5742,-2.5742,-2.5742,-2.5742,-2.5742,-2.5742,-2.5742,-2.5742,-2.5742,-2.5742,-2.5742,-2.5742,-2.5742,-2.5742,-3.5267,-3.5622,-3.5622,-3.5622,-3.4928,-3.3525,-3.0751,-2.9262,-2.752,-2.4103,-2.3731,-2.3714,-2.2733,-2.505,-2.752,-2.8772,-3.1681,-3.5148,-3.9073,-4.0882,-4.2946,-4.5957,-4.6989,-4.78,-4.868,-4.8765,-4.8832,-4.8984,-4.9001,-4.8768,-4.8354,-4.715,-4.6104,-4.5372,-4.5289,-4.5289,-4.5289,-4.5289,-4.5289,-4.5289,-4.5155,-4.5095,-4.508,-4.4945,-4.4586,-4.4107,-4.4107,0.0,0.0,-4.3329,-4.3329,-4.3329,-4.3329,-4.3329,-4.3329,-4.3329,-4.3329,-4.314,-4.2129,-4.0544,-3.8847,-3.7779,-3.5869,-3.3897,-3.3897,-3.352,-3.3081,-3.3081,-3.3081,-3.3081,-3.3081,-3.3081,-3.3081,-3.3081,-3.3081,-3.3081,-3.3081,-3.3081,-3.3081,-3.3081,-3.3081,-3.3081,-3.3081,-3.3081,-3.3081,-3.3081,-3.3081,-3.3081,-3.3081,-3.3081,-3.2612,-3.1311,-3.0135,-2.8947,-2.7683,-2.638,-2.5742,-2.5742,-2.5742,-2.5742,-2.5742,-2.5742,-2.5742,-2.5742,-2.5742,-2.5742,-2.5742,-2.5742,-2.5742,-2.5742,-2.5742,-2.5742,-3.5402,-3.5622,-3.5622,-3.5622,-3.4556,-3.2899,-3.0632,-2.845,-2.6234,-2.3883,-2.2919,-2.2682,-2.319,-2.4103,0.0,0.0,0.0,-3.3051,-3.7483,-3.9377,-4.1424,-4.4418,-4.5449,-4.6464,-4.7868,-4.802,-4.8291,-4.8951,-4.9001,-4.8494,-4.7373,-4.6351,-4.5629,-4.5274,-4.5289,-4.5289,-4.5289,-4.5289,-4.5289,-4.5289,-4.4691,-4.4407,-4.4392,-4.3778,-4.3479,-4.3419,-4.3419,0.0,0.0,-4.3329,-4.3329,-4.3329,-4.3329,-4.3329,-4.3329,-4.3329,-4.3329,-4.3175,-4.2563,-4.0871,-3.8863,-3.8143,-3.6122,-3.3897,-3.3897,-3.352,-3.3081,-3.3081,-3.3081,-3.3081,-3.3081,-3.3081,-3.3081,-3.3081,-3.3081,-3.3081,-3.3081,-3.3081,-3.3081,-3.3081,-3.3081,-3.3081,-3.3081,-3.3081,-3.3081,-3.3081,-3.3081,-3.3081,-3.3081,-3.3081,-3.2612,-3.1311,-3.0135,-2.8947,-2.7683,-2.638,-2.5742,-2.5742,-2.5742,-2.5742,-2.5742,-2.5742,-2.5742,-2.5742,-2.5742,-2.5742,-2.5742,-2.5742,-2.5742,-2.5742,-2.5742,-2.5742,-3.4694,-3.5267,-3.5622,-3.5622,-3.4506,-3.2713,-3.004,-2.801,-2.5947,-2.3291,-2.2513,-2.2395,-2.2682,-2.3342,0.0,0.0,0.0,0.0,-3.3947,-3.5791,-3.8176,-4.2083,-4.3606,-4.5094,-4.7056,-4.7648,-4.8223,-4.8951,-4.9001,-4.8567,-4.7528,-4.6534,-4.5428,-4.4107,-4.4122,-4.4122,-4.4122,-4.4122,-4.4122,-4.4107,-4.3853,-4.3718,-4.3718,-4.3449,-4.3329,-4.3329,-4.3329,0.0,0.0,-4.3329,-4.3329,-4.3329,-4.3329,-4.3329,-4.3284,-4.2895,-4.2746,-4.2563,-4.116,-3.9496,-3.7745,-3.6764,-3.507,-3.347,-3.3796,-3.352,-3.3081,-3.3081,-3.3081,-3.3081,-3.3081,-3.3081,-3.3081,-3.3081,-3.3081,-3.3081,-3.3081,-3.3081,-3.3081,-3.3081,-3.3081,-3.3081,-3.3081,-3.3081,-3.3081,-3.3081,-3.3081,-3.3081,-3.3081,-3.3081,-3.2612,-3.1311,-3.0135,-2.8947,-2.7683,-2.638,-2.5742,-2.5742,-2.5742,-2.5742,-2.5742,-2.5742,-2.5742,-2.5742,-2.5742,-2.5742,-2.5742,-2.5742,-2.5742,-2.5742,-2.5742,-2.5742,-3.382,-3.4709,-3.5284,-3.5284,-3.4167,-3.229,-2.9313,-2.7469,-2.5592,-2.2868,-2.231,-2.231,-2.231,-2.2733,-2.3562,0.0,0.0,-2.7757,-3.1715,-3.3372,-3.5673,-3.9749,-4.1339,-4.2997,-4.5246,-4.6955,-4.8139,-4.8646,-4.868,-4.8216,-4.7223,-4.6136,-4.4975,-4.3756,-4.3488,-4.3329,-4.3329,-4.3329,-4.3329,-4.3329,-4.3329,-4.3329,-4.3329,-4.3329,-4.3329,-4.3329,-4.3135,0.0,0.0,-4.2836,-4.2761,-4.2761,-4.2761,-4.2761,-4.2701,-4.2237,-4.2073,-4.1799,-3.9987,-3.8399,-3.6961,-3.5658,-3.4276,-3.3156,-3.3533,-3.3382,-3.3081,-3.3081,-3.3081,-3.3081,-3.3081,-3.3081,-3.3081,-3.3081,-3.3081,-3.3081,-3.3081,-3.3081,-3.3081,-3.3081,-3.3081,-3.3018,-3.2855,-3.2817,-3.2767,-3.2604,-3.2717,-3.2817,-3.2817,-3.2968,-3.2612,-3.1311,-3.0135,-2.8947,-2.7683,-2.638,-2.5742,-2.5742,-2.5742,-2.5742,-2.5742,-2.5742,-2.5742,-2.5742,-2.5742,-2.5742,-2.5742,-2.5742,-2.5742,-2.5742,-2.5742,-2.5742,-3.288,-3.3947,-3.4506,-3.4506,-3.3389,-3.1512,-2.8518,-2.6691,-2.4983,-2.2767,-2.231,-2.231,-2.231,-2.231,-2.2801,0.0,0.0,0.0,-3.1647,-3.2933,-3.4539,-3.7584,-3.8582,-3.9918,-4.2117,-4.572,-4.7919,-4.7936,-4.7936,0.0,-4.6282,-4.4877,-4.4297,-4.4765,-4.3849,-4.3329,-4.3329,-4.3329,-4.3329,-4.3329,-4.3329,-4.3329,-4.3329,-4.3329,-4.3329,-4.3299,0.0,0.0,0.0,-4.1669,-4.1399,-4.1399,-4.1399,-4.1399,-4.1399,-4.1384,-4.1384,-4.1128,-3.9412,-3.8125,-3.6892,-3.5261,-3.3953,-3.3081,-3.3081,-3.3081,-3.3081,-3.3081,-3.3081,-3.3081,-3.3081,-3.3081,-3.3081,-3.3081,-3.3081,-3.3081,-3.3081,-3.3081,-3.3081,-3.3081,-3.3081,-3.2893,-3.2315,-3.2227,-3.2039,-3.1486,-3.1876,-3.2227,-3.2227,-3.2717,-3.2612,-3.1311,-3.0135,-2.8947,-2.7683,-2.638,-2.5742,-2.5742,-2.5742,-2.5742,-2.5742,-2.5742,-2.5742,-2.5742,-2.5742,-2.5742,-2.5742,-2.5742,-2.5742,-2.5742,-2.5742,-2.5742,-3.0211,-3.092,-3.1376,-3.0852,-3.0378,-2.9381,-2.6877,-2.5947,-2.4983,-2.2767,-2.231,-2.231,-2.231,-2.231,-2.3122,-2.5592,0.0,0.0,0.0,-3.273,-3.4692,-3.6163,-3.9698,-4.2709,-4.4451,0.0,-4.6616,-4.7107,-4.7141,-4.6692,-4.5751,-4.4669,-4.378,-4.3152,-4.2376,-4.2207,-4.2671,-4.2222,-4.2222,-4.2671,-4.2207,-4.1998,-4.1998,-4.1998,-4.1998,0.0,0.0,0.0,0.0,-4.1474,-4.1384,-4.1384,-4.1384,-4.1384,-4.1324,-4.0876,-4.0711,-4.0532,-3.955,-3.804,-3.6394,-3.5883,-3.4568,-3.3081,-3.3081,-3.3081,-3.3081,-3.3081,-3.3081,-3.3081,-3.3081,-3.3081,-3.3081,-3.3081,-3.3081,-3.3081,-3.3081,-3.3081,-3.3081,-3.3081,-3.3081,-3.2893,-3.2315,-3.2541,-3.2616,-3.2039,-3.2441,-3.2805,-3.2805,-3.2216,-3.1311,-3.0135,-2.8866,-2.8049,-2.7589,-2.638,-2.5742,-2.5742,-2.5742,-2.5742,-2.5742,-2.5742,-2.5742,-2.5742,-2.5742,-2.5742,-2.5742,-2.5742,-2.5742,-2.5742,-2.5742,-2.5742,-2.7981,-2.867,-2.9127,-2.8653,-2.8332,-2.7604,-2.5642,-2.4966,-2.4306,-2.2649,-2.231,-2.231,-2.231,-2.231,-2.3004,-2.5101,0.0,0.0,0.0,-3.1918,-3.4049,-3.6231,-3.9834,-4.276,0.0,-4.5196,-4.5889,-4.6346,-4.6111,-4.5618,-4.5016,-4.3581,-4.2498,-4.167,-4.1474,-4.1579,-4.1983,-4.1594,-4.1594,-4.1983,-4.1579,-4.1384,-4.1384,-4.1384,-4.1384,0.0,0.0,0.0,0.0,-4.0741,-4.0651,-4.0651,-4.0651,-4.0651,-4.0591,-4.0187,-4.0023,-3.989,-3.8589,-3.7329,-3.6039,-3.5265,-3.4178,-3.3081,-3.3081,-3.3081,-3.3081,-3.3081,-3.3081,-3.3081,-3.3081,-3.3081,-3.3081,-3.3081,-3.3081,-3.3081,-3.3081,-3.3081,-3.3081,-3.3081,-3.3081,-3.2893,-3.2315,-3.2516,-3.2554,-3.1989,-3.239,-3.2754,-3.2754,-3.1831,-3.0944,-3.0135,-2.8588,-2.7589,-2.7589,-2.638,-2.5742,-2.5742,-2.5742,-2.5742,-2.5742,-2.5742,-2.5742,-2.5742,-2.5742,-2.5742,-2.5742,-2.5742,-2.5742,-2.5742,-2.5742,-2.5742,0.0,-2.6928,-2.7451,-2.7401,-2.6945,-2.6082,-2.4661,-2.3849,0.0,-2.2462,-2.231,-2.2344,-2.2446,-2.2378,-2.2632,-2.363,-2.4323,-2.6015,-2.9736,-3.1072,-3.3305,-3.7702,-3.9462,-4.0882,-4.232,-4.4384,-4.5618,-4.5618,-4.489,-4.4246,-4.3984,-4.1904,-4.0655,-4.0307,-4.092,-4.1265,-4.1309,-4.1265,-4.1265,-4.1309,-4.1265,-4.125,-4.125,-4.125,-4.125,0.0,0.0,0.0,0.0,-3.9679,-3.9424,-3.9424,-3.9424,-3.9424,-3.9424,-3.9424,-3.9337,-3.9017,-3.7007,-3.6212,-3.5734,-3.3784,-3.3081,-3.3081,-3.3081,-3.3081,-3.3081,-3.3081,-3.3081,-3.3081,-3.3081,-3.3081,-3.3081,-3.3081,-3.3081,-3.3081,-3.3081,-3.3081,-3.3081,-3.3081,-3.3081,-3.2893,-3.2315,-3.2252,-3.2089,-3.1537,-3.183,-3.2097,-3.2097,-3.1462,-3.0944,-3.0944,-2.8866,-2.7494,-2.7494,-2.638,-2.5742,-2.5742,-2.5742,-2.5742,-2.5742,-2.5742,-2.5742,-2.5742,-2.5742,-2.5742,-2.5742,-2.5742,-2.5742,-2.5742,-2.5742,-2.5742,-2.3604,0.0,-2.4306,-2.3748,-2.39,-2.3934,0.0,-2.3122,-2.319,-2.2462,-2.231,-2.2649,-2.3765,-2.3054,-2.3494,-2.7097,-2.7317,-2.8146,-3.1326,-3.4404,-3.755,-4.0865,-4.2066,-4.2997,-4.3944,-4.4519,-4.484,-4.484,-4.4653,-4.3936,-4.2558,-4.1979,-4.1039,-3.9706,-3.9798,-4.0127,-4.0621,-4.0127,-4.0127,-4.0621,-4.0127,-3.9888,-3.9888,-3.9888,-3.9888,0.0,0.0,0.0,-3.9634,-3.9484,-3.9424,-3.9424,-3.9424,-3.9424,-3.9424,-3.9424,-3.887,-3.8069,-3.7587,-3.6397,-3.4815,-3.3556,-3.3081,-3.3081,-3.3081,-3.3081,-3.3081,-3.3081,-3.3081,-3.3081,-3.3081,-3.3081,-3.3081,-3.3081,-3.3081,-3.3081,-3.3081,-3.3081,-3.3081,-3.3081,-3.3081,-3.2893,-3.2315,-3.2579,-3.2679,-3.2102,-3.1688,-3.1396,-3.1396,-2.9693,-2.8412,-2.8412,-2.703,-2.61,-2.61,-2.583,-2.5742,-2.5742,-2.5742,-2.5742,-2.5742,-2.5742,-2.5742,-2.5742,-2.5742,-2.5742,-2.5742,-2.5742,-2.5742,-2.5742,-2.5742,-2.5742,-2.2746,-2.3031,-2.3291,-2.2902,-2.3105,-2.3291,-2.2902,-2.2852,-2.2784,-2.2395,-2.231,-2.2649,-2.3782,-2.3342,-2.3816,-2.6928,-2.7655,-2.9228,-3.3254,-3.6468,-3.9377,-4.1982,-4.2963,-4.3724,0.0,-4.4587,-4.4587,-4.4587,-4.4253,-4.3621,-4.2645,-4.1869,-4.0961,-4.006,-3.961,-3.9589,-3.9948,-3.9604,-3.9604,-3.9948,-3.9589,-3.9424,-3.9424,-3.9424,-3.9424,0.0,0.0,0.0,-3.9424,-3.9424,-3.9424,-3.9424,-3.9424,-3.9424,-3.9424,-3.9424,-3.9017,-3.8383,-3.742,-3.5682,-3.3869,-3.3326,-3.3081,-3.3081,-3.3081,-3.3081,-3.3081,-3.3081,-3.3081,-3.3081,-3.3081,-3.3081,-3.3081,-3.3081,-3.3081,-3.3081,-3.3081,-3.3081,-3.3081,-3.3081,-3.3081,-3.298,-3.2667,-3.2867,-3.2968,-3.2654,-3.177,-3.1223,-3.1223,-2.9131,-2.7589,-2.7589,-2.6476,-2.5742,-2.5742,-2.5742,-2.5742,-2.5742,-2.5742,-2.5742,-2.5742,-2.5742,-2.5742,-2.5742,-2.5742,-2.5742,-2.5742,-2.5742,-2.5742,-2.5742,-2.5742,-2.5742,-2.2989,-2.3391,-2.3646,-2.3325,-2.3308,-2.3359,-2.3257,0.0,0.0,-2.231,-2.2395,-2.2733,-2.3579,-2.3833,-2.4425,-2.6031,-2.7723,-3.0514,-3.5301,-3.7905,-4.007,-4.2049,-4.3064,0.0,-4.4519,-4.4587,-4.4587,-4.4587,-4.3831,-4.3261,-4.3141,-4.1533,-4.0515,-4.038,-3.9652,-3.926,-3.926,-3.9364,-3.9424,-3.9424,-3.9424,-3.9424,-3.9424,-3.9424,-3.9424,-3.9424,0.0,0.0,-3.9424,-3.9424,-3.9424,-3.9424,-3.9424,-3.9424,-3.9352,-3.9192,-3.9017,-3.862,-3.6448,-3.4568,-3.3081,-3.3081,-3.3081,-3.3081,-3.3081,-3.3081,-3.3081,-3.3081,-3.3081,-3.3081,-3.3081,-3.3081,-3.3081,-3.3081,-3.3081,-3.3081,-3.3081,-3.3081,-3.3081,-3.3081,-3.3081,-3.3081,-3.3081,-3.3081,-3.3081,-3.3081,-3.2052,-3.1134,-3.0944,-2.8947,-2.7494,-2.7305,-2.639,-2.5742,-2.5742,-2.5742,-2.5742,-2.5742,-2.5742,-2.5742,-2.5742,-2.5742,-2.5742,-2.5742,-2.5742,-2.5742,-2.5742,-2.5742,-2.5742,-2.5742,-2.5742,-2.5742,-2.4278,-2.4936,-2.4814,-2.2953,-2.2936,-2.3241,-2.2615,-2.2395,0.0,0.0,-2.2801,-2.3646,-2.5017,-2.5778,-2.6894,-2.9059,-3.1698,-3.4421,-3.7178,-3.9462,-4.1221,-4.2185,0.0,-4.4451,-4.457,-4.4587,-4.4587,-4.4587,-4.385,-4.3109,-4.2442,-4.0849,-3.9645,-3.8936,-3.8713,-3.8542,-3.8542,-3.9125,-3.9424,-3.9424,-3.9424,-3.9424,-3.9424,-3.9424,-3.9424,-3.9424,0.0,-3.9424,-3.9424,-3.9424,-3.9424,-3.9424,-3.9424,-3.9424,-3.9265,-3.8383,-3.7496,-3.6369,-3.4332,-3.3398,-3.3081,-3.3081,-3.3081,-3.3081,-3.3081,-3.3081,-3.3081,-3.3081,-3.3081,-3.3081,-3.3081,-3.3081,-3.3081,-3.3081,-3.3081,-3.3081,-3.3081,-3.3081,-3.3081,-3.3081,-3.3081,-3.3081,-3.3081,-3.3081,-3.3081,-3.3081,-3.2052,-3.0855,-2.9772,-2.8495,-2.722,-2.611,-2.583,-2.5742,-2.5742,-2.5742,-2.5742,-2.5742,-2.5742,-2.5742,-2.5742,-2.5742,-2.5742,-2.5742,-2.5742,-2.5742,-2.5742,-2.5742,-2.5742,-2.5742,-2.5742,-2.5742,-2.3346,-2.3952,-2.4255,-2.363,-2.4644,-2.5592,-2.4847,-2.4678,-2.4678,0.0,-2.4949,-2.5507,-2.6607,-2.7418,-2.8924,-3.1985,-3.4303,-3.6383,-3.8227,-3.9715,-4.0865,0.0,0.0,-4.3352,-4.3352,-4.3352,-4.3352,-4.3352,-4.3014,0.0,-4.2267,-4.1148,-4.0128,-3.9345,-3.8789,-3.8319,-3.7853,-3.8182,-3.8691,-3.9424,-3.9035,-3.8856,-3.8856,-3.8497,-3.8332,-3.8332,0.0,-3.8332,-3.8332,-3.8332,-3.8332,-3.8377,-3.8721,-3.8856,-3.8829,-3.8723,-3.7648,-3.6039,-3.5116,-3.4024,-3.3081,-3.3081,-3.3081,-3.3081,-3.3081,-3.3081,-3.3081,-3.3081,-3.3081,-3.3081,-3.3081,-3.3081,-3.3081,-3.3081,-3.3081,-3.3081,-3.3081,-3.3081,-3.3081,-3.3081,-3.3081,-3.3081,-3.3081,-3.3081,-3.2884,-3.2152,-3.1045,-2.9772,-2.8588,-2.7305,-2.639,-2.5732,-2.5742,-2.5742,-2.5742,-2.5742,-2.5742,-2.5742,-2.5742,-2.5742,-2.5742,-2.5742,-2.5742,-2.5742,-2.5742,-2.5615,-2.5371,-2.5615,-2.5615,-2.5381,-2.5625,-2.5742,-2.2987,-2.3359,-2.3816,-2.456,-2.5778,-2.681,-2.6928,-2.6691,-2.659,-2.7114,-2.7368,-2.7621,-2.801,-2.9144,-3.1173,-3.4709,-3.6417,-3.7753,-3.9056,-3.9884,-4.0561,-4.1136,-4.1847,-4.2286,-4.2286,-4.2109,-4.2109,-4.2286,0.0,0.0,-4.1786,-4.08,-3.9924,-3.9147,-3.8479,-3.7821,-3.7195,-3.7345,-3.7928,-3.8945,-3.8407,-3.8167,-3.8138,-3.7644,-3.7404,-3.7404,-3.7404,-3.7404,-3.7404,-3.7404,-3.7404,-3.7464,-3.7958,-3.8012,-3.7846,-3.7901,-3.6826,-3.5391,-3.5153,-3.3996,-3.2704,-3.283,-3.288,-3.2905,-3.3031,-3.3081,-3.3081,-3.3081,-3.3081,-3.3081,-3.3081,-3.3081,-3.3081,-3.3081,-3.3081,-3.3081,-3.3081,-3.3081,-3.3081,-3.3081,-3.3081,-3.3081,-3.3081,-3.3081,-3.2797,-3.1777,-3.0586,-2.9407,-2.8132,-2.6945,-2.6014,-2.5732,-2.5742,-2.5742,-2.5742,-2.5742,-2.5693,-2.5586,-2.5684,-2.5742,-2.5742,-2.5742,-2.5742,-2.5742,-2.5635,-2.541,-2.5068,-2.541,-2.54,-2.5078,-2.5527,-2.5742,-2.5,-2.4898,-2.4594,-2.5338,-2.4611,-2.4425,-2.7131,-2.6674,-2.6285,-2.8383,-2.9381,-2.9668,-2.9008,-3.119,-3.41,-3.7161,-3.8311,-3.9106,-3.9884,0.0,-4.1136,-4.1204,-4.1847,-4.2286,-4.2286,-4.1655,-4.1544,0.0,0.0,0.0,-4.0277,-3.8837,-3.7658,-3.6877,-3.6687,-3.6618,-3.6552,-3.712,-3.7464,-3.7554,-3.7509,-3.7479,-3.7479,-3.7434,-3.7404,-3.7404,-3.7404,-3.7404,-3.7404,-3.7404,-3.7404,-3.7404,-3.7464,-3.6895,-3.587,-3.4113,-3.3276,-3.2949,-3.2043,-3.1663,-3.1599,-3.2102,-3.2277,-3.2378,-3.2918,-3.3081,-3.3081,-3.3081,-3.3081,-3.3081,-3.3081,-3.3081,-3.3081,-3.3081,-3.3081,-3.3081,-3.3081,-3.3081,-3.3081,-3.3081,-3.3081,-3.3081,-3.3081,-3.3081,-3.3068,-3.2982,-3.1877,-3.0676,-2.9407,-2.8226,-2.703,-2.583,-2.5742,-2.5742,-2.5742,-2.5742,-2.5557,-2.5137,-2.5508,-2.5742,-2.5742,-2.5742,-2.5742,-2.5742,-2.5332,-2.5098,-2.5068,-2.5098,-2.5098,-2.5078,-2.5527,-2.5742,-2.4086,-2.4357,-2.4692,-2.5423,-2.5524,-2.5998,-2.8061,-2.9178,-3.026,-3.2036,-3.3017,-3.3457,-3.3169,-3.4032,-3.547,-3.7567,-3.8514,-3.9242,-3.9969,-4.0324,-4.051,-4.051,-4.0747,-4.0916,-4.0916,-4.0692,-4.0639,0.0,0.0,0.0,-3.9336,-3.8351,-3.7456,-3.6615,-3.6583,-3.6322,-3.5878,-3.6103,-3.6222,-3.6222,-3.6641,-3.6836,-3.6821,-3.6417,-3.6222,-3.6222,-3.6222,-3.6222,-3.6222,-3.6222,-3.6222,-3.6267,-3.6671,-3.6482,-3.5842,-3.5173,-3.4052,-3.2856,-3.2554,-3.1941,-3.1424,-3.1637,-3.17,-3.175,-3.1964,-3.2265,-3.2541,-3.2541,-3.2805,-3.3081,-3.3081,-3.3081,-3.3081,-3.3081,-3.3081,-3.3081,-3.3081,-3.3081,-3.3081,-3.3081,-3.3081,-3.3081,-3.3081,-3.3081,-3.2797,-3.2052,-3.0866,-2.967,-2.8412,-2.722,-2.6197,-2.5732,-2.5742,-2.5742,-2.5742,-2.5742,-2.5664,-2.5498,-2.5381,-2.5322,-2.5322,-2.5322,-2.5449,-2.5732,-2.5566,-2.5352,-2.5068,-2.5352,-2.5342,-2.5078,-2.5527,-2.5742,-2.3799,-2.3934,-2.4374,-2.5372,0.0,-2.7283,-2.9516,-3.119,-3.2848,-3.481,-3.5436,-3.569,-3.5943,-3.5994,-3.64,-3.7702,-3.87,-3.9512,-4.0003,-4.007,-4.007,-4.007,-4.007,-4.007,-4.007,-3.985,0.0,0.0,0.0,0.0,0.0,-3.8092,-3.7338,-3.6275,-3.6275,-3.6006,-3.5504,-3.5504,-3.5385,-3.519,-3.5848,-3.6178,-3.6163,-3.5714,-3.5504,-3.5504,-3.5504,-3.5504,-3.5504,-3.5504,-3.5504,-3.5484,-3.5339,-3.5325,-3.5238,-3.4363,-3.3343,-3.2394,-3.2097,-3.1496,-3.0922,-3.1085,-3.1148,-3.1173,-3.1336,-3.165,-3.1951,-3.1951,-3.2365,-3.2805,-3.2805,-3.2943,-3.3081,-3.3081,-3.3081,-3.3081,-3.3081,-3.3081,-3.3081,-3.3081,-3.3081,-3.3081,-3.3081,-3.2797,-3.2239,-3.1311,-2.9863,-2.8495,-2.7683,-2.6476,-2.5742,-2.5742,-2.5742,-2.5742,-2.5742,-2.5742,-2.5674,-2.5537,-2.5234,-2.5127,-2.5273,-2.5283,-2.543,-2.5732,-2.5596,-2.5371,-2.5068,-2.5371,-2.5371,-2.5078,-2.5121,-2.5118,-2.4678,-2.3951,-2.3765,-2.5253,-2.6184,-2.7723,-3.1444,-3.2324,-3.3203,-3.6197,-3.6197,-3.5893,-3.6654,-3.6806,-3.7043,-3.7787,-3.9123,-4.007,-4.007,-4.007,-4.007,-4.007,-4.007,-4.007,-4.007,0.0,0.0,0.0,0.0,0.0,0.0,-3.7732,-3.704,-3.5539,-3.5489,-3.5489,-3.5489,-3.5489,-3.5145,-3.4472,-3.516,-3.5489,-3.5489,-3.5504,-3.5504,-3.5504,-3.5504,-3.5504,-3.5504,-3.5504,-3.5504,-3.5294,-3.3394,-3.3171,-3.3671,-3.0859,-3.0419,-3.1044,-3.0139,-2.9792,-2.988,-3.0432,-3.0608,-3.0708,-3.1223,-3.1386,-3.1386,-3.1386,-3.1775,-3.2202,-3.2202,-3.2629,-3.3068,-3.3068,-3.3081,-3.3081,-3.3068,-3.3068,-3.3081,-3.3068,-3.3081,-3.3081,-3.3068,-3.2052,-3.1223,-3.1211,-2.9131,-2.7589,-2.7589,-2.6476,-2.5742,-2.5742,-2.5742,-2.5742,-2.5742,-2.5742,-2.5547,-2.5098,-2.5078,-2.5273,-2.5713,-2.5732,-2.5732,-2.5742,-2.5303,-2.5078,-2.5078,-2.5068,-2.5068,-2.5088,-2.41,-2.3683,-2.3917,-2.4323,-2.5186,-2.6133,-2.8518,-3.1055,-3.2702,-3.3885,-3.5487,-3.8481,-3.8053,-3.7386,-3.8181,-3.7922,-3.7821,-3.8548,-3.8572,-3.8853,-3.9952,-3.961,-3.9489,-4.002,-4.007,-4.007,-4.007,0.0,0.0,0.0,0.0,0.0,0.0,-3.5102,-3.4592,-3.4083,-3.4083,-3.4083,-3.4083,-3.4083,-3.3978,-3.3784,-3.3993,-3.4337,-3.4801,-3.528,-3.5504,-3.5504,-3.5504,-3.5504,-3.5504,-3.5504,-3.5504,-3.5439,-3.4854,-3.3973,-3.289,-3.2119,-3.1132,-3.0216,-2.9856,-2.9792,-2.9817,-2.998,-3.0043,-3.0068,-3.0218,-3.0532,-3.0846,-3.0846,-3.1223,-3.1637,-3.1637,-3.1763,-3.1989,-3.2378,-3.278,-3.2855,-3.2064,-3.2516,-3.2955,-3.2554,-3.2805,-3.2797,-3.1965,-3.1412,-3.0944,-3.0033,-2.8588,-2.7315,-2.639,-2.5917,-2.5742,-2.5742,-2.5742,-2.5742,-2.5742,-2.5742,-2.5684,-2.5547,-2.5537,-2.5459,-2.5273,-2.5273,-2.541,-2.5732,-2.5605,-2.5537,-2.5537,-2.5225,-2.5234,-2.5431,-2.3953,-2.3412,-2.4746,-2.5575,-2.681,-2.8146,-3.0404,-3.2729,-3.4316,-3.5381,-3.6738,-3.9124,-3.8629,-3.8027,-3.8873,-3.8354,0.0,-3.8472,-3.8117,-3.8106,-3.9053,-3.8761,-3.8537,-3.8758,-3.8778,-3.8662,-3.8432,0.0,0.0,0.0,0.0,0.0,0.0,-3.4237,-3.3834,-3.3499,-3.3499,-3.3499,-3.3499,-3.3499,-3.3365,-3.311,-3.3365,-3.3559,-3.3724,-3.4397,-3.4846,-3.5115,-3.5385,-3.5504,-3.5504,-3.5504,-3.5279,-3.4839,-3.4476,-3.3394,-3.2033,-3.1623,-3.0771,-2.9792,-2.9792,-2.9792,-2.9792,-2.9792,-2.9792,-2.9792,-2.9792,-3.003,-3.0281,-3.0281,-3.067,-3.1085,-3.1085,-3.1235,-3.1474,-3.1813,-3.2152,-3.2215,-3.1537,-3.2102,-3.2629,-3.2277,-3.2679,-3.2711,-3.14,-3.0765,-3.0045,-2.8866,-2.7673,-2.6572,-2.583,-2.5742,-2.5742,-2.5742,-2.5742,-2.5742,-2.5742,-2.5742,-2.5742,-2.5742,-2.5742,-2.5615,-2.5352,-2.5332,-2.5459,-2.5732,-2.5566,-2.5557,-2.5742,-2.5117,-2.4745,-2.4667,-2.3001,-2.212,-2.6319,-2.7097,-2.8241,-3.0538,-3.1812,-3.3242,-3.6023,-3.6619,-3.7022,-3.8488,-3.8236,-3.7953,-3.8757,-3.8299,-3.7761,-3.7695,-3.7632,-3.7578,-3.763,-3.7556,-3.7317,-3.6758,-3.6678,-3.6493,0.0,0.0,0.0,0.0,0.0,0.0,0.0,-3.4403,-3.4053,-3.332,-3.332,-3.332,-3.332,-3.332,-3.3021,-3.2437,-3.3036,-3.3006,-3.2452,-3.317,-3.3829,-3.4427,-3.5055,-3.5355,-3.5415,-3.5415,-3.4927,-3.4027,-3.3101,-3.2177,-3.118,-3.0279,-2.9856,-2.9792,-2.9792,-2.9792,-2.9792,-2.9792,-2.9792,-2.9792,-2.9792,-2.9792,-2.9792,-2.9792,-3.0156,-3.0545,-3.0545,-3.0896,-3.1248,-3.1248,-3.1323,-3.1361,-3.126,-3.1712,-3.2127,-3.2077,-3.2481,-3.2438,-3.1151,-3.0011,-2.8855,-2.7589,-2.6476,-2.5742,-2.5742,-2.5742,-2.5742,-2.5742,-2.5742,-2.5723,-2.5684,-2.5674,-2.5674,-2.5674,-2.5674,-2.5693,-2.5742,-2.5742,-2.5742,-2.5742,-2.5293,-2.5273,-2.5674,-2.4691,-2.3805,-2.3139,-2.1514,-2.0158,-2.4915,-2.5965,-2.7542,-2.9865,-3.2257,-3.4491,-3.6204,-3.6184,-3.6199,-3.7716,-3.743,-3.7085,-3.7923,-3.7923,-3.7617,-3.7093,-3.6463,-3.6079,-3.6222,-3.5726,-3.5508,-3.5973,-3.6011,-3.5947,0.0,0.0,0.0,0.0,0.0,0.0,-3.2176,-3.2176,-3.2118,-3.1958,-3.1958,-3.1958,-3.1958,-3.1958,-3.1884,0.0,-3.1884,-3.1884,-3.1779,-3.2961,-3.3574,-3.3709,-3.3858,-3.4218,-3.4696,-3.4696,-3.4867,-3.5067,-3.4109,-3.3101,-3.2177,-3.1254,-3.0419,-2.9792,-2.9792,-2.9792,-2.9792,-2.9792,-2.9792,-2.9792,-2.9792,-2.9792,-2.9792,-2.9792,-2.988,-2.9967,-2.9967,-3.0055,-3.0131,-3.0131,-3.0783,-3.116,-3.0319,-3.0896,-3.1449,-3.1035,-3.0952,-3.0616,-2.9361,-2.8521,-2.7589,-2.6294,-2.5927,-2.5742,-2.5742,-2.5742,-2.5742,-2.5742,-2.5742,-2.5596,-2.5244,-2.5215,-2.5215,-2.5215,-2.5215,-2.5371,-2.5723,-2.5742,-2.5742,-2.5742,-2.5293,-2.5117,-2.5215,-2.3392,-2.263,-2.2627,-1.9926,-1.8845,-2.5693,-2.6942,-2.8469,-3.1118,-3.3175,-3.4673,-3.5431,-3.554,-3.5733,-3.6554,-3.6631,-3.6843,-3.7632,-3.7245,-3.6648,-3.6269,-3.5329,-3.4605,-3.469,-3.4383,-3.4158,-3.4193,-3.4203,0.0,0.0,0.0,0.0,0.0,0.0,-3.1482,-3.1482,-3.1482,-3.1482,-3.1482,-3.1482,-3.1482,-3.1482,-3.1482,-3.1482,-3.1482,-3.1482,-3.1482,-3.1511,-3.2572,-3.3021,-3.3036,-3.3365,-3.3694,-3.4038,-3.4352,-3.4411,-3.4281,-3.3639,-3.2749,-3.1829,-3.0908,-3.0203,-2.9792,-2.9792,-2.9792,-2.9792,-2.9792,-2.9792,-2.9792,-2.9792,-2.9792,-2.9792,-2.9792,-2.9792,-2.9792,-2.9792,-2.9792,-2.9792,-2.9792,-3.0218,-3.047,-2.9917,-3.0432,-3.0934,-3.067,-3.0333,-2.9809,-2.8812,-2.7543,-2.6476,-2.583,-2.5742,-2.5742,-2.5742,-2.5742,-2.5742,-2.5742,-2.5742,-2.5644,-2.541,-2.5391,-2.5391,-2.5391,-2.5391,-2.5488,-2.5723,-2.5742,-2.5742,-2.5742,-2.5293,-2.5068,-2.5068,-2.2982,-2.1746,-2.1353,-1.9098,-1.805,-2.6539,-2.8118,-2.9705,-3.2455,-3.3675,-3.4191,-3.433,-3.4756,-3.516,-3.516,-3.5748,-3.6445,-3.7105,-3.6126,-3.5212,-3.5105,-3.4061,-3.329,-3.317,-3.3155,-3.2961,-3.2407,-3.2347,0.0,0.0,0.0,0.0,0.0,0.0,-3.1482,-3.1482,-3.1482,-3.1482,-3.1482,-3.1482,-3.1482,-3.1482,-3.1482,-3.1482,-3.1482,-3.1482,-3.1482,-3.1497,-3.2093,-3.2347,-3.2377,-3.2916,-3.3215,-3.3365,-3.3918,-3.3746,-3.3085,-3.2527,-3.1792,-3.1037,-3.0024,-2.9641,-2.9654,-2.9754,-2.9792,-2.9792,-2.9792,-2.9792,-2.9792,-2.9792,-2.9792,-2.9792,-2.9792,-2.9792,-2.9792,-2.9792,-2.9792,-2.9792,-2.9792,-2.9792,-2.9792,-2.9792,-3.0156,-3.047,-3.047,-2.9885,-2.9044,-2.8131,-2.665,-2.5644,-2.5723,-2.5742,-2.5742,-2.5742,-2.5742,-2.5713,-2.5635,-2.5625,-2.5586,-2.5518,-2.5508,-2.5547,-2.5615,-2.5625,-2.5664,-2.5732,-2.543,-2.5333,-2.5333,-2.4996,-2.4764,-2.4764,-2.2469,-2.0891,-1.9833,-1.8376,-1.7414,-2.4644,-2.6967,-2.9517,-3.1304,-3.2255,-3.2916,-3.3469,-3.3694,-3.3769,-3.3769,-3.4328,-3.4844,-3.4891,-3.4286,-3.3607,-3.3036,-3.2751,-3.2437,-3.1884,-3.1794,-3.1706,-3.1616,-3.1601,0.0,0.0,0.0,0.0,0.0,-3.1482,-3.1482,-3.1482,-3.1482,-3.1482,-3.1482,-3.1482,-3.1482,-3.1482,-3.1482,-3.1482,-3.1482,-3.1482,-3.1482,-3.1482,-3.1556,-3.1601,-3.1616,-3.1764,-3.2123,-3.2647,-3.2736,-3.305,-3.3295,-3.1688,-3.0979,-3.0692,-2.9494,-2.9038,-2.9114,-2.9616,-2.9792,-2.9792,-2.9792,-2.9792,-2.9792,-2.9792,-2.9792,-2.9792,-2.9792,-2.9792,-2.9792,-2.9792,-2.9792,-2.9792,-2.9792,-2.9792,-2.9792,-2.9792,-2.9854,-2.9905,-2.9905,-2.8561,-2.7063,-2.5827,-2.5391,-2.5293,-2.5684,-2.5742,-2.5742,-2.5742,-2.5742,-2.5586,-2.5195,-2.5156,-2.5,-2.4629,-2.459,-2.4756,-2.5137,-2.5156,-2.5332,-2.5723,-2.4609,-2.3998,-2.3998,-2.3499,-2.329,-2.329,-2.0419,-1.8874,-1.8671,-1.7253,-1.6765,-2.4851,-2.6872,-2.8951,-3.0543,-3.1465,-3.2138,-3.2796,-3.323,-3.3499,-3.3499,-3.344,-3.3484,-3.3858,-3.338,-3.2841,-3.2557,-3.2198,-3.1869,-3.1511,-3.1482,-3.1482,-3.1482,-3.1482,0.0,0.0,0.0,0.0,0.0,-3.118,-3.0956,-3.0956,-3.0627,-3.0447,-3.0447,-3.0447,-3.0447,-3.0447,-3.0447,-3.0612,-3.0956,-3.1287,-3.1482,-3.1482,-3.1482,-3.1482,-3.1482,-3.1482,-3.1704,-3.2003,-3.2362,-3.2406,-3.209,-3.119,-3.0528,-2.9952,-2.8848,-2.8662,-2.8963,-2.9214,-2.9528,-2.9792,-2.9792,-2.9792,-2.9792,-2.9792,-2.9792,-2.9792,-2.9792,-2.9792,-2.9792,-2.9792,-2.9792,-2.9792,-2.9792,-2.9792,-2.9792,-2.9792,-2.9792,-2.9456,-2.8211,-2.6948,-2.5791,-2.4552,-2.4551,-2.4853,-2.5293,-2.5156,-2.5088,-2.5332,-2.5146,-2.4922,-2.4727,-2.4697,-2.4619,-2.4434,-2.4639,-2.4863,-2.5059,-2.5303,-2.542,-2.5361,-2.4165,-2.3465,-2.3349,-2.2597,-2.2107,-2.1893,-1.9685,-1.855,-1.8452,-1.6981,-1.6587,-2.4772,-2.6268,-2.7661,-2.9264,-3.0203,-3.1001,-3.1809,-3.2392,-3.2781,-3.2961,-3.2602,-3.2422,-3.2901,-3.2602,-3.2273,-3.2273,-3.1854,-3.1482,-3.1482,-3.1482,-3.1482,-3.1482,-3.1482,0.0,0.0,0.0,0.0,0.0,-3.0552,-3.0268,-3.0268,-2.9834,-2.9579,-2.9579,-2.9579,-2.9579,-2.9579,-2.9579,-2.9819,-3.0283,-3.0941,-3.127,-3.1228,-3.1392,-3.1482,-3.1482,-3.1482,-3.1482,-3.1511,-3.2063,-3.1736,-3.0912,-3.049,-2.9821,-2.8973,-2.8181,-2.816,-2.8549,-2.8837,-2.9214,-2.9591,-2.9741,-2.9792,-2.9792,-2.9792,-2.9792,-2.9792,-2.9792,-2.9792,-2.9792,-2.9792,-2.9792,-2.9792,-2.9792,-2.9611,-2.9456,-2.9714,-2.9534,-2.8791,-2.6894,-2.5849,-2.4928,-2.3939,-2.4053,-2.4404,-2.4834,-2.4619,-2.4531,-2.4863,-2.4619,-2.4375,-2.4268,-2.4258,-2.4258,-2.4258,-2.4551,-2.4785,-2.4893,-2.5215,-2.5063,-2.4525,-2.324,-2.2355,-2.1959,-2.1029,-2.0623,-2.064,-1.9124,-1.8287,-1.8188,-1.6902,-1.666,-2.3457,-2.4381,-2.5453,-2.7011,-2.8091,-2.9086,-3.0328,-3.0627,-3.0851,-3.1437,-3.1556,-3.1541,-3.1571,-3.1556,-3.1526,-3.1526,-3.1497,-3.1482,-3.1482,-3.1482,-3.1482,-3.1482,-3.1482,0.0,0.0,0.0,0.0,0.0,-2.9654,-2.9624,-2.9624,-2.9609,-2.9579,-2.9579,-2.9579,-2.9579,-2.9579,-2.9579,-2.9594,-2.9639,-3.0253,-3.0552,-3.0582,-3.124,-3.1482,-3.1482,-3.1482,-3.1482,-3.1482,-3.1511,-3.1087,-3.0251,-2.9401,-2.8587,-2.7761,-2.7456,-2.7344,-2.7519,-2.8561,-2.895,-2.9063,-2.9616,-2.9792,-2.9792,-2.9792,-2.9792,-2.9792,-2.9792,-2.9792,-2.9792,-2.9792,-2.9792,-2.9792,-2.9792,-2.8937,-2.8505,-2.9534,-2.8937,-2.7844,-2.6719,-2.5568,-2.4633,-2.389,-2.3809,-2.3965,-2.4394,-2.4434,-2.4424,-2.4443,-2.4434,-2.4258,-2.3867,-2.3828,-2.3828,-2.3828,-2.3838,-2.4023,-2.4424,-2.4473,-2.3906,-2.2735,-2.1475,-2.0216,-1.8965,-1.7915,-1.821,-1.9701,-1.8072,-1.7224,-1.7224,-1.682,-1.6854,-2.3358,-2.3842,-2.4372,-2.566,-2.6856,-2.7849,-2.8516,-2.9594,-3.0567,-3.0821,-3.1225,-3.1482,-3.1482,-3.1482,-3.1482,-3.1482,-3.1482,-3.1482,-3.1482,-3.1482,-3.1317,-3.0926,0.0,0.0,0.0,0.0,0.0,0.0,0.0,-2.8951,-2.8951,-2.8532,-2.8344,-2.8344,-2.8344,-2.8344,-2.8344,-2.8727,-2.8951,-2.8966,-2.9609,-3.0118,-3.0507,-3.0761,-3.1106,-3.1482,-3.1482,-3.1482,-3.1482,-3.1482,-3.1029,-3.0208,-2.9317,-2.8492,-2.763,-2.6998,-2.6979,-2.7344,-2.7733,-2.8335,-2.8963,-2.9164,-2.949,-2.9792,-2.9792,-2.9792,-2.9792,-2.9792,-2.9792,-2.9792,-2.9792,-2.9792,-2.9624,-2.8858,-2.7867,-2.7209,-2.7626,-2.6789,-2.5859,-2.5462,-2.4467,-2.36,-2.3428,-2.3369,-2.3516,-2.3945,-2.3779,-2.3701,-2.3975,-2.3769,-2.3545,-2.3389,-2.3369,-2.3369,-2.3369,-2.3633,-2.3577,-2.2879,-2.3131,-2.258,-2.1079,-1.9757,-1.8912,-1.8342,-1.7211,-1.7027,-1.7712,-1.711,-1.6867,-1.686,-1.6754,-1.6867,-2.2953,-2.3029,-2.327,-2.4773,-2.5358,-2.5909,-2.7255,-2.8412,-2.9325,-2.9774,-3.0417,-3.0941,-3.115,-3.1016,-3.1016,-3.1407,-3.1482,-3.1482,-3.1482,-3.1345,-3.1016,-3.0552,0.0,0.0,0.0,0.0,0.0,0.0,0.0,0.0,-2.8248,-2.7814,-2.7625,-2.7625,-2.7625,-2.7625,-2.7625,-2.8023,-2.8248,-2.8263,-2.8921,-2.946,-2.9879,-3.0103,-3.0447,-3.0881,-3.0881,-3.112,-3.1482,-3.1482,-3.0837,-2.9827,-2.9254,-2.8298,-2.7229,-2.6714,-2.676,-2.703,-2.7218,-2.7758,-2.8436,-2.88,-2.9189,-2.9541,-2.9729,-2.9792,-2.9792,-2.9792,-2.9792,-2.9792,-2.9792,-2.9534,-2.8949,-2.7855,-2.6707,-2.5797,-2.5473,-2.5041,-2.4787,-2.4787,-2.3877,-2.3135,-2.3135,-2.3135,-2.3242,-2.3525,-2.332,-2.3242,-2.3535,-2.332,-2.3135,-2.3135,-2.3135,-2.3135,-2.3135,-2.3025,-2.264,-2.1808,-2.1683,-2.0857,-1.9402,-1.8558,-1.7823,-1.7347,-1.6697,-1.6319,-1.6413,-1.6513,-1.656,-1.656,-1.666,-1.6867,0.0,0.0,0.0,-2.4222,-2.346,-2.3111,-2.6627,-2.6965,-2.6886,-2.8263,-2.9071,-2.9714,-3.0357,-2.9983,-2.9998,-3.127,-3.1422,-3.1422,-3.1437,-3.0911,-3.0477,-3.0447,0.0,0.0,0.0,0.0,0.0,0.0,-2.7625,-2.7625,-2.7625,-2.7625,-2.7625,-2.7625,-2.7625,-2.7625,-2.7625,-2.7625,-2.7625,-2.7625,-2.8248,-2.8577,-2.8622,-2.9265,-2.9564,-2.9579,-2.9579,-3.0298,-3.1422,-3.1437,-3.051,-2.9066,-2.9002,-2.7986,-2.6521,-2.6533,-2.6533,-2.6596,-2.7067,-2.7268,-2.7457,-2.8549,-2.8913,-2.9038,-2.9616,-2.9792,-2.9792,-2.9792,-2.9792,-2.9792,-2.9792,-2.8937,-2.7763,-2.6719,-2.563,-2.4457,-2.3299,-2.3963,-2.4787,-2.4787,-2.3887,-2.3135,-2.3135,-2.3135,-2.3135,-2.3135,-2.3135,-2.3135,-2.3135,-2.3135,-2.3135,-2.3135,-2.3135,-2.3057,-2.3047,-2.1943,-2.1293,-2.1203,-2.0124,-1.8864,-1.7684,-1.7591,-1.7037,-1.5825,-1.6112,-1.6119,-1.5832,-1.6126,-1.6266,-1.6266,-1.656,-1.6854,-2.2243,0.0,0.0,0.0,0.0,0.0,0.0,0.0,-2.4941,-2.6782,-2.7679,-2.8472,-2.9624,-2.9699,-2.9699,-3.0058,-3.0118,-3.0283,-3.0731,-3.0238,-2.9669,-2.9175,0.0,0.0,0.0,0.0,0.0,0.0,-2.7625,-2.7625,-2.7625,-2.7625,-2.7625,-2.7625,-2.7625,-2.7625,-2.7625,-2.7625,-2.7625,-2.7625,-2.7769,-2.8113,-2.8607,-2.8786,-2.9131,-2.9579,-2.9579,-2.9789,-3.0163,-3.0612,-3.0455,-2.9889,-2.9254,-2.8298,-2.7284,-2.6714,-2.6533,-2.6546,-2.6697,-2.6954,-2.7394,-2.8109,-2.8599,-2.9038,-2.9616,-2.9792,-2.9792,-2.9792,-2.9792,-2.9792,-2.9792,-2.8371,-2.6883,-2.6565,-2.4978,-2.3464,-2.3135,-2.3387,-2.3551,-2.3551,-2.3299,-2.3135,-2.3135,-2.3135,-2.3135,-2.3135,-2.3135,-2.3135,-2.3135,-2.3135,-2.3135,-2.3135,-2.3135,-2.2775,-2.1845,-2.1471,-2.0576,-1.8772,-1.8411,-1.7584,-1.6386,-1.6292,-1.6204,-1.5832,-1.5912,-1.5912,-1.5832,-1.6126,-1.6166,-1.5959,-1.6253,-1.6547,-2.231,-2.209,-2.1799,-2.1593,0.0,0.0,-2.1636,-2.2109,-2.2877,0.0,-2.5704,-2.6662,-2.7739,-2.7919,-2.8203,-2.9041,-2.8697,-2.8742,-2.9953,-2.9564,-2.9026,-2.8652,0.0,0.0,0.0,-2.7625,-2.7625,-2.7625,-2.7625,-2.7625,-2.7625,-2.7625,-2.7625,-2.7625,-2.7625,-2.7625,-2.7625,-2.7625,-2.7625,-2.7625,-2.7625,-2.7784,-2.8173,-2.8173,-2.8382,-2.8742,-2.8742,-2.8906,-2.9205,-2.9208,-2.929,-2.9275,-2.8716,-2.792,-2.7162,-2.6658,-2.6533,-2.6533,-2.6533,-2.6666,-2.703,-2.7582,-2.8134,-2.8687,-2.9264,-2.9603,-2.9792,-2.9792,-2.9456,-2.9106,-2.9106,-2.7452,-2.5797,-2.5797,-2.4382,-2.3135,-2.3135,-2.3135,-2.3135,-2.3135,-2.3135,-2.3135,-2.3135,-2.3135,-2.3135,-2.3135,-2.3135,-2.3135,-2.3135,-2.3135,-2.2872,-2.2403,-2.2306,-2.1854,-2.0666,-2.0124,-1.9222,-1.7785,-1.7225,-1.6574,-1.5832,-1.5832,-1.5832,-1.5832,-1.5832,-1.5832,-1.5832,-1.6005,-1.6059,-1.6019,-1.6192,-1.6359,-2.2332,-2.1877,-2.1673,-2.2531,-2.0958,0.0,-2.1758,-2.1374,-2.0961,0.0,-2.3445,-2.4522,-2.5255,-2.539,-2.5974,-2.7754,-2.7171,-2.7186,-2.919,-2.8906,-2.8487,-2.8487,0.0,0.0,-2.7625,-2.7625,-2.7625,-2.7625,-2.755,-2.7505,-2.7505,-2.7505,-2.755,-2.7625,-2.7625,-2.7625,-2.7625,-2.7625,-2.7625,-2.7625,-2.7625,-2.7625,-2.7625,-2.7625,-2.7625,-2.7625,-2.7625,-2.7919,-2.8435,-2.765,-2.7596,-2.7961,-2.7693,-2.7178,-2.6533,-2.6533,-2.6533,-2.6533,-2.6533,-2.6533,-2.6622,-2.7105,-2.7607,-2.8109,-2.8674,-2.9202,-2.9616,-2.9679,-2.8851,-2.8012,-2.8072,-2.6438,-2.4787,-2.4787,-2.3963,-2.3135,-2.3135,-2.3135,-2.3135,-2.3135,-2.3135,-2.3135,-2.3135,-2.3135,-2.3135,-2.3135,-2.3135,-2.3135,-2.3135,-2.3135,-2.2677,-2.1382,-2.1293,-2.0755,-1.9397,-1.8319,-1.7598,-1.7505,-1.6386,-1.5832,-1.5832,-1.5832,-1.5832,-1.5832,-1.5832,-1.5832,-1.5832,-1.5832,-1.5965,-1.6226,-1.6226,-1.6226,-2.2443,-2.2606,-2.2899,-2.1648,-2.1057,0.0,-1.9344,-1.9481,-2.0109,0.0,-2.1724,-2.2622,-2.3774,-2.3984,-2.4118,-2.4507,-2.5255,-2.6497,-2.8502,-2.8203,-2.7784,-2.7784,0.0,0.0,-2.7625,-2.7625,-2.7625,-2.7625,-2.7081,-2.6782,-2.6782,-2.6782,-2.7021,-2.761,-2.7625,-2.7625,-2.7625,-2.7625,-2.7625,-2.7625,-2.7625,-2.7625,-2.7625,-2.7625,-2.7625,-2.7625,-2.7625,-2.7649,-2.7748,-2.6832,-2.7072,-2.7934,-2.7304,-2.6828,-2.6533,-2.6533,-2.6533,-2.6533,-2.6533,-2.6533,-2.6622,-2.7105,-2.7356,-2.7544,-2.8097,-2.8348,-2.8524,-2.8963,-2.8277,-2.7561,-2.7977,-2.6438,-2.4787,-2.4787,-2.3963,-2.3135,-2.3135,-2.3135,-2.3135,-2.3135,-2.3135,-2.3135,-2.3135,-2.3135,-2.3135,-2.3135,-2.3135,-2.3135,-2.3135,-2.3135,-2.2677,-2.1382,-2.1293,-2.0395,-1.8234,-1.787,-1.7225,-1.6204,-1.592,-1.5832,-1.5832,-1.5832,-1.5832,-1.5832,-1.5832,-1.5832,-1.5832,-1.5832,-1.5858,-1.5912,-1.5912,-1.5912,-2.2264,-2.223,-2.2474,-2.1648,-2.1066,0.0,0.0,-1.9321,-1.939,-2.0064,-2.0468,-2.0887,-2.153,-2.1934,-2.2263,-2.2592,-2.3744,-2.4852,-2.5555,-2.6482,-2.6961,-2.6632,0.0,0.0,-2.6587,-2.6587,-2.6489,-2.6164,-2.5544,-2.5156,-2.5156,-2.5156,-2.53,-2.5618,-2.6257,-2.6585,-2.6585,-2.7294,-2.7625,-2.7625,-2.7625,-2.7625,-2.7625,-2.7625,-2.7625,-2.7575,-2.7188,-2.7034,-2.6959,-2.5771,-2.5751,-2.6553,-2.6322,-2.6161,-2.6063,-2.642,-2.6533,-2.6533,-2.6533,-2.6533,-2.6502,-2.6779,-2.7055,-2.7331,-2.7607,-2.7883,-2.8086,-2.7803,-2.7007,-2.6115,-2.5893,-2.4598,-2.3314,-2.3314,-2.2914,-2.251,-2.251,-2.251,-2.251,-2.251,-2.251,-2.2646,-2.3066,-2.3135,-2.3135,-2.3135,-2.2959,-2.29,-2.3105,-2.2408,-2.1471,-2.0297,-1.9656,-1.8494,-1.6707,-1.6529,-1.632,-1.5818,-1.5832,-1.5832,-1.5832,-1.5832,-1.5832,-1.5832,-1.5832,-1.5832,-1.5832,-1.5832,-1.5832,-1.5832,-1.5832,-1.5832,-2.2294,-2.2054,-2.2264,-2.2001,-2.1298,-2.0626,0.0,0.0,0.0,0.0,0.0,0.0,0.0,0.0,0.0,0.0,0.0,0.0,0.0,-2.4148,0.0,-2.5091,0.0,0.0,0.0,-2.5052,-2.4772,-2.4345,-2.3611,-2.3284,-2.352,-2.3534,-2.359,-2.3701,-2.4816,-2.5414,-2.5414,-2.6594,-2.724,-2.7408,-2.7408,-2.7458,-2.7625,-2.7625,-2.7625,-2.756,-2.6826,-2.651,-2.6404,-2.4894,-2.4569,-2.4977,-2.5205,-2.541,-2.5649,-2.6126,-2.6433,-2.6533,-2.6533,-2.6533,-2.6533,-2.6533,-2.6766,-2.7118,-2.6905,-2.7133,-2.7347,-2.6423,-2.5375,-2.4403,-2.3711,-2.2737,-2.1885,-2.1885,-2.1885,-2.1885,-2.1885,-2.1885,-2.1885,-2.1885,-2.1885,-2.21,-2.2783,-2.29,-2.29,-2.29,-2.2607,-2.2425,-2.2573,-2.1423,-2.007,-1.8764,-1.778,-1.6628,-1.5402,-1.5364,-1.5498,-1.5732,-1.5798,-1.5832,-1.5832,-1.5832,-1.5832,-1.5832,-1.5832,-1.5832,-1.5832,-1.5832,-1.5832,-1.5832,-1.5832,-1.5635,-2.3197,-2.3769,-2.4451,-2.2297,-2.247,-2.243,-1.9591,0.0,-2.0168,-1.9046,0.0,0.0,0.0,0.0,0.0,0.0,0.0,0.0,-2.0124,-2.1306,-2.2443,-2.2993,0.0,0.0,0.0,-2.3055,-2.2611,-2.2916,-2.2002,-2.1815,-2.274,-2.2796,-2.3095,-2.3687,-2.4298,-2.4604,-2.4604,-2.5298,-2.6,-2.6616,-2.6616,-2.6982,-2.7625,-2.7625,-2.7625,-2.756,-2.6826,-2.651,-2.6404,-2.4894,-2.4332,-2.4392,-2.4226,-2.4757,-2.5598,-2.5674,-2.6013,-2.6533,-2.6533,-2.6533,-2.6533,-2.6533,-2.6571,-2.6402,-2.5538,-2.5278,-2.5206,-2.4746,-2.3799,-2.3055,-2.3387,-2.2737,-2.1885,-2.1885,-2.1885,-2.1885,-2.1885,-2.1885,-2.1885,-2.1885,-2.1885,-2.1914,-2.2012,-2.2031,-2.2031,-2.2031,-2.1992,-2.162,-2.0679,-2.038,-1.941,-1.7255,-1.6903,-1.6389,-1.519,-1.5251,-1.5411,-1.5444,-1.5691,-1.5832,-1.5832,-1.5832,-1.5832,-1.5832,-1.5832,-1.5832,-1.5832,-1.5832,-1.5832,-1.5832,-1.5832,-1.5242,-2.2858,-2.3299,-2.385,-2.2424,-2.2452,-2.2313,-2.0295,0.0,-1.9959,0.0,0.0,0.0,0.0,0.0,0.0,0.0,-1.8927,0.0,0.0,0.0,-2.0498,0.0,0.0,0.0,0.0,0.0,0.0,0.0,-1.975,-1.9403,-2.0512,-2.0565,-2.0814,-2.143,-2.2427,-2.3055,-2.3393,-2.438,-2.5202,-2.5837,-2.6283,-2.6443,-2.6322,-2.6759,-2.6707,-2.6269,-2.555,-2.5231,-2.5119,-2.4047,-2.359,-2.3628,-2.3523,-2.3979,-2.4745,-2.5372,-2.5749,-2.6013,-2.6352,-2.6533,-2.6383,-2.5804,-2.5664,-2.5441,-2.4409,-2.412,-2.3936,-2.3165,-2.2615,-2.222,-2.1893,-2.1491,-2.1123,-2.1123,-2.1123,-2.1123,-2.1123,-2.1123,-2.1123,-2.1123,-2.1123,-2.1123,-2.1123,-2.1553,-2.1709,-2.0996,-2.0707,-2.0218,-1.9408,-1.8379,-1.7491,-1.6642,-1.5886,-1.5297,-1.4791,-1.4816,-1.4963,-1.5137,-1.5418,-1.5651,-1.5818,-1.5832,-1.5832,-1.5832,-1.5832,-1.5832,-1.5832,-1.5832,-1.5439,-1.4657,-1.4657,-1.3974,-2.2985,0.0,0.0,0.0,0.0,0.0,0.0,0.0,0.0,0.0,0.0,0.0,0.0,0.0,0.0,0.0,0.0,-1.8011,0.0,-1.7533,0.0,0.0,0.0,0.0,0.0,0.0,0.0,0.0,0.0,-1.7539,-1.8908,-1.8983,-1.9271,-1.9786,-2.0901,-2.1734,-2.2309,-2.3365,-2.4285,-2.5119,-2.5618,-2.5728,-2.5398,-2.596,-2.5906,-2.5342,-2.4624,-2.4292,-2.4234,-2.3424,-2.3078,-2.3078,-2.3078,-2.3389,-2.3879,-2.4808,-2.5347,-2.5649,-2.6076,-2.6327,-2.6314,-2.53,-2.5004,-2.4779,-2.3452,-2.3073,-2.285,-2.1886,-2.1593,-2.1451,-2.0789,-2.0566,-2.0566,-2.0566,-2.0566,-2.0566,-2.0566,-2.0566,-2.0566,-2.0566,-2.0566,-2.0566,-2.0566,-2.1094,-2.1178,-2.0053,-1.9643,-1.9062,-1.7907,-1.6699,-1.5885,-1.5723,-1.4898,-1.4402,-1.4402,-1.4476,-1.4643,-1.4943,-1.5164,-1.5404,-1.5698,-1.5712,-1.5745,-1.5832,-1.5832,-1.5832,-1.5832,-1.5439,-1.4657,-1.3392,-1.368,-1.3006,0.0,0.0,0.0,-2.2379,0.0,0.0,0.0,0.0,-2.0498,0.0,0.0,0.0,0.0,0.0,0.0,0.0,0.0,0.0,0.0,0.0,0.0,0.0,0.0,0.0,0.0,0.0,0.0,0.0,0.0,0.0,-1.8858,-1.8983,-1.9271,-1.9786,-2.0416,-2.0983,-2.1536,-2.209,-2.3039,-2.435,-2.435,-2.4738,-2.5398,-2.5398,-2.5398,-2.5342,-2.4624,-2.4292,-2.4234,-2.3424,-2.3078,-2.3078,-2.3078,-2.3078,-2.3178,-2.3828,-2.4707,-2.5598,-2.5611,-2.5988,-2.6314,-2.53,-2.5004,-2.4636,-2.2627,-2.2027,-2.1886,-2.0934,-2.0644,-2.0644,-2.0644,-2.0566,-2.0566,-2.0566,-2.0566,-2.0566,-2.0566,-2.0566,-2.0566,-2.0566,-2.0566,-2.0566,-2.0566,-2.0586,-2.0284,-1.924,-1.9063,-1.8247,-1.6057,-1.5718,-1.5311,-1.4264,-1.4102,-1.4102,-1.4102,-1.4355,-1.4643,-1.4943,-1.497,-1.511,-1.5398,-1.5411,-1.5538,-1.5818,-1.5832,-1.5832,-1.5832,-1.4561,-1.3295,-1.2042,-1.3295,-1.2517,0.0,0.0,-2.5719,-2.3505,0.0,0.0,0.0,0.0,0.0,0.0,0.0,0.0,0.0,0.0,0.0,0.0,0.0,0.0,0.0,0.0,0.0,0.0,0.0,0.0,0.0,0.0,0.0,0.0,-1.6201,0.0,0.0,-1.8292,-1.8731,-1.9271,-1.9811,-2.0363,-2.0941,-2.1493,-2.216,-2.2994,-2.3877,-2.4163,-2.3872,-2.4452,-2.4394,-2.3872,-2.359,-2.3484,-2.3484,-2.3185,-2.3078,-2.3078,-2.3078,-2.3078,-2.314,-2.3791,-2.423,-2.4632,-2.5347,-2.5543,-2.537,-2.4337,-2.3588,-2.2776,-2.1451,-2.1078,-2.1011,-2.0722,-2.0566,-2.0566,-2.0566,-2.0566,-2.0566,-2.0566,-2.0566,-2.0566,-2.0566,-2.0566,-2.0566,-2.0566,-2.0001,-1.952,-1.952,-1.8948,-1.8301,-1.7908,-1.7245,-1.6273,-1.4817,-1.4657,-1.4489,-1.4173,-1.4088,-1.4088,-1.4088,-1.4175,-1.4355,-1.4656,-1.4669,-1.4803,-1.5097,-1.511,-1.5244,-1.5538,-1.4671,-1.4282,-1.4555,-1.3204,-1.1945,-1.0681,-1.1068,-1.0382,-2.5734,-2.6093,0.0,-2.4403,-2.3969,0.0,-2.1515,0.0,-2.1156,0.0,0.0,0.0,0.0,0.0,0.0,0.0,0.0,0.0,0.0,-1.6141,0.0,0.0,0.0,-1.7585,0.0,-1.6171,-1.6114,-1.6451,-1.5669,-1.5822,0.0,0.0,-1.8455,-1.8958,-1.9535,-2.0075,-2.0706,-2.1016,-2.1468,-2.202,-2.2878,-2.3058,-2.256,-2.3264,-2.3295,-2.2862,-2.299,-2.3078,-2.3078,-2.3078,-2.3078,-2.3078,-2.3078,-2.3078,-2.3175,-2.3552,-2.3828,-2.4054,-2.4657,-2.4772,-2.4508,-2.3195,-2.2413,-2.1811,-2.0857,-2.0566,-2.0566,-2.0566,-2.0566,-2.0566,-2.0566,-2.0566,-2.0566,-2.0566,-2.0566,-2.0566,-2.0566,-2.0566,-2.0489,-2.0089,-1.9441,-1.8877,-1.847,-1.7496,-1.6764,-1.6764,-1.6108,-1.5296,-1.425,-1.4088,-1.4088,-1.4088,-1.4088,-1.4088,-1.4088,-1.4088,-1.4168,-1.4355,-1.4362,-1.4496,-1.4796,-1.4435,-1.4295,-1.4577,-1.3356,-1.2867,-1.3031,-1.1702,-1.0656,-0.9795,-0.932,-0.865]},{"header":{"parameterUnit":"m.s-1","parameterCategory":1,"la1":30.6,"la2":29.2853,"lo1":-89.7004,"lo2":-87.6739,"dy":0.0162,"dx":0.0183,"nx":112,"ny":82,"refTime":"2026-03-21T00:00:00:Z","depth":0,"parameterNumber":3,"parameterNumberName":"V-component_of_WINDS"},"data":[0.0,0.0,0.0,0.0,0.0,0.0,0.0,0.0,0.0,0.0,0.0,0.0,0.0,0.0,0.0,0.0,0.0,0.0,0.0,0.0,0.0,0.0,0.0,0.0,0.0,0.0,0.0,0.0,0.0,0.0,0.0,0.0,0.0,0.0,0.0,0.0,0.0,0.0,0.0,0.0,0.0,0.0,0.0,0.0,0.0,0.0,0.0,0.0,0.0,0.0,0.0,0.0,0.0,0.0,0.0,0.0,0.0,0.0,0.0,0.0,0.0,0.0,0.0,0.0,0.0,0.0,0.0,0.0,0.0,0.0,0.0,0.0,0.0,0.0,0.0,0.0,0.0,0.0,0.0,0.0,0.0,0.0,0.0,0.0,0.0,0.0,0.0,0.0,0.0,0.0,-2.6695,-2.6751,-2.9185,-3.1009,-3.1361,-3.0922,-2.8963,-2.5071,0.0,0.0,0.0,0.0,0.0,0.0,0.0,0.0,0.0,0.0,0.0,0.0,0.0,0.0,0.0,0.0,0.0,0.0,0.0,0.0,0.0,0.0,0.0,0.0,0.0,0.0,0.0,0.0,0.0,0.0,0.0,0.0,0.0,0.0,0.0,0.0,0.0,0.0,0.0,0.0,0.0,0.0,0.0,0.0,0.0,0.0,0.0,0.0,0.0,0.0,0.0,0.0,0.0,0.0,0.0,0.0,0.0,0.0,0.0,0.0,0.0,0.0,0.0,0.0,0.0,0.0,0.0,0.0,0.0,0.0,0.0,0.0,0.0,0.0,0.0,0.0,0.0,0.0,0.0,0.0,0.0,0.0,0.0,0.0,0.0,0.0,0.0,0.0,0.0,0.0,0.0,0.0,0.0,0.0,0.0,0.0,0.0,0.0,0.0,0.0,0.0,0.0,0.0,0.0,-2.6453,-3.0176,-3.1417,-3.1813,-3.1424,-3.0922,-2.8963,-2.5071,0.0,0.0,0.0,0.0,0.0,0.0,0.0,0.0,0.0,0.0,0.0,0.0,0.0,0.0,0.0,0.0,0.0,0.0,0.0,0.0,0.0,0.0,0.0,0.0,0.0,0.0,0.0,0.0,0.0,0.0,0.0,0.0,0.0,0.0,0.0,0.0,0.0,0.0,0.0,0.0,0.0,0.0,0.0,0.0,0.0,0.0,0.0,0.0,0.0,0.0,0.0,0.0,0.0,0.0,0.0,0.0,0.0,0.0,0.0,0.0,0.0,0.0,0.0,0.0,0.0,0.0,0.0,0.0,0.0,0.0,0.0,0.0,0.0,0.0,0.0,0.0,0.0,0.0,0.0,0.0,0.0,0.0,0.0,0.0,0.0,0.0,0.0,0.0,0.0,0.0,0.0,0.0,0.0,0.0,0.0,0.0,0.0,0.0,0.0,0.0,0.0,0.0,0.0,-2.6965,-2.8132,-3.1745,-3.2193,-3.2225,-3.2195,-3.1924,-3.0293,-2.686,-2.5203,0.0,0.0,0.0,0.0,0.0,0.0,0.0,0.0,0.0,0.0,0.0,0.0,0.0,0.0,0.0,0.0,0.0,0.0,0.0,0.0,0.0,0.0,0.0,0.0,0.0,0.0,0.0,0.0,0.0,0.0,0.0,0.0,0.0,0.0,0.0,0.0,0.0,0.0,0.0,0.0,0.0,0.0,0.0,0.0,0.0,0.0,0.0,0.0,0.0,0.0,0.0,0.0,0.0,0.0,0.0,0.0,0.0,0.0,0.0,0.0,0.0,0.0,0.0,0.0,0.0,0.0,0.0,0.0,0.0,0.0,0.0,0.0,0.0,0.0,0.0,0.0,0.0,0.0,0.0,0.0,0.0,0.0,0.0,0.0,0.0,0.0,0.0,0.0,0.0,0.0,0.0,0.0,0.0,0.0,0.0,0.0,0.0,0.0,0.0,0.0,0.0,0.0,-3.0101,-3.0705,-3.2605,-3.2888,-3.2924,-3.2804,-3.2471,-3.1025,-2.8132,-2.6022,0.0,0.0,0.0,0.0,0.0,0.0,0.0,0.0,0.0,0.0,0.0,0.0,0.0,0.0,0.0,0.0,0.0,0.0,0.0,0.0,0.0,0.0,0.0,0.0,0.0,0.0,0.0,0.0,0.0,0.0,0.0,0.0,0.0,0.0,0.0,0.0,0.0,0.0,0.0,0.0,0.0,0.0,0.0,0.0,0.0,0.0,0.0,0.0,0.0,0.0,0.0,0.0,0.0,0.0,0.0,0.0,0.0,0.0,0.0,0.0,0.0,0.0,0.0,0.0,0.0,0.0,0.0,0.0,0.0,0.0,0.0,0.0,0.0,0.0,0.0,0.0,0.0,0.0,0.0,0.0,0.0,0.0,0.0,0.0,0.0,0.0,0.0,0.0,0.0,0.0,0.0,0.0,0.0,0.0,0.0,0.0,0.0,0.0,0.0,0.0,0.0,0.0,-3.1511,-3.404,-3.2894,-3.4211,-3.4475,-3.2948,-3.15,-2.9706,-2.7414,-2.4805,0.0,0.0,0.0,0.0,0.0,0.0,0.0,0.0,0.0,0.0,0.0,0.0,0.0,0.0,0.0,0.0,0.0,0.0,0.0,0.0,0.0,0.0,0.0,0.0,0.0,0.0,0.0,0.0,0.0,0.0,0.0,0.0,0.0,0.0,0.0,0.0,0.0,0.0,0.0,0.0,0.0,0.0,0.0,0.0,0.0,0.0,0.0,0.0,0.0,0.0,0.0,0.0,0.0,0.0,0.0,0.0,0.0,0.0,0.0,0.0,0.0,0.0,0.0,0.0,0.0,0.0,0.0,0.0,0.0,0.0,0.0,0.0,0.0,0.0,0.0,0.0,0.0,0.0,0.0,0.0,0.0,0.0,0.0,0.0,0.0,0.0,0.0,0.0,0.0,0.0,0.0,0.0,0.0,0.0,0.0,0.0,0.0,0.0,0.0,0.0,0.0,0.0,-3.1594,-3.3929,-3.4664,-3.5059,-3.5183,-3.4785,-3.3831,-3.2094,-2.9464,0.0,0.0,0.0,0.0,0.0,0.0,0.0,0.0,0.0,0.0,0.0,0.0,0.0,0.0,0.0,0.0,0.0,0.0,0.0,0.0,0.0,0.0,0.0,0.0,0.0,0.0,0.0,0.0,0.0,0.0,0.0,0.0,0.0,0.0,0.0,0.0,0.0,0.0,0.0,0.0,0.0,0.0,0.0,0.0,0.0,0.0,0.0,0.0,0.0,0.0,0.0,0.0,0.0,0.0,0.0,0.0,0.0,0.0,0.0,0.0,0.0,0.0,0.0,0.0,0.0,0.0,0.0,0.0,0.0,0.0,0.0,0.0,0.0,0.0,0.0,0.0,0.0,0.0,0.0,0.0,0.0,0.0,0.0,0.0,0.0,0.0,0.0,0.0,0.0,0.0,0.0,0.0,0.0,0.0,0.0,0.0,0.0,0.0,0.0,0.0,0.0,0.0,-2.9235,-3.222,-3.4491,-3.5798,-3.5951,-3.6034,-3.6172,-3.4955,-3.3035,-3.0362,0.0,0.0,0.0,0.0,0.0,0.0,0.0,0.0,0.0,0.0,0.0,0.0,0.0,0.0,0.0,0.0,0.0,0.0,0.0,0.0,0.0,0.0,0.0,0.0,0.0,0.0,0.0,0.0,0.0,0.0,0.0,0.0,0.0,0.0,0.0,0.0,0.0,0.0,0.0,0.0,0.0,0.0,0.0,0.0,0.0,0.0,0.0,0.0,0.0,0.0,0.0,0.0,0.0,0.0,0.0,0.0,0.0,0.0,0.0,0.0,0.0,0.0,0.0,0.0,0.0,0.0,0.0,0.0,0.0,0.0,0.0,0.0,0.0,0.0,0.0,0.0,0.0,0.0,0.0,0.0,0.0,0.0,0.0,0.0,0.0,0.0,0.0,0.0,0.0,0.0,0.0,0.0,0.0,0.0,0.0,0.0,0.0,0.0,0.0,0.0,0.0,0.0,-2.9415,-3.3634,-3.6378,-3.5971,-3.6836,-3.7227,-3.6865,-3.4177,-3.1689,0.0,0.0,0.0,0.0,0.0,0.0,0.0,0.0,0.0,0.0,0.0,0.0,0.0,0.0,0.0,0.0,0.0,0.0,0.0,0.0,0.0,0.0,0.0,0.0,0.0,0.0,0.0,0.0,0.0,0.0,0.0,0.0,0.0,0.0,0.0,0.0,0.0,0.0,0.0,0.0,0.0,0.0,0.0,0.0,0.0,0.0,0.0,0.0,0.0,0.0,0.0,0.0,0.0,0.0,0.0,0.0,0.0,0.0,0.0,0.0,0.0,0.0,0.0,0.0,0.0,0.0,0.0,0.0,0.0,0.0,0.0,0.0,0.0,0.0,0.0,0.0,0.0,0.0,0.0,0.0,0.0,0.0,0.0,0.0,0.0,0.0,0.0,0.0,0.0,0.0,0.0,0.0,0.0,0.0,0.0,0.0,0.0,0.0,0.0,0.0,0.0,0.0,0.0,-2.9998,-3.4277,-3.7237,-3.7653,-3.7953,-3.8027,-3.7908,-3.5926,-3.3185,-2.9789,0.0,0.0,0.0,0.0,0.0,0.0,0.0,0.0,0.0,0.0,0.0,0.0,0.0,0.0,0.0,0.0,0.0,0.0,0.0,0.0,0.0,0.0,0.0,0.0,0.0,0.0,0.0,0.0,0.0,0.0,0.0,0.0,0.0,0.0,0.0,0.0,0.0,0.0,0.0,0.0,0.0,0.0,0.0,0.0,0.0,0.0,0.0,0.0,0.0,0.0,0.0,0.0,0.0,0.0,0.0,0.0,0.0,0.0,0.0,0.0,0.0,0.0,0.0,0.0,0.0,0.0,0.0,0.0,0.0,0.0,0.0,0.0,0.0,0.0,0.0,0.0,0.0,0.0,0.0,0.0,0.0,0.0,0.0,0.0,0.0,0.0,0.0,0.0,0.0,0.0,0.0,0.0,0.0,0.0,0.0,0.0,0.0,0.0,0.0,0.0,0.0,0.0,-3.0253,-3.4337,-3.7389,-3.8287,-3.8392,-3.8497,-3.8781,-3.7015,-3.4203,-3.0208,0.0,0.0,0.0,0.0,0.0,0.0,0.0,0.0,0.0,0.0,0.0,0.0,0.0,0.0,0.0,0.0,0.0,0.0,0.0,0.0,0.0,0.0,0.0,0.0,0.0,0.0,0.0,0.0,0.0,0.0,0.0,0.0,0.0,0.0,0.0,0.0,0.0,0.0,0.0,0.0,0.0,0.0,0.0,0.0,0.0,0.0,0.0,0.0,0.0,0.0,0.0,0.0,0.0,0.0,0.0,0.0,0.0,0.0,0.0,0.0,0.0,0.0,0.0,0.0,0.0,0.0,0.0,0.0,0.0,0.0,0.0,0.0,0.0,0.0,0.0,0.0,0.0,0.0,0.0,0.0,0.0,0.0,0.0,0.0,0.0,0.0,0.0,0.0,0.0,0.0,0.0,0.0,0.0,0.0,0.0,0.0,0.0,0.0,0.0,0.0,0.0,0.0,-3.0328,-3.4098,-3.706,-3.8347,-3.8482,-3.8736,-3.9364,-3.7614,-3.4831,-3.0926,0.0,0.0,0.0,0.0,0.0,0.0,0.0,0.0,0.0,0.0,0.0,0.0,0.0,0.0,0.0,0.0,0.0,0.0,0.0,0.0,0.0,0.0,0.0,0.0,0.0,0.0,0.0,0.0,0.0,0.0,0.0,0.0,0.0,0.0,0.0,0.0,0.0,0.0,0.0,0.0,0.0,0.0,0.0,0.0,0.0,0.0,0.0,0.0,0.0,0.0,0.0,0.0,0.0,0.0,0.0,0.0,0.0,0.0,0.0,0.0,-2.1142,0.0,0.0,0.0,0.0,0.0,0.0,0.0,0.0,0.0,0.0,0.0,0.0,0.0,0.0,0.0,0.0,0.0,0.0,0.0,0.0,0.0,0.0,0.0,0.0,0.0,0.0,0.0,0.0,0.0,0.0,0.0,0.0,0.0,0.0,0.0,0.0,0.0,0.0,0.0,0.0,0.0,-3.0986,-3.4771,-3.7719,-3.905,-3.92,-3.926,-3.9409,-3.7614,-3.522,-3.2273,-2.9116,0.0,0.0,0.0,0.0,0.0,0.0,0.0,0.0,0.0,0.0,0.0,0.0,0.0,0.0,0.0,0.0,0.0,0.0,0.0,0.0,0.0,0.0,0.0,0.0,0.0,0.0,0.0,0.0,0.0,0.0,0.0,0.0,0.0,0.0,0.0,0.0,0.0,0.0,0.0,0.0,0.0,0.0,0.0,0.0,0.0,0.0,0.0,0.0,0.0,0.0,0.0,0.0,0.0,0.0,0.0,0.0,0.0,0.0,0.0,0.0,-2.2786,0.0,0.0,0.0,0.0,0.0,0.0,0.0,0.0,0.0,0.0,0.0,0.0,0.0,0.0,0.0,0.0,0.0,0.0,0.0,0.0,0.0,0.0,0.0,0.0,0.0,0.0,0.0,0.0,0.0,0.0,0.0,0.0,0.0,0.0,0.0,0.0,0.0,0.0,0.0,0.0,-3.1138,-3.4966,-3.7928,-3.9275,-3.9424,-3.9424,-3.9424,-3.7883,-3.5938,-3.3604,-3.0642,0.0,0.0,0.0,0.0,0.0,0.0,0.0,0.0,0.0,0.0,0.0,0.0,0.0,0.0,0.0,0.0,0.0,0.0,0.0,0.0,0.0,0.0,0.0,0.0,0.0,0.0,0.0,0.0,0.0,0.0,0.0,0.0,0.0,0.0,0.0,0.0,0.0,0.0,0.0,0.0,0.0,0.0,0.0,0.0,0.0,0.0,0.0,0.0,0.0,0.0,0.0,0.0,0.0,-2.7544,-2.8059,-2.7717,-2.8561,-2.9026,-2.9013,-2.7193,-2.659,-2.6779,-2.531,0.0,0.0,0.0,0.0,0.0,0.0,0.0,0.0,0.0,0.0,0.0,0.0,0.0,0.0,0.0,0.0,0.0,0.0,0.0,0.0,0.0,0.0,0.0,0.0,-3.1719,-3.115,0.0,0.0,0.0,0.0,0.0,0.0,0.0,0.0,0.0,0.0,0.0,0.0,-3.136,-3.504,-3.7928,-3.9275,-3.9424,-3.9364,-3.9245,-3.8108,-3.6626,-3.4771,-3.2273,-2.9828,0.0,0.0,0.0,0.0,0.0,0.0,0.0,0.0,0.0,0.0,0.0,0.0,0.0,0.0,0.0,0.0,0.0,0.0,0.0,0.0,0.0,0.0,0.0,0.0,0.0,0.0,0.0,0.0,0.0,0.0,0.0,0.0,-1.6527,-1.6511,0.0,0.0,0.0,0.0,0.0,0.0,0.0,0.0,0.0,0.0,0.0,0.0,0.0,-2.5684,-2.7331,-3.0468,-3.1499,-3.0532,-3.1738,-3.2277,-3.2202,-3.2353,-3.2679,-3.3119,-3.283,0.0,-2.8549,-2.7846,0.0,0.0,0.0,0.0,0.0,0.0,0.0,0.0,0.0,0.0,0.0,0.0,0.0,0.0,0.0,0.0,0.0,0.0,0.0,0.0,0.0,0.0,-3.4592,-3.4068,-3.4472,-3.4651,0.0,-2.9699,-2.6303,-2.5285,-2.4762,0.0,0.0,0.0,0.0,0.0,0.0,0.0,-3.2048,-3.5325,-3.7928,-3.9275,-3.9424,-3.917,-3.8571,-3.7838,-3.6821,-3.5444,-3.341,-3.1856,-3.101,-2.8292,0.0,0.0,0.0,0.0,0.0,0.0,0.0,0.0,0.0,0.0,0.0,0.0,0.0,0.0,0.0,0.0,0.0,0.0,0.0,0.0,0.0,0.0,0.0,0.0,0.0,0.0,0.0,0.0,0.0,-1.7597,-1.8843,-2.006,-2.0218,-1.9723,0.0,0.0,0.0,0.0,0.0,0.0,0.0,0.0,0.0,-2.6728,-2.7767,-2.8975,-3.0407,-3.2516,-3.3487,-3.3269,-3.4085,-3.4625,-3.4914,-3.46,-3.4763,-3.5265,-3.4964,-3.3997,-3.2503,-3.0696,-2.9164,-2.7783,0.0,0.0,0.0,0.0,-2.8078,-2.8753,-3.1427,-3.2196,0.0,-3.1061,0.0,0.0,0.0,0.0,0.0,0.0,0.0,0.0,0.0,0.0,-3.6163,-3.6567,-3.6911,-3.7045,-3.6746,-3.4292,-3.1405,0.0,-2.8128,-2.7051,-2.4253,0.0,0.0,0.0,0.0,-3.0492,-3.2766,-3.5609,-3.7928,-3.9275,-3.9065,-3.8721,-3.8407,-3.7464,-3.6656,-3.6088,-3.4517,-3.3532,-3.3346,-3.0685,-2.884,0.0,0.0,0.0,0.0,0.0,0.0,0.0,0.0,0.0,0.0,0.0,0.0,0.0,0.0,0.0,0.0,0.0,0.0,0.0,0.0,0.0,0.0,0.0,0.0,0.0,0.0,0.0,0.0,-1.8908,-2.1446,-2.3699,-2.2988,-2.2034,0.0,0.0,0.0,0.0,0.0,0.0,-2.7841,-2.8713,-2.9463,-2.9942,-3.0947,-3.2039,-3.3282,-3.411,-3.4876,-3.5567,-3.583,-3.6182,-3.6558,-3.6144,-3.6107,-3.6345,-3.6081,-3.5881,-3.5567,-3.3219,-3.1599,-3.0495,-2.9089,-2.821,-2.7978,-2.9987,-3.0983,-3.1777,-3.4795,-3.5878,-3.5804,-3.4651,0.0,-3.2706,-2.9564,0.0,0.0,0.0,0.0,-3.2317,-3.4622,-3.6088,-3.7255,-3.8377,-3.8661,-3.8661,-3.8661,-3.7764,-3.5938,0.0,-3.1509,-3.0238,-2.6912,0.0,0.0,0.0,0.0,-3.1749,-3.3754,-3.5998,-3.7853,-3.9035,-3.8691,-3.8257,-3.7928,-3.703,-3.6417,-3.6237,-3.5458,-3.5065,-3.5201,-3.3039,-3.1486,-3.0577,0.0,0.0,0.0,0.0,0.0,0.0,0.0,0.0,0.0,0.0,0.0,0.0,0.0,0.0,0.0,0.0,0.0,0.0,0.0,0.0,0.0,0.0,0.0,0.0,0.0,0.0,0.0,0.0,0.0,-2.6054,-2.258,0.0,0.0,0.0,0.0,-2.7961,-2.8238,-2.9425,-3.1641,-3.0958,-3.1266,-3.2817,-3.3432,-3.4525,-3.6182,-3.6219,-3.6772,-3.7839,-3.7337,-3.7111,-3.7149,-3.7111,-3.6822,-3.6383,-3.6885,-3.681,-3.6232,-3.5039,-3.3909,-3.2855,-3.2215,-3.1625,-3.136,-3.2891,-3.4176,-3.5329,-3.6973,-3.7477,-3.7509,-3.8691,-3.7389,-3.519,-3.4337,-3.32,0.0,0.0,-3.4218,-3.5564,-3.6911,-3.7778,-3.8482,-3.92,-3.9364,-3.9364,-3.9364,-3.8796,-3.7689,0.0,-3.4218,-3.2886,-3.1435,0.0,-3.0238,-3.0208,-3.1465,-3.314,-3.5145,-3.6582,-3.7674,-3.8362,-3.8407,-3.7898,-3.6686,-3.6522,-3.6222,-3.5594,-3.615,-3.656,-3.6621,-3.5808,-3.4686,-3.3237,-3.0306,0.0,0.0,0.0,0.0,0.0,0.0,0.0,0.0,0.0,0.0,0.0,0.0,0.0,0.0,0.0,0.0,0.0,0.0,0.0,0.0,0.0,0.0,0.0,0.0,0.0,0.0,0.0,0.0,-3.0122,-2.9306,0.0,-2.7933,-2.9026,-2.9499,-2.8653,-2.942,-3.0765,-3.2623,-3.3073,-3.3859,-3.5152,-3.5717,-3.6471,-3.7425,-3.7073,-3.7262,-3.8002,-3.745,-3.7374,-3.7701,-3.7349,-3.7073,-3.6885,-3.6722,-3.6546,-3.6332,-3.5943,-3.5341,-3.4613,-3.4048,-3.3709,-3.3806,-3.5712,-3.677,-3.7393,-3.9382,-4.004,-3.9903,-3.9544,-3.8197,-3.6611,-3.5968,-3.5444,-3.5205,-3.5833,-3.6656,-3.7569,-3.8467,-3.8871,-3.911,-3.9364,-3.9424,-3.9424,-3.9424,-3.923,-3.8856,-3.8153,-3.6611,-3.4861,-3.3095,-3.2946,-3.2632,-3.136,-3.3036,-3.4861,-3.5998,-3.6881,-3.7659,-3.8317,-3.7659,-3.6985,-3.6522,-3.6088,-3.5564,-3.4891,-3.5523,-3.5951,-3.6039,-3.5747,-3.5146,-3.4134,-3.2121,-2.9397,0.0,0.0,0.0,0.0,0.0,0.0,0.0,0.0,0.0,0.0,0.0,0.0,0.0,0.0,0.0,0.0,0.0,0.0,0.0,0.0,0.0,0.0,0.0,0.0,0.0,0.0,-2.841,-3.3604,-3.3881,-3.2741,-3.0421,-3.0862,-3.1009,-3.0331,-3.1198,-3.2441,-3.4098,-3.4876,-3.578,-3.6872,-3.7098,-3.745,-3.8002,-3.7462,-3.7462,-3.8002,-3.745,-3.7374,-3.7713,-3.7349,-3.7186,-3.7161,-3.6797,-3.6634,-3.6621,-3.6433,-3.6144,-3.578,-3.5416,-3.5278,-3.5448,-3.6885,-3.8003,-3.9006,-4.1033,-4.1713,-4.1534,-4.0442,-3.9334,-3.8377,-3.8197,-3.7988,-3.7943,-3.8571,-3.8901,-3.917,-3.9634,-3.9589,-3.9424,-3.9424,-3.9424,-3.9424,-3.9424,-3.9424,-3.9424,-3.9424,-3.8182,-3.6716,-3.537,-3.5325,-3.4951,-3.344,-3.4891,-3.6312,-3.6746,-3.7345,-3.7823,-3.8033,-3.73,-3.6626,-3.6193,-3.5549,-3.5078,-3.4848,-3.5288,-3.5591,-3.5642,-3.5613,-3.5265,-3.4506,-3.2544,-3.0074,-2.7063,0.0,0.0,0.0,0.0,0.0,0.0,0.0,0.0,0.0,0.0,0.0,0.0,0.0,0.0,0.0,0.0,0.0,0.0,0.0,0.0,0.0,0.0,0.0,-2.343,-2.9093,-3.3982,-3.6109,-3.5359,-3.435,-3.3249,-3.3798,-3.389,-3.328,-3.3671,-3.4688,-3.632,-3.6408,-3.691,-3.7977,-3.7487,-3.7462,-3.8002,-3.7462,-3.745,-3.7977,-3.7425,-3.7161,-3.7161,-3.7161,-3.7161,-3.7161,-3.7161,-3.7161,-3.7111,-3.6584,-3.6358,-3.6358,-3.6358,-3.6358,-3.6358,-3.6452,-3.7952,-4.0162,-4.1842,-4.2387,-4.2282,-4.1624,-4.098,-4.0576,-4.119,-4.0935,-4.0561,-4.1205,-4.092,-4.0427,-4.0412,-3.9933,-3.9454,-3.9424,-3.9424,-3.9424,-3.9424,-3.9424,-3.9424,-3.9424,-3.8886,-3.8407,-3.8392,-3.7853,-3.7225,-3.6611,-3.7045,0.0,-3.7434,-3.8003,-3.8138,-3.7479,-3.7389,-3.6866,-3.5609,-3.4876,-3.4755,-3.5413,-3.56,-3.5594,-3.5596,-3.5576,-3.5233,-3.4506,-3.163,-2.9414,-2.7891,0.0,0.0,0.0,0.0,0.0,0.0,0.0,0.0,0.0,0.0,0.0,0.0,0.0,0.0,0.0,0.0,0.0,0.0,0.0,0.0,0.0,-2.6371,-3.0327,-3.0345,-3.3287,-3.5292,-3.4834,-3.5024,-3.4869,-3.4361,-3.4464,-3.4778,-3.5403,-3.5604,-3.6232,-3.7487,-3.755,-3.7701,-3.8002,-3.7864,-3.7852,-3.8002,-3.7462,-3.7262,-3.74,-3.686,-3.6584,-3.6584,-3.6584,-3.6584,-3.6584,-3.6584,-3.6584,-3.6571,-3.642,-3.6358,-3.6358,-3.6358,-3.6358,-3.6546,-3.7322,-3.9156,-4.1322,-4.2613,-4.306,-4.2955,-4.2312,-4.1968,-4.1773,-4.1474,-4.125,-4.1145,-4.1324,-4.125,-4.0995,-4.0531,-4.0262,-4.0008,-3.9529,-3.9424,-3.9424,-3.9424,-3.9424,-3.9424,-3.9424,-3.9275,-3.8975,-3.8482,-3.8242,-3.7898,-3.7255,-3.7704,0.0,-3.8123,-3.8287,-3.8138,-3.7479,-3.7,-3.6402,-3.5579,-3.4876,-3.4606,-3.4762,-3.436,-3.4352,-3.484,-3.4851,-3.4709,-3.4489,-3.2121,-3.0683,0.0,0.0,0.0,0.0,0.0,0.0,0.0,0.0,0.0,0.0,0.0,0.0,0.0,0.0,0.0,0.0,0.0,0.0,0.0,0.0,0.0,0.0,-3.0574,-3.324,-3.3514,-3.4702,-3.5299,-3.4753,-3.5111,-3.5445,-3.5717,-3.5755,-3.6119,-3.6985,-3.7048,-3.7324,-3.7977,-3.8002,-3.8002,-3.8002,-3.7789,-3.7776,-3.8002,-3.7462,-3.7186,-3.7186,-3.686,-3.6584,-3.6358,-3.6358,-3.6483,-3.6684,-3.6458,-3.6496,-3.6684,-3.6458,-3.6358,0.0,0.0,0.0,0.0,0.0,-3.9128,-4.1056,-4.1901,-4.2678,-4.3269,-4.2895,-4.2402,-4.1983,-4.2147,-4.1818,-4.1489,-4.2043,-4.1803,-4.1294,-4.0905,-4.0397,-3.9888,-3.9514,-3.9424,-3.9424,-3.9424,-3.9424,-3.9424,-3.9424,-3.9424,0.0,-3.8901,-3.8826,-3.8601,-3.7913,-3.8392,-3.8721,-3.8422,-3.8646,-3.8556,-3.7898,-3.7509,-3.6911,-3.5998,-3.5295,0.0,0.0,0.0,-3.4131,-3.4555,-3.4229,0.0,0.0,0.0,0.0,0.0,0.0,0.0,0.0,-3.0108,-3.0108,0.0,0.0,0.0,0.0,0.0,0.0,0.0,0.0,0.0,0.0,0.0,0.0,0.0,0.0,0.0,0.0,-3.2536,-3.2882,-3.3553,-3.3717,-3.4181,-3.4967,-3.5391,-3.595,-3.688,-3.7077,-3.7437,-3.8065,-3.804,-3.804,-3.8103,0.0,0.0,0.0,0.0,-3.7387,-3.7814,-3.74,-3.7149,-3.7098,-3.7098,-3.6835,-3.6358,-3.6358,-3.6621,-3.7061,-3.6571,-3.6634,-3.7048,-3.6571,-3.6358,-3.6358,-3.6358,-3.6358,-3.6483,-3.7104,-3.8384,-3.9816,-4.061,0.0,0.0,-4.325,-4.2551,-4.1818,-4.2985,-4.2476,-4.1728,-4.2895,-4.2342,-4.1369,-4.1294,-4.0397,-3.9514,-3.9439,-3.9424,-3.9424,-3.9424,-3.9424,-3.9424,-3.9424,-3.9424,-3.9424,-3.9424,-3.9424,-3.9215,-3.8601,-3.9035,-3.92,-3.8586,-3.9035,-3.9155,-3.8467,0.0,0.0,-3.6872,-3.6155,-3.5799,-3.5975,-3.5358,-3.4939,-3.4766,-3.4201,-3.388,-3.3795,-3.4506,-3.5165,-3.5757,-3.6603,-3.7077,-3.706,-3.2831,-3.2307,0.0,0.0,0.0,0.0,0.0,0.0,0.0,0.0,0.0,0.0,0.0,0.0,0.0,0.0,0.0,-2.6914,-2.8814,-3.0097,-2.9984,-3.0894,-3.2148,-3.3671,-3.5281,-3.6053,-3.567,-3.6566,-3.76,-3.863,-3.8278,-3.8216,-3.868,-3.7839,-3.7337,-3.7337,-3.7236,-3.7023,-3.6684,-3.701,-3.696,-3.6521,0.0,0.0,-3.6358,-3.6358,-3.642,-3.6521,-3.6408,-3.642,-3.6508,-3.6408,-3.6358,-3.6358,-3.6358,-3.6358,-3.6534,-3.7547,-3.8196,-3.8711,-4.076,-4.1666,-4.2111,-4.2981,-4.3165,-4.3,-4.3254,-4.2791,0.0,-4.2476,-4.1983,-4.1265,-4.0726,-4.0397,-4.0083,-3.9544,-3.9424,-3.9424,-3.9424,-3.9424,-3.9424,-3.9424,-3.9424,-3.9424,-3.9424,-3.9424,-3.9379,-3.9245,-3.9334,-3.9364,-3.923,-3.9334,-3.9155,-3.8467,-3.904,-3.9159,-3.8357,-3.7761,-3.7678,-3.8243,-3.7635,-3.7009,-3.6366,-3.6789,-3.6755,-3.6129,-3.6874,-3.7026,-3.6552,-3.7905,-3.887,-3.9377,-3.6721,-3.6129,0.0,0.0,0.0,0.0,0.0,0.0,0.0,0.0,0.0,0.0,0.0,-2.0831,-2.4192,0.0,-2.5953,-2.7331,-2.826,-2.909,-2.9829,-3.0466,-3.1547,-3.3315,-3.4029,-3.4647,-3.5444,-3.5515,-3.6165,-3.7714,-3.7519,-3.7553,-3.804,-3.7487,-3.7186,-3.7186,-3.7186,-3.7186,-3.7186,-3.7462,-3.7312,-3.6772,-3.6772,-3.6621,-3.6358,-3.6358,-3.6358,-3.6358,-3.6358,-3.6358,-3.6358,-3.6358,-3.6358,-3.6358,-3.6358,-3.6194,-3.6011,-3.6327,-3.7345,-3.8667,-3.9564,-4.1054,-4.2548,-4.3076,-4.2895,-4.2476,-4.3135,-4.2417,-4.1519,-4.2177,-4.1654,-4.0816,-4.0487,-4.0157,-3.9828,-3.9499,-3.9424,-3.9424,-3.9424,-3.9424,-3.9424,-3.9424,-3.9424,-3.9424,-3.9424,-3.9424,-3.9424,-3.9424,-3.9424,-3.9424,-3.9424,-3.9424,-3.929,-3.8945,-3.9294,-3.9474,-3.9218,-3.8722,-3.8509,-3.8854,-3.8271,-3.7736,-3.7364,-3.7702,-3.7736,-3.7347,-3.8447,-3.8819,-3.843,-3.9918,-4.0832,-4.1153,-4.0054,-3.9749,0.0,0.0,0.0,0.0,0.0,0.0,0.0,-2.0862,-2.3797,-2.4055,-2.3901,-2.4797,-2.8118,-2.6716,-2.5889,-2.8379,-2.8287,-2.8424,-2.9915,-3.0199,-3.0918,-3.2672,-3.2494,-3.2994,-3.4727,-3.4173,-3.4539,-3.6215,-3.6481,-3.6591,-3.6874,-3.7039,-3.7023,-3.7023,-3.7123,-3.7349,-3.7688,-3.7789,-3.7575,-3.7023,-3.7023,-3.6784,-3.6358,-3.6358,-3.6358,-3.6358,-3.6358,-3.6358,-3.6358,-3.6358,-3.6358,-3.6358,-3.6358,-3.6031,-3.5504,-3.5165,-3.6376,-3.8143,-3.8153,-4.0063,-4.2547,-4.2856,-4.2455,-4.1938,-4.2865,-4.2043,-4.095,-4.1758,-4.122,-4.0367,-4.0247,-3.9813,-3.9424,-3.9424,-3.9424,-3.9424,-3.9424,-3.9424,-3.9424,-3.9424,-3.9424,-3.9424,-3.9424,-3.9424,-3.9424,-3.9424,-3.9424,-3.9424,-3.9424,-3.9424,-3.9424,-3.9424,-3.9666,-4.0033,-4.0418,-4.0008,-3.9719,-3.957,-3.9059,-3.8751,-3.8751,-3.8751,-3.8751,-3.8751,-3.9935,-4.0527,-4.051,-4.1847,-4.2506,-4.2523,-4.2658,-4.2658,-1.8954,-1.9427,-1.9889,-2.187,-2.2034,-2.1826,0.0,-2.433,-2.6379,-2.7326,-2.6791,-2.5896,-2.5172,-2.6259,-2.7028,-2.629,-2.65,-2.6936,-2.7381,-2.7839,-2.8745,-3.049,-3.16,-3.2137,-3.1655,-3.2922,-3.4128,-3.4826,-3.5526,-3.5955,-3.5938,-3.6271,-3.6458,-3.6458,-3.6923,-3.6973,-3.6546,-3.7023,-3.6998,-3.6458,-3.6458,-3.642,-3.6358,-3.6358,-3.6358,-3.6358,-3.6358,-3.6358,-3.6358,-3.6358,-3.6358,-3.6358,-3.6358,-3.6031,-3.5604,-3.6019,-3.5764,-3.5443,-3.7413,-3.8695,-3.9733,-4.1317,-4.2364,-4.303,-4.2596,-4.2312,-4.1938,-4.0905,-4.0516,-4.0262,-3.9679,-3.9469,-3.9424,-3.9424,-3.9424,-3.9424,-3.9424,-3.9424,-3.9424,-3.9424,-3.9424,-3.9424,-3.9424,-3.9424,-3.9424,-3.9424,-3.9424,-3.9424,-3.9424,-3.9424,-3.9424,-3.9424,-4.0774,-4.2088,-4.2919,-4.2947,-4.2635,-4.196,-4.1827,-4.1796,-4.1796,-4.1796,-4.1796,-4.1796,-4.1965,-4.2049,-4.2049,-4.2878,-4.3301,-4.3301,-4.3995,-4.3944,-1.9438,-1.9477,-1.9669,-2.19,-2.3457,-2.472,-2.5788,-2.6763,-2.7374,-2.721,-2.6459,-2.5802,-2.5469,-2.5614,-2.5913,0.0,-2.638,-2.6566,-2.6934,-2.7178,-2.7639,-2.8679,-2.9332,-3.0016,-3.0937,-3.0975,-3.1482,-3.2804,-3.3653,-3.453,-3.5265,-3.5977,-3.6508,-3.6835,-3.7061,-3.7073,-3.6835,-3.7073,-3.691,-3.6358,-3.6358,-3.6358,-3.6358,-3.6358,-3.6358,-3.6358,-3.6358,-3.6358,-3.6358,-3.6358,-3.6358,-3.6358,-3.6358,-3.6031,-3.5567,-3.5805,-3.6027,-3.6365,-3.7269,-3.8869,-4.0574,-4.0904,-4.1565,-4.2222,-4.2327,-4.1833,-4.119,-4.101,-4.0696,-4.0247,-3.9589,-3.9424,-3.9424,-3.9424,-3.9424,-3.9424,-3.9424,-3.9424,-3.9424,-3.9424,-3.9424,-3.9424,-3.9424,-3.9424,-3.9424,-3.9424,-3.9424,-3.9424,-3.9424,-3.9424,-3.961,-4.0115,-4.128,-4.2391,-4.3248,-4.3379,-4.3284,-4.2963,-4.254,-4.2286,-4.2286,-4.2286,-4.2286,-4.2286,-4.2726,-4.2946,-4.2946,-4.3724,-4.4096,-4.4096,-4.4418,-4.4401,-1.8956,-1.9062,-1.9527,-2.1588,-2.4203,-2.6501,-2.7477,-2.7754,-2.7635,-2.692,-2.5961,-2.5365,-2.5925,-2.5084,-2.4829,-2.6084,-2.6473,-2.6631,-2.6816,-2.7051,-2.7266,-2.7461,-2.749,-2.8182,-2.9949,-2.9409,-2.9471,-3.0734,-3.1944,-3.3112,-3.4431,-3.5478,-3.6301,-3.6948,-3.696,-3.696,-3.696,-3.696,-3.6759,-3.6358,-3.6358,-3.6358,-3.6358,-3.6358,-3.6358,-3.6358,-3.6358,-3.6358,-3.6358,-3.6358,-3.6358,-3.6358,-3.6358,-3.6119,-3.5768,-3.5768,-3.6093,-3.6635,-3.6948,-3.8681,-4.0827,-4.0288,-4.0844,-4.1669,-4.1788,-4.128,-4.0696,-4.0816,-4.0621,-4.0247,-3.9589,-3.9424,-3.9424,-3.9424,-3.9424,-3.9424,-3.9424,-3.9424,-3.9424,-3.9424,-3.9424,-3.9424,-3.9424,-3.9424,-3.9424,-3.9424,-3.9424,-3.9424,-3.9424,-3.9424,-3.9793,-4.0961,-4.1593,-4.2458,-4.3562,-4.3675,-4.3741,-4.3741,-4.3234,-4.2912,-4.2912,-4.2912,-4.2912,-4.2912,-4.3453,-4.3741,-4.3741,-4.4316,-4.4587,-4.4587,-4.4587,-4.4587,-1.731,-1.8554,-2.0164,-2.1881,-2.3941,-2.5791,-2.6438,-2.692,-2.7341,-2.7287,-2.5987,-2.4913,-2.5319,-2.4826,-2.456,-2.5094,-2.6152,-2.6855,-2.6465,-2.7119,-2.75,-2.708,-2.7031,-2.7207,0.0,-2.8437,-2.8926,-2.8935,-3.0683,-3.2105,-3.3001,-3.4295,-3.5501,-3.6395,-3.6383,-3.6383,-3.6383,-3.6383,-3.6383,-3.6358,-3.6358,-3.6358,-3.6358,-3.6358,-3.6358,-3.6358,-3.6358,-3.6358,-3.6358,-3.6358,-3.6358,-3.6358,-3.6358,-3.6358,-3.6332,-3.6332,-3.5667,-3.4901,-3.6049,-3.7558,-3.9059,-3.896,-4.0459,-4.2087,-4.0846,-4.0876,-4.1085,-3.9828,-3.9918,-4.0247,-3.9589,-3.9424,-3.9424,-3.9424,-3.9424,-3.9424,-3.9424,-3.9424,-3.9424,-3.9424,-3.9424,-3.9424,-3.9424,-3.9424,-3.9424,-3.9424,-3.9424,-3.9424,-3.9424,-3.9424,-4.006,-4.1804,-4.1997,-4.2707,-4.4384,-4.4553,-4.4536,-4.4536,-4.4519,-4.4502,-4.4502,-4.4502,-4.4502,-4.4502,-4.4536,-4.4536,-4.4536,-4.457,-4.4587,-4.4587,-4.4587,-4.4587,-1.777,-1.9226,-2.095,-2.2546,-2.4285,-2.5744,-2.6372,-2.667,-2.6449,-2.5466,-2.4798,-2.4231,-2.3569,-2.3535,-2.3799,-2.4521,-2.5742,-2.6543,-2.6406,-2.7129,-2.7402,-2.6689,-2.6846,0.0,0.0,0.0,0.0,-2.8877,-3.0319,-3.1827,-3.3447,-3.4818,-3.5933,-3.6923,-3.691,-3.6734,-3.6358,-3.6358,-3.6358,-3.6358,-3.6358,-3.6358,-3.6358,-3.6358,-3.6358,-3.6358,-3.6358,-3.6358,-3.6358,-3.6358,-3.6358,-3.6358,-3.6358,-3.6358,-3.6358,-3.6358,-3.6132,-3.5855,-3.6232,-3.7821,-3.9443,-3.853,-3.9857,-4.1549,-4.0666,-4.0561,-4.0636,-4.0187,-4.0232,-4.0247,-3.9589,-3.9424,-3.9424,-3.9424,-3.9424,-3.9424,-3.9424,-3.9424,-3.9424,-3.9424,-3.9424,-3.9424,-3.9424,-3.9424,-3.9424,-3.9424,-3.9424,-3.9424,-3.9424,-3.9424,-4.006,-4.1804,-4.1997,-4.2707,-4.444,-4.4587,-4.4587,-4.4587,-4.4587,-4.4587,-4.4587,-4.4587,-4.4587,-4.4587,-4.4587,-4.4587,-4.4587,-4.4587,-4.4587,-4.4587,-4.4587,-4.4587,-1.8002,-1.9799,-2.1509,-2.2805,-2.4378,-2.5701,-2.5669,-2.5611,-2.5071,-2.396,-2.3389,-2.2869,-2.2001,-2.2168,-2.2793,-2.3799,-2.4941,-2.585,-2.6328,-2.6865,-2.706,-2.666,-2.6719,-2.6807,0.0,0.0,0.0,-2.8428,-2.9735,-3.1422,-3.3447,-3.4727,-3.586,-3.7199,-3.7186,-3.6923,-3.637,-3.6358,-3.6358,-3.6358,-3.6558,-3.6558,-3.637,-3.6571,-3.6659,-3.6659,-3.6659,-3.6659,-3.6659,-3.6659,-3.6533,-3.6358,-3.6358,-3.6358,-3.6358,-3.6358,-3.6358,-3.6358,-3.6358,-3.7821,-3.9402,-3.8296,-3.9318,-4.0905,-4.0247,-4.0053,-4.0053,-4.0053,-4.0053,-3.9948,-3.9529,-3.9424,-3.9424,-3.9424,-3.9424,-3.9424,-3.9424,-3.9424,-3.9424,-3.9424,-3.9424,-3.9424,-3.9424,-3.9424,-3.9424,-3.9424,-3.9424,-3.9424,-3.9424,-3.9424,-4.006,-4.1804,-4.1997,-4.2707,-4.444,-4.4587,-4.4587,-4.4587,-4.4587,-4.4587,-4.4587,-4.4587,-4.4587,-4.4587,-4.4587,-4.4587,-4.4587,-4.4587,-4.4587,-4.4587,-4.4587,-4.4587,-1.803,-2.0031,-2.1733,-2.2503,-2.4192,-2.5362,-2.448,-2.3762,-2.3244,-2.285,-2.1906,-2.0986,-2.0518,-2.083,-2.1592,-2.2891,-2.3838,-2.4883,-2.6201,-2.6426,-2.6592,-2.6973,-2.668,-2.6768,-2.7559,-2.7656,-2.7666,-2.7666,0.0,-3.0666,-3.316,-3.4045,-3.5294,-3.7202,-3.7274,-3.701,-3.6458,-3.6445,-3.6433,-3.6408,-3.696,-3.6948,-3.6458,-3.6985,-3.7211,-3.7186,-3.7186,-3.7161,-3.7149,-3.7149,-3.6835,-3.6358,-3.6358,-3.6358,-3.6358,-3.6358,-3.6358,-3.6358,-3.6358,-3.7468,-3.8765,-3.8158,-3.9032,-4.0277,-3.9619,-3.9424,-3.9424,-3.9424,-3.9424,-3.9424,-3.9424,-3.9424,-3.9424,-3.9424,-3.9424,-3.9424,-3.9424,-3.9424,-3.9424,-3.9424,-3.9424,-3.9424,-3.9424,-3.9424,-3.9424,-3.9424,-3.9424,-3.9424,-3.9424,-3.9424,-4.006,-4.1739,-4.1997,-4.2707,-4.4384,-4.457,-4.4587,-4.4587,-4.4587,-4.4587,-4.4587,-4.4587,-4.4587,-4.4587,-4.4587,-4.4587,-4.4587,-4.4587,-4.4587,-4.4587,-4.4587,-4.4587,-1.7922,-1.9779,-2.1568,-2.2083,-2.2821,-2.3405,-2.3185,-2.2453,-2.1551,-2.0851,-2.0216,-1.9551,-1.8799,-1.9531,-2.0684,-2.1992,-2.3447,0.0,-2.6201,-2.6943,-2.7256,-2.7041,-2.7207,-2.7295,-2.7197,-2.7471,-2.7666,0.0,-2.8848,-3.0799,-3.3619,-3.456,-3.6119,-3.8354,-3.8442,-3.8165,-3.76,-3.7588,-3.7374,-3.6973,-3.7525,-3.7726,-3.76,-3.7739,-3.7575,-3.7186,-3.7186,-3.6948,-3.6571,-3.6571,-3.6483,-3.6358,-3.6358,-3.6358,-3.6358,-3.6358,-3.6358,-3.6358,-3.6358,-3.7468,-3.8765,-3.8158,-3.9032,-4.0277,-3.9619,-3.9424,-3.9424,-3.9424,-3.9424,-3.9424,-3.9424,-3.9424,-3.9424,-3.9424,-3.9424,-3.9424,-3.9424,-3.9424,-3.9424,-3.9424,-3.9424,-3.9424,-3.9424,-3.9424,-3.9424,-3.9424,-3.9424,-3.9424,-3.9424,-3.9424,-3.9793,-4.0878,-4.1609,-4.2442,-4.3562,-4.4196,-4.4587,-4.4587,-4.4587,-4.4587,-4.4587,-4.4587,-4.4587,-4.4587,-4.4587,-4.4587,-4.4587,-4.4587,-4.4587,-4.4587,-4.4587,-4.4587,-1.8633,-2.0214,-2.1638,-2.1456,-2.1855,-2.2168,-2.1404,-2.0735,-2.0029,-1.8769,-1.8477,-1.8125,-1.7061,-1.8076,-1.9502,-2.081,-2.2461,-2.417,-2.5869,-2.668,-2.7148,-2.7285,-2.7519,-2.7637,-2.7578,-2.7793,-2.7939,-2.7939,-2.8955,-3.084,-3.3892,-3.4848,-3.6375,-3.878,-3.8868,-3.8592,-3.8015,-3.8002,-3.7852,-3.755,-3.8115,-3.8253,-3.8015,-3.8266,-3.8078,-3.755,0.0,-3.7236,-3.6722,-3.6722,-3.6584,-3.6358,-3.6358,-3.6358,-3.6358,-3.6358,-3.6358,-3.6358,-3.6358,-3.7468,-3.8765,-3.8158,-3.8846,-3.9903,-3.9529,-3.9424,-3.9424,-3.9424,-3.9424,-3.9424,-3.9424,-3.9424,-3.9424,-3.9424,-3.9424,-3.9424,-3.9424,-3.9424,-3.9424,-3.9424,-3.9424,-3.9424,-3.9424,-3.9424,-3.9424,-3.9424,-3.9424,-3.9424,-3.9424,-3.9424,-3.9864,-4.1147,-4.1739,-4.252,-4.3756,-4.4327,-4.4587,-4.4587,-4.4587,-4.4587,-4.4587,-4.4587,-4.4587,-4.4587,-4.4587,-4.4587,-4.4587,-4.4587,-4.4587,-4.4587,-4.4587,-4.4587,-1.9609,-2.0803,-2.1593,-2.0779,-2.1181,-2.1285,-1.9683,-1.916,-1.8584,-1.6973,-1.6855,-1.6689,-1.5537,-1.6699,-1.8301,-1.9687,-2.1328,-2.3203,-2.543,-2.6064,-2.6641,-2.7559,-2.7666,-2.7832,-2.8252,-2.8291,-2.8291,-2.8291,-2.9033,-3.0748,-3.3698,-3.4758,-3.634,-3.888,-3.8981,-3.8705,-3.8128,-3.8191,-3.8191,-3.8128,-3.863,-3.8617,-3.814,-3.8567,-3.8442,-3.7902,-3.7902,0.0,-3.7073,-3.7073,-3.6784,-3.6358,-3.6358,-3.6358,-3.6358,-3.6358,-3.6358,-3.6358,-3.6358,-3.7468,-3.8778,-3.8255,-3.8732,-3.9544,-3.9544,-3.9484,-3.9424,-3.9424,-3.9424,-3.9424,-3.9424,-3.9424,-3.9424,-3.9424,-3.9424,-3.9424,-3.9424,-3.9424,-3.9424,-3.9424,-3.9424,-3.9424,-3.9424,-3.9424,-3.9424,-3.9424,-3.9424,-3.9424,-3.9424,-3.9424,-3.999,-4.1674,-4.1933,-4.2645,-4.431,-4.4514,-4.4587,-4.4587,-4.4587,-4.4587,-4.4587,-4.4587,-4.4587,-4.4587,-4.4587,-4.4587,-4.4587,-4.4587,-4.4587,-4.4587,-4.4587,-4.4587,-1.9853,-2.0377,-2.0779,-2.0644,-2.0436,-2.0108,-1.9468,-1.8477,-1.7422,-1.6387,-1.5674,-1.5166,-1.4932,-1.6025,-1.7598,-1.959,-2.1084,-2.2871,-2.5381,-2.5801,-2.6299,-2.7519,-2.7666,-2.7832,-2.8252,-2.8291,-2.8291,0.0,-2.875,-3.0289,-3.3216,-3.4252,-3.6237,-3.9431,-3.9546,-3.9283,-3.873,-3.917,-3.917,-3.873,-3.8818,-3.8818,-3.8705,-3.8329,-3.7852,-3.7324,-3.7324,0.0,-3.6508,-3.6508,-3.6445,-3.6358,-3.6358,-3.6358,-3.6358,-3.6358,-3.6358,-3.6358,-3.6358,-3.7468,-3.8847,-3.8737,-3.939,-4.0232,-4.0232,-3.9843,-3.9424,-3.9424,-3.9424,-3.9424,-3.9424,-3.9424,-3.9424,-3.9424,-3.9424,-3.9424,-3.9424,-3.9424,-3.9424,-3.9424,-3.9424,-3.9424,-3.9424,-3.9424,-3.9424,-3.9424,-3.9424,-3.9424,-3.9424,-3.9424,-3.9793,-4.0826,-4.1543,-4.2379,-4.3426,-4.4196,-4.4587,-4.4587,-4.4587,-4.4587,-4.4587,-4.4587,-4.4587,-4.4587,-4.4587,-4.4587,-4.4587,-4.4587,-4.4587,-4.4587,-4.4587,-4.4587,-2.0127,-2.041,-2.0566,-2.0566,-2.0244,-1.9629,-1.8545,-1.7646,-1.6602,-1.5049,-1.458,-1.4316,-1.3877,-1.5215,-1.6797,-1.8057,-1.9727,-2.1689,-2.4053,-2.4766,-2.5615,-2.7139,-2.7529,-2.7832,-2.8252,-2.8291,-2.8291,-2.8291,-2.8476,-2.9621,-3.1938,-3.4184,-3.6395,-3.8705,-3.8818,-3.868,-3.8417,-3.868,-3.868,-3.8417,-3.8417,-3.8417,-3.8417,-3.814,-3.7701,-3.7186,-3.7186,0.0,-3.6358,-3.6358,-3.6358,-3.6358,-3.6358,-3.6358,-3.6358,-3.6358,-3.6358,-3.6452,-3.7057,-3.7993,-3.9031,-3.9634,-4.0039,-4.0397,-4.0397,-3.9948,-3.9424,-3.9424,-3.9424,-3.9424,-3.9424,-3.9424,-3.9424,-3.9424,-3.9424,-3.9424,-3.9424,-3.9424,-3.9424,-3.9424,-3.9424,-3.9424,-3.9424,-3.9424,-3.9424,-3.9424,-3.9424,-3.9424,-3.9424,-3.9424,-3.9737,-4.0622,-4.1478,-4.2316,-4.3246,-4.4121,-4.4587,-4.4587,-4.4587,-4.4587,-4.4587,-4.4587,-4.4587,-4.4587,-4.4587,-4.4587,-4.4587,-4.4587,-4.4587,-4.4587,-4.4587,-4.4587,-2.0361,-2.0566,-2.0566,-2.0566,-2.0166,-1.9355,-1.7754,-1.6894,-1.5889,-1.3916,-1.3701,-1.3691,-1.3125,-1.4463,-1.5889,-1.6611,-1.8291,-2.0293,-2.2559,-2.3603,-2.4795,-2.6533,-2.7129,-2.7598,-2.8105,-2.8154,-2.8193,-2.8281,-2.8291,-2.9303,-3.1402,-3.4257,-3.6509,-3.7903,-3.8002,-3.8002,-3.8002,-3.8002,-3.8002,-3.8002,-3.7889,-3.7839,-3.7826,-3.7713,-3.7412,-3.701,-3.701,0.0,0.0,-3.6358,-3.6358,-3.6358,-3.6358,-3.6358,-3.6358,-3.6358,-3.6358,-3.6521,-3.7272,-3.814,-3.9017,-3.981,-4.0188,-4.0397,-4.0397,-3.9948,-3.9424,-3.9424,-3.9424,-3.9424,-3.9424,-3.9424,-3.9424,-3.9424,-3.9424,-3.9424,-3.9424,-3.9424,-3.9424,-3.9424,-3.9424,-3.9424,-3.9424,-3.9424,-3.9424,-3.9424,-3.9424,-3.9424,-3.9424,-3.9424,-3.9737,-4.0622,-4.1478,-4.2316,-4.3246,-4.4121,-4.4587,-4.4587,-4.4587,-4.4587,-4.4587,-4.4587,-4.4587,-4.4587,-4.4587,-4.4587,-4.4587,-4.4587,-4.4587,-4.4587,-4.4587,-4.4587,-2.0439,-2.0566,-2.0566,-2.0566,-1.9951,-1.8994,-1.7686,-1.6426,-1.5146,-1.3789,-1.3232,-1.3096,-1.3389,-1.3916,0.0,0.0,0.0,-1.9082,-2.1641,-2.2734,-2.3916,-2.5644,-2.624,-2.6826,-2.7637,-2.7725,-2.7881,-2.8262,-2.8291,-2.9717,-3.2864,-3.4454,-3.6133,-3.799,-3.8002,-3.8002,-3.8002,-3.8002,-3.8002,-3.8002,-3.75,-3.7262,-3.7249,-3.6734,-3.6483,-3.6433,-3.6433,0.0,0.0,-3.6358,-3.6358,-3.6358,-3.6358,-3.6358,-3.6358,-3.6358,-3.6358,-3.6389,-3.5873,-3.7125,-3.8863,-3.8478,-3.9247,-4.0397,-4.0397,-3.9948,-3.9424,-3.9424,-3.9424,-3.9424,-3.9424,-3.9424,-3.9424,-3.9424,-3.9424,-3.9424,-3.9424,-3.9424,-3.9424,-3.9424,-3.9424,-3.9424,-3.9424,-3.9424,-3.9424,-3.9424,-3.9424,-3.9424,-3.9424,-3.9424,-3.9737,-4.0622,-4.1478,-4.2316,-4.3246,-4.4121,-4.4587,-4.4587,-4.4587,-4.4587,-4.4587,-4.4587,-4.4587,-4.4587,-4.4587,-4.4587,-4.4587,-4.4587,-4.4587,-4.4587,-4.4587,-4.4587,-1.9829,-2.0361,-2.0566,-2.0566,-1.9922,-1.8887,-1.7344,-1.6172,-1.498,-1.3447,-1.2998,-1.293,-1.3096,-1.3477,0.0,0.0,0.0,0.0,-1.96,-2.0664,-2.2041,-2.4297,-2.5176,-2.6035,-2.7168,-2.751,-2.7842,-2.8262,-2.8291,-2.9182,-3.1309,-3.2735,-3.4544,-3.701,-3.7023,-3.7023,-3.7023,-3.7023,-3.7023,-3.701,-3.6797,-3.6684,-3.6684,-3.6458,-3.6358,-3.6358,-3.6358,0.0,0.0,-3.6358,-3.6358,-3.6358,-3.6358,-3.6358,-3.632,-3.5994,-3.5868,-3.5873,-3.6097,-3.683,-3.791,-3.8404,-3.9121,-3.9888,-4.0277,-3.9948,-3.9424,-3.9424,-3.9424,-3.9424,-3.9424,-3.9424,-3.9424,-3.9424,-3.9424,-3.9424,-3.9424,-3.9424,-3.9424,-3.9424,-3.9424,-3.9424,-3.9424,-3.9424,-3.9424,-3.9424,-3.9424,-3.9424,-3.9424,-3.9424,-3.9737,-4.0622,-4.1478,-4.2316,-4.3246,-4.4121,-4.4587,-4.4587,-4.4587,-4.4587,-4.4587,-4.4587,-4.4587,-4.4587,-4.4587,-4.4587,-4.4587,-4.4587,-4.4587,-4.4587,-4.4587,-4.4587,-1.9232,-2.0039,-2.0371,-2.0371,-1.9727,-1.8643,-1.6924,-1.5859,-1.4775,-1.3203,-1.2881,-1.2881,-1.2881,-1.3125,-1.3603,0.0,0.0,-1.6025,-1.8311,-1.9268,-2.0596,-2.2949,-2.3867,-2.4824,-2.6123,-2.7109,-2.7793,-2.8086,-2.8105,-2.8971,-3.0813,-3.1561,-3.3128,-3.575,-3.6168,-3.6358,-3.6358,-3.6358,-3.6358,-3.6358,-3.6358,-3.6358,-3.6358,-3.6358,-3.6358,-3.6358,-3.6194,0.0,0.0,-3.5943,-3.5881,-3.5881,-3.5881,-3.5881,-3.583,-3.5441,-3.5303,-3.5385,-3.6005,-3.6599,-3.7285,-3.8239,-3.8912,-3.9514,-3.9963,-3.9783,-3.9424,-3.9424,-3.9424,-3.9424,-3.9424,-3.9424,-3.9424,-3.9424,-3.9424,-3.9424,-3.9424,-3.9424,-3.9424,-3.9424,-3.9424,-3.9349,-3.9155,-3.911,-3.905,-3.8856,-3.899,-3.911,-3.911,-3.929,-3.9737,-4.0622,-4.1478,-4.2316,-4.3246,-4.4121,-4.4587,-4.4587,-4.4587,-4.4587,-4.4587,-4.4587,-4.4587,-4.4587,-4.4587,-4.4587,-4.4587,-4.4587,-4.4587,-4.4587,-4.4587,-4.4587,-1.8792,-1.96,-1.9922,-1.9922,-1.9277,-1.8193,-1.6465,-1.541,-1.4424,-1.3145,-1.2881,-1.2881,-1.2881,-1.2881,-1.3164,0.0,0.0,0.0,-1.8271,-1.9014,-1.9941,-2.1699,-2.2275,-2.3047,-2.4316,-2.6396,-2.7666,-2.7676,-2.7676,0.0,-3.2107,-3.1423,-3.2036,-3.435,-3.5667,-3.6358,-3.6358,-3.6358,-3.6358,-3.6358,-3.6358,-3.6358,-3.6358,-3.6358,-3.6358,-3.6332,0.0,0.0,0.0,-3.4964,-3.4738,-3.4738,-3.4738,-3.4738,-3.4738,-3.4726,-3.4726,-3.4817,-3.5331,-3.6179,-3.7215,-3.7648,-3.8546,-3.9424,-3.9424,-3.9424,-3.9424,-3.9424,-3.9424,-3.9424,-3.9424,-3.9424,-3.9424,-3.9424,-3.9424,-3.9424,-3.9424,-3.9424,-3.9424,-3.9424,-3.9424,-3.92,-3.8512,-3.8407,-3.8182,-3.7524,-3.7988,-3.8407,-3.8407,-3.899,-3.9737,-4.0622,-4.1478,-4.2316,-4.3246,-4.4121,-4.4587,-4.4587,-4.4587,-4.4587,-4.4587,-4.4587,-4.4587,-4.4587,-4.4587,-4.4587,-4.4587,-4.4587,-4.4587,-4.4587,-4.4587,-4.4587,-1.7005,-1.7852,-1.8115,-1.7812,-1.7539,-1.6963,-1.5518,-1.498,-1.4424,-1.3145,-1.2881,-1.2881,-1.2881,-1.2881,-1.335,-1.4775,0.0,0.0,0.0,-1.8896,-2.0029,-2.0879,-2.292,-2.4658,-2.5664,0.0,-2.6914,-2.7197,-2.7217,-2.8055,-2.9853,-3.0557,-3.2248,-3.51,-3.5244,-3.5416,-3.5805,-3.5429,-3.5429,-3.5805,-3.5416,-3.524,-3.524,-3.524,-3.524,0.0,0.0,0.0,0.0,-3.4801,-3.4726,-3.4726,-3.4726,-3.4726,-3.4675,-3.4299,-3.4161,-3.4161,-3.3929,-3.501,-3.6553,-3.6674,-3.789,-3.9424,-3.9424,-3.9424,-3.9424,-3.9424,-3.9424,-3.9424,-3.9424,-3.9424,-3.9424,-3.9424,-3.9424,-3.9424,-3.9424,-3.9424,-3.9424,-3.9424,-3.9424,-3.92,-3.8512,-3.8781,-3.8871,-3.8182,-3.8661,-3.9095,-3.9095,-3.9783,-4.0622,-4.1478,-4.2395,-4.2986,-4.3306,-4.4121,-4.4587,-4.4587,-4.4587,-4.4587,-4.4587,-4.4587,-4.4587,-4.4587,-4.4587,-4.4587,-4.4587,-4.4587,-4.4587,-4.4587,-4.4587,-4.4587,-1.559,-1.6553,-1.6816,-1.6543,-1.6357,-1.5937,-1.4805,-1.4414,-1.4033,-1.3076,-1.2881,-1.2881,-1.2881,-1.2881,-1.3281,-1.4492,0.0,0.0,0.0,-1.8428,-1.9658,-2.0918,-2.2998,-2.4687,0.0,-2.6094,-2.6494,-2.6758,-2.7161,-2.8092,-2.9514,-3.0516,-3.217,-3.481,-3.4801,-3.4889,-3.5228,-3.4901,-3.4901,-3.5228,-3.4889,-3.4726,-3.4726,-3.4726,-3.4726,0.0,0.0,0.0,0.0,-3.4186,-3.411,-3.411,-3.411,-3.411,-3.406,-3.3721,-3.3583,-3.362,-3.414,-3.5116,-3.6355,-3.7161,-3.8294,-3.9424,-3.9424,-3.9424,-3.9424,-3.9424,-3.9424,-3.9424,-3.9424,-3.9424,-3.9424,-3.9424,-3.9424,-3.9424,-3.9424,-3.9424,-3.9424,-3.9424,-3.9424,-3.92,-3.8512,-3.8751,-3.8796,-3.8123,-3.8601,-3.9035,-3.9035,-4.0017,-4.0878,-4.1478,-4.2583,-4.3306,-4.3306,-4.4121,-4.4587,-4.4587,-4.4587,-4.4587,-4.4587,-4.4587,-4.4587,-4.4587,-4.4587,-4.4587,-4.4587,-4.4587,-4.4587,-4.4587,-4.4587,-4.4587,0.0,-1.5547,-1.5929,-1.59,-1.5557,-1.5059,-1.4238,-1.3769,0.0,-1.2969,-1.2881,-1.29,-1.2959,-1.292,-1.3066,-1.3643,-1.4043,-1.5019,-1.7168,-1.7939,-1.9228,-2.1768,-2.2783,-2.3603,-2.4434,-2.5625,-2.6338,-2.6338,-2.7374,-2.8871,-3.0655,-3.1007,-3.1906,-3.3822,-3.4336,-3.4625,-3.4663,-3.4625,-3.4625,-3.4663,-3.4625,-3.4613,-3.4613,-3.4613,-3.4613,0.0,0.0,0.0,0.0,-3.3294,-3.3081,-3.3081,-3.3081,-3.3081,-3.3081,-3.3081,-3.3154,-3.3471,-3.5426,-3.6212,-3.6682,-3.8694,-3.9424,-3.9424,-3.9424,-3.9424,-3.9424,-3.9424,-3.9424,-3.9424,-3.9424,-3.9424,-3.9424,-3.9424,-3.9424,-3.9424,-3.9424,-3.9424,-3.9424,-3.9424,-3.9424,-3.92,-3.8512,-3.8437,-3.8242,-3.7584,-3.8102,-3.8592,-3.8592,-3.991,-4.0878,-4.0878,-4.2395,-4.3366,-4.3366,-4.4121,-4.4587,-4.4587,-4.4587,-4.4587,-4.4587,-4.4587,-4.4587,-4.4587,-4.4587,-4.4587,-4.4587,-4.4587,-4.4587,-4.4587,-4.4587,-4.4587,-1.2353,0.0,-1.4033,-1.3711,-1.3799,-1.3818,0.0,-1.335,-1.3389,-1.2969,-1.2881,-1.3076,-1.3721,-1.3311,-1.3564,-1.5644,-1.5771,-1.625,-1.8086,-1.9863,-2.168,-2.3594,-2.4287,-2.4824,-2.5371,-2.5703,-2.5889,-2.5889,-2.6172,-2.7321,-2.9661,-2.9806,-3.0925,-3.317,-3.3395,-3.3671,-3.4085,-3.3671,-3.3671,-3.4085,-3.3671,-3.347,-3.347,-3.347,-3.347,0.0,0.0,0.0,-3.3257,-3.3131,-3.3081,-3.3081,-3.3081,-3.3081,-3.3081,-3.3081,-3.3641,-3.4428,-3.4897,-3.6081,-3.7663,-3.8943,-3.9424,-3.9424,-3.9424,-3.9424,-3.9424,-3.9424,-3.9424,-3.9424,-3.9424,-3.9424,-3.9424,-3.9424,-3.9424,-3.9424,-3.9424,-3.9424,-3.9424,-3.9424,-3.9424,-3.92,-3.8512,-3.8826,-3.8945,-3.8257,-3.9306,-4.0185,-4.0185,-4.1628,-4.2724,-4.2724,-4.368,-4.431,-4.431,-4.4514,-4.4587,-4.4587,-4.4587,-4.4587,-4.4587,-4.4587,-4.4587,-4.4587,-4.4587,-4.4587,-4.4587,-4.4587,-4.4587,-4.4587,-4.4587,-4.4587,-1.1715,-1.2635,-1.3447,-1.3223,-1.334,-1.3447,-1.3223,-1.3193,-1.3154,-1.293,-1.2881,-1.3076,-1.373,-1.3477,-1.375,-1.5547,-1.5967,-1.6875,-1.9199,-2.1055,-2.2734,-2.4238,-2.4805,-2.5244,0.0,-2.5742,-2.5742,-2.5742,-2.6197,-2.7125,-2.8495,-2.959,-3.0866,-3.2152,-3.2797,-3.3219,-3.352,-3.3232,-3.3232,-3.352,-3.3219,-3.3081,-3.3081,-3.3081,-3.3081,0.0,0.0,0.0,-3.3081,-3.3081,-3.3081,-3.3081,-3.3081,-3.3081,-3.3081,-3.3081,-3.3471,-3.4108,-3.5047,-3.6788,-3.862,-3.9192,-3.9424,-3.9424,-3.9424,-3.9424,-3.9424,-3.9424,-3.9424,-3.9424,-3.9424,-3.9424,-3.9424,-3.9424,-3.9424,-3.9424,-3.9424,-3.9424,-3.9424,-3.9424,-3.9424,-3.9305,-3.8931,-3.917,-3.929,-3.8916,-3.994,-4.069,-4.069,-4.2189,-4.3306,-4.3306,-4.4064,-4.4587,-4.4587,-4.4587,-4.4587,-4.4587,-4.4587,-4.4587,-4.4587,-4.4587,-4.4587,-4.4587,-4.4587,-4.4587,-4.4587,-4.4587,-4.4587,-4.4587,-4.4587,-4.4587,-1.1968,-1.2833,-1.3652,-1.3467,-1.3457,-1.3486,-1.3428,0.0,0.0,-1.2881,-1.293,-1.3125,-1.3613,-1.376,-1.4102,-1.5029,-1.6006,-1.7617,-2.0381,-2.1885,-2.3135,-2.4277,-2.4863,0.0,-2.5703,-2.5742,-2.5742,-2.5742,-2.6597,-2.7296,-2.7484,-2.9489,-3.0808,-3.0985,-3.2253,-3.2943,-3.2943,-3.3031,-3.3081,-3.3081,-3.3081,-3.3081,-3.3081,-3.3081,-3.3081,-3.3081,0.0,0.0,-3.3081,-3.3081,-3.3081,-3.3081,-3.3081,-3.3081,-3.3167,-3.3326,-3.3471,-3.3869,-3.5974,-3.789,-3.9424,-3.9424,-3.9424,-3.9424,-3.9424,-3.9424,-3.9424,-3.9424,-3.9424,-3.9424,-3.9424,-3.9424,-3.9424,-3.9424,-3.9424,-3.9424,-3.9424,-3.9424,-3.9424,-3.9424,-3.9424,-3.9424,-3.9424,-3.9424,-3.9424,-3.9424,-4.0115,-4.0758,-4.0878,-4.2316,-4.3366,-4.3486,-4.4138,-4.4587,-4.4587,-4.4587,-4.4587,-4.4587,-4.4587,-4.4587,-4.4587,-4.4587,-4.4587,-4.4587,-4.4587,-4.4587,-4.4587,-4.4587,-4.4587,-4.4587,-4.4587,-4.4587,-1.2706,-1.3751,-1.4326,-1.3252,-1.3242,-1.3418,-1.3057,-1.293,0.0,0.0,-1.3164,-1.3652,-1.4443,-1.4883,-1.5527,-1.6777,-1.8301,-1.9873,-2.1465,-2.2783,-2.3799,-2.4355,0.0,-2.5664,-2.5732,-2.5742,-2.5742,-2.5742,-2.5572,-2.5903,-2.6909,-2.7944,-2.8936,-3.0012,-3.1489,-3.234,-3.234,-3.283,-3.3081,-3.3081,-3.3081,-3.3081,-3.3081,-3.3081,-3.3081,-3.3081,0.0,-3.3081,-3.3081,-3.3081,-3.3081,-3.3081,-3.3081,-3.3081,-3.324,-3.4108,-3.4966,-3.6053,-3.813,-3.9104,-3.9424,-3.9424,-3.9424,-3.9424,-3.9424,-3.9424,-3.9424,-3.9424,-3.9424,-3.9424,-3.9424,-3.9424,-3.9424,-3.9424,-3.9424,-3.9424,-3.9424,-3.9424,-3.9424,-3.9424,-3.9424,-3.9424,-3.9424,-3.9424,-3.9424,-3.9424,-4.0115,-4.0946,-4.1739,-4.2645,-4.3562,-4.4327,-4.4514,-4.4587,-4.4587,-4.4587,-4.4587,-4.4587,-4.4587,-4.4587,-4.4587,-4.4587,-4.4587,-4.4587,-4.4587,-4.4587,-4.4587,-4.4587,-4.4587,-4.4587,-4.4587,-4.4587,-1.2874,-1.3551,-1.4004,-1.3643,-1.4228,-1.4775,-1.4346,-1.4248,-1.4248,0.0,-1.4404,-1.4727,-1.5361,-1.583,-1.6699,-1.8467,-1.9805,-2.1006,-2.207,-2.293,-2.3594,0.0,0.0,-2.5029,-2.5029,-2.5029,-2.5029,-2.5029,-2.4834,0.0,-2.5522,-2.6468,-2.7579,-2.8717,-3.0169,-3.1169,-3.1763,-3.2039,-3.2466,-3.3081,-3.2754,-3.2604,-3.2604,-3.2303,-3.2164,-3.2164,0.0,-3.2164,-3.2164,-3.2164,-3.2164,-3.2202,-3.2491,-3.2604,-3.2726,-3.3513,-3.4802,-3.6355,-3.7329,-3.8457,-3.9424,-3.9424,-3.9424,-3.9424,-3.9424,-3.9424,-3.9424,-3.9424,-3.9424,-3.9424,-3.9424,-3.9424,-3.9424,-3.9424,-3.9424,-3.9424,-3.9424,-3.9424,-3.9424,-3.9424,-3.9424,-3.9424,-3.9424,-3.9424,-3.9538,-4.006,-4.0826,-4.1739,-4.2583,-4.3486,-4.4138,-4.457,-4.4587,-4.4587,-4.4587,-4.4587,-4.4587,-4.4587,-4.4587,-4.4587,-4.4587,-4.4587,-4.4587,-4.4587,-4.4587,-4.4367,-4.3944,-4.4367,-4.4367,-4.3961,-4.4384,-4.4587,-1.3271,-1.3486,-1.375,-1.418,-1.4883,-1.5478,-1.5547,-1.541,-1.5352,-1.5654,-1.5801,-1.5947,-1.6172,-1.6826,-1.7998,-2.0039,-2.1025,-2.1797,-2.2549,-2.3027,-2.3418,-2.375,-2.416,-2.4414,-2.4414,-2.468,-2.468,-2.4414,0.0,0.0,-2.4614,-2.5743,-2.6802,-2.7924,-2.926,-3.0355,-3.121,-3.1336,-3.1825,-3.2679,-3.2227,-3.2026,-3.2001,-3.1587,-3.1386,-3.1386,-3.1386,-3.1386,-3.1386,-3.1386,-3.1386,-3.1436,-3.1851,-3.218,-3.2466,-3.3385,-3.4794,-3.6172,-3.6402,-3.7591,-3.8975,-3.9125,-3.9185,-3.9215,-3.9364,-3.9424,-3.9424,-3.9424,-3.9424,-3.9424,-3.9424,-3.9424,-3.9424,-3.9424,-3.9424,-3.9424,-3.9424,-3.9424,-3.9424,-3.9424,-3.9424,-3.9424,-3.9424,-3.9424,-3.961,-4.0309,-4.1147,-4.1997,-4.2909,-4.3756,-4.4384,-4.457,-4.4587,-4.4587,-4.4587,-4.4587,-4.4502,-4.4316,-4.4485,-4.4587,-4.4587,-4.4587,-4.4587,-4.4587,-4.4401,-4.4012,-4.342,-4.4012,-4.3995,-4.3436,-4.4215,-4.4587,-1.4434,-1.4375,-1.4199,-1.4629,-1.4209,-1.4102,-1.5664,-1.54,-1.5176,-1.6387,-1.6963,-1.7129,-1.6748,-1.8008,-1.9687,-2.1455,-2.2119,-2.2578,-2.3027,0.0,-2.375,-2.3789,-2.416,-2.4414,-2.4414,-2.5401,-2.5583,0.0,0.0,0.0,-2.529,-2.6073,-2.6985,-2.8042,-2.9708,-3.0591,-3.067,-3.1148,-3.1436,-3.1512,-3.1474,-3.1449,-3.1449,-3.1411,-3.1386,-3.1386,-3.1386,-3.1386,-3.1386,-3.1386,-3.1386,-3.1386,-3.1436,-3.2072,-3.3158,-3.5018,-3.584,-3.6115,-3.7024,-3.7401,-3.7659,-3.8257,-3.8467,-3.8586,-3.923,-3.9424,-3.9424,-3.9424,-3.9424,-3.9424,-3.9424,-3.9424,-3.9424,-3.9424,-3.9424,-3.9424,-3.9424,-3.9424,-3.9424,-3.9424,-3.9424,-3.9424,-3.9424,-3.9424,-3.9409,-3.9481,-4.0255,-4.108,-4.1997,-4.2847,-4.368,-4.4514,-4.4587,-4.4587,-4.4587,-4.4587,-4.4265,-4.3538,-4.4181,-4.4587,-4.4587,-4.4587,-4.4587,-4.4587,-4.3876,-4.347,-4.342,-4.347,-4.347,-4.3436,-4.4215,-4.4587,-1.3906,-1.4062,-1.4184,-1.4678,-1.4736,-1.501,-1.6201,-1.6846,-1.7471,-1.8496,-1.9062,-1.9316,-1.915,-1.9648,-2.0478,-2.1689,-2.2236,-2.2656,-2.3076,-2.3281,-2.3389,-2.3389,-2.3525,-2.3623,-2.3623,-2.3969,-2.4058,0.0,0.0,0.0,-2.506,-2.599,-2.6964,-2.8096,-2.871,-2.9413,-3.0105,-3.0294,-3.0394,-3.0394,-3.0746,-3.0909,-3.0896,-3.0557,-3.0394,-3.0394,-3.0394,-3.0394,-3.0394,-3.0394,-3.0394,-3.0432,-3.0771,-3.1714,-3.2987,-3.3671,-3.4803,-3.6014,-3.6314,-3.6906,-3.7449,-3.7704,-3.7778,-3.7838,-3.8093,-3.8452,-3.8781,-3.8781,-3.9095,-3.9424,-3.9424,-3.9424,-3.9424,-3.9424,-3.9424,-3.9424,-3.9424,-3.9424,-3.9424,-3.9424,-3.9424,-3.9424,-3.9424,-3.9424,-3.961,-4.0115,-4.0961,-4.1788,-4.2724,-4.3562,-4.4253,-4.457,-4.4587,-4.4587,-4.4587,-4.4587,-4.4451,-4.4164,-4.3961,-4.3859,-4.3859,-4.3859,-4.4079,-4.457,-4.4282,-4.391,-4.342,-4.391,-4.3893,-4.3436,-4.4215,-4.4587,-1.374,-1.3818,-1.4072,-1.4648,0.0,-1.5752,-1.7041,-1.8008,-1.8965,-2.0098,-2.0459,-2.0605,-2.0752,-2.0781,-2.1016,-2.1768,-2.2344,-2.2812,-2.3096,-2.3135,-2.3135,-2.3135,-2.3135,-2.3135,-2.3135,-2.3474,0.0,0.0,0.0,0.0,0.0,-2.6058,-2.7128,-2.8597,-2.8597,-2.9028,-2.9792,-2.9792,-2.9691,-2.9528,-3.008,-3.0357,-3.0344,-2.9967,-2.9792,-2.9792,-2.9792,-2.9792,-2.9792,-2.9792,-2.9792,-2.9907,-3.0855,-3.1667,-3.2431,-3.3329,-3.4377,-3.5352,-3.5648,-3.6232,-3.6851,-3.7045,-3.712,-3.715,-3.7345,-3.7719,-3.8078,-3.8078,-3.8571,-3.9095,-3.9095,-3.926,-3.9424,-3.9424,-3.9424,-3.9424,-3.9424,-3.9424,-3.9424,-3.9424,-3.9424,-3.9424,-3.9424,-3.961,-3.999,-4.0622,-4.1674,-4.2645,-4.3246,-4.4064,-4.4587,-4.4587,-4.4587,-4.4587,-4.4587,-4.4587,-4.4468,-4.4231,-4.3707,-4.3521,-4.3775,-4.3792,-4.4045,-4.457,-4.4333,-4.3944,-4.342,-4.3944,-4.3944,-4.3436,-4.4402,-4.4852,-1.4248,-1.3828,-1.3721,-1.458,-1.5117,-1.6006,-1.8154,-1.8662,-1.917,-2.0898,-2.0898,-2.0723,-2.1162,-2.125,-2.1387,-2.1816,-2.2588,-2.3135,-2.3135,-2.3135,-2.3135,-2.3135,-2.3135,-2.3135,-2.3135,0.0,0.0,0.0,0.0,0.0,0.0,-2.6543,-2.7533,-2.9689,-2.9779,-2.9779,-2.9779,-2.9779,-2.949,-2.8925,-2.9503,-2.9779,-2.9779,-2.9792,-2.9792,-2.9792,-2.9792,-2.9792,-2.9792,-2.9792,-2.9792,-3.0011,-3.1829,-3.2033,-3.1536,-3.4423,-3.4839,-3.4177,-3.5133,-3.5504,-3.5609,-3.6267,-3.6477,-3.6596,-3.721,-3.7404,-3.7404,-3.7404,-3.7868,-3.8377,-3.8377,-3.8886,-3.9409,-3.9409,-3.9424,-3.9424,-3.9409,-3.9409,-3.9424,-3.9409,-3.9424,-3.9424,-3.9409,-4.0115,-4.069,-4.0675,-4.2189,-4.3306,-4.3306,-4.4064,-4.4587,-4.4587,-4.4587,-4.4587,-4.4587,-4.4587,-4.4248,-4.347,-4.3436,-4.3775,-4.4536,-4.457,-4.457,-4.4587,-4.3826,-4.3436,-4.3436,-4.342,-4.342,-4.3453,-4.4853,-4.5494,-1.3809,-1.4043,-1.4541,-1.5088,-1.6465,-1.8202,-2.0237,-2.036,-2.0488,-2.2217,-2.2865,-2.291,-2.2266,-2.1894,-2.1836,-2.2256,-2.3177,-2.3693,-2.3183,-2.38,-2.3963,-2.3222,-2.3135,-2.3135,-2.3135,0.0,0.0,0.0,0.0,0.0,0.0,-2.7179,-2.7887,-2.8599,-2.8599,-2.8599,-2.8599,-2.8599,-2.8511,-2.8348,-2.8524,-2.8812,-2.9202,-2.9603,-2.9792,-2.9792,-2.9792,-2.9792,-2.9792,-2.9792,-2.9792,-2.9869,-3.0432,-3.1267,-3.2321,-3.3115,-3.4124,-3.5067,-3.5424,-3.5504,-3.5534,-3.5729,-3.5804,-3.5833,-3.6013,-3.6387,-3.6761,-3.6761,-3.721,-3.7704,-3.7704,-3.7853,-3.8123,-3.8586,-3.9065,-3.9155,-3.8212,-3.8751,-3.9275,-3.8796,-3.9095,-3.961,-4.0185,-4.0569,-4.0878,-4.1528,-4.2583,-4.3502,-4.4138,-4.444,-4.4587,-4.4587,-4.4587,-4.4587,-4.4587,-4.4587,-4.4485,-4.4248,-4.4231,-4.4096,-4.3775,-4.3775,-4.4012,-4.457,-4.435,-4.4231,-4.4231,-4.369,-4.3707,-4.427,-4.4578,-4.4974,-1.4287,-1.4766,-1.5478,-1.625,-1.7999,-2.0155,-2.2713,-2.2977,-2.2845,-2.3624,-2.4021,-2.3878,-2.267,-2.2705,0.0,-2.3116,-2.4283,-2.4984,-2.4522,-2.5052,-2.5146,-2.4219,-2.4114,-2.4041,-2.3782,0.0,0.0,0.0,0.0,0.0,0.0,-2.7112,-2.7644,-2.8109,-2.8109,-2.8109,-2.8109,-2.8109,-2.7996,-2.7783,-2.7996,-2.816,-2.8298,-2.8863,-2.9239,-2.9465,-2.9691,-2.9792,-2.9792,-2.9792,-2.9998,-3.0419,-3.0771,-3.1829,-3.3171,-3.3616,-3.4476,-3.5504,-3.5504,-3.5504,-3.5504,-3.5504,-3.5504,-3.5504,-3.5504,-3.5789,-3.6088,-3.6088,-3.6552,-3.7045,-3.7045,-3.7225,-3.7509,-3.7913,-3.8317,-3.8392,-3.7584,-3.8257,-3.8886,-3.8467,-3.8945,-3.9681,-4.0554,-4.1013,-4.1543,-4.2395,-4.3229,-4.4006,-4.4514,-4.4587,-4.4587,-4.4587,-4.4587,-4.4587,-4.4587,-4.4587,-4.4587,-4.4587,-4.4587,-4.4367,-4.391,-4.3876,-4.4096,-4.457,-4.4282,-4.4265,-4.4587,-4.3504,-4.3515,-4.45,-4.4659,-4.5102,-1.5195,-1.5723,-1.6552,-1.7809,-1.9782,-2.2212,-2.5341,-2.612,-2.5923,-2.5114,-2.4713,-2.4178,-2.3058,-2.37,-2.4405,-2.4363,-2.5623,-2.6558,-2.6349,-2.6419,-2.6251,-2.5619,-2.5563,-2.5316,0.0,0.0,0.0,0.0,0.0,0.0,0.0,-2.6518,-2.6966,-2.7959,-2.7959,-2.7959,-2.7959,-2.7959,-2.7708,-2.7218,-2.772,-2.7695,-2.7231,-2.7833,-2.8386,-2.8888,-2.9415,-2.9666,-2.9716,-2.9716,-3.0228,-3.118,-3.2105,-3.3031,-3.4027,-3.4986,-3.5424,-3.5504,-3.5504,-3.5504,-3.5504,-3.5504,-3.5504,-3.5504,-3.5504,-3.5504,-3.5504,-3.5504,-3.5938,-3.6402,-3.6402,-3.6821,-3.724,-3.724,-3.733,-3.7375,-3.7255,-3.7793,-3.8287,-3.8227,-3.8882,-3.9703,-4.0597,-4.1496,-4.2379,-4.3306,-4.4064,-4.4587,-4.4587,-4.4587,-4.4587,-4.4587,-4.4587,-4.4553,-4.4485,-4.4468,-4.4468,-4.4468,-4.4468,-4.4502,-4.4587,-4.4587,-4.4587,-4.4587,-4.3809,-4.3775,-4.4468,-4.2983,-4.2945,-4.4213,-4.4853,-4.5543,-1.4385,-1.5756,-1.7546,-1.8843,-2.2273,-2.5756,-2.7281,-2.827,-2.8409,-2.6532,-2.6699,-2.6944,-2.5821,-2.5821,-2.5853,-2.5374,-2.6371,-2.6697,-2.5363,-2.5957,-2.6155,-2.5072,-2.4982,-2.4937,0.0,0.0,0.0,0.0,0.0,0.0,-2.6524,-2.6524,-2.6594,-2.6816,-2.6816,-2.6816,-2.6816,-2.6816,-2.6753,0.0,-2.6753,-2.6753,-2.6666,-2.7657,-2.8172,-2.8285,-2.8411,-2.8712,-2.9114,-2.9114,-2.9517,-3.0216,-3.1119,-3.2105,-3.3031,-3.3959,-3.4839,-3.5504,-3.5504,-3.5504,-3.5504,-3.5504,-3.5504,-3.5504,-3.5504,-3.5504,-3.5504,-3.5504,-3.5609,-3.5714,-3.5714,-3.5818,-3.5908,-3.5908,-3.6686,-3.7135,-3.6133,-3.6821,-3.7479,-3.6985,-3.8394,-3.99,-4.0785,-4.2086,-4.3306,-4.4196,-4.4457,-4.4587,-4.4587,-4.4587,-4.4587,-4.4587,-4.4587,-4.4333,-4.3724,-4.3673,-4.3673,-4.3673,-4.3673,-4.3944,-4.4553,-4.4587,-4.4587,-4.4587,-4.3809,-4.3504,-4.3673,-4.2638,-4.2561,-4.3467,-4.3978,-4.4939,-1.4834,-1.6591,-1.8843,-2.1789,-2.4548,-2.6968,-2.8183,-2.9167,-2.9456,-2.8303,-2.8108,-2.7763,-2.6719,-2.6689,-2.6748,-2.6472,-2.7109,-2.7403,-2.6498,-2.6863,-2.6928,-2.6119,-2.6009,0.0,0.0,0.0,0.0,0.0,0.0,-2.6533,-2.6533,-2.6533,-2.6533,-2.6533,-2.6533,-2.6533,-2.6533,-2.6533,-2.6533,-2.6533,-2.6533,-2.6533,-2.6559,-2.7331,-2.7708,-2.772,-2.7996,-2.8273,-2.8561,-2.8825,-2.939,-3.0196,-3.1369,-3.2464,-3.3394,-3.4327,-3.5052,-3.5504,-3.5504,-3.5504,-3.5504,-3.5504,-3.5504,-3.5504,-3.5504,-3.5504,-3.5504,-3.5504,-3.5504,-3.5504,-3.5504,-3.5504,-3.5504,-3.5504,-3.6013,-3.6312,-3.5654,-3.6267,-3.6866,-3.6552,-3.7964,-3.9557,-4.0768,-4.2616,-4.4064,-4.4514,-4.4587,-4.4587,-4.4587,-4.4587,-4.4587,-4.4587,-4.4587,-4.4418,-4.4012,-4.3978,-4.3978,-4.3978,-4.3978,-4.4147,-4.4553,-4.4587,-4.4587,-4.4587,-4.3809,-4.342,-4.342,-4.2549,-4.2449,-4.3063,-4.3662,-4.4675,-1.5322,-1.74,-2.0226,-2.4791,-2.631,-2.7075,-2.8425,-2.9164,-2.9503,-2.9503,-2.8819,-2.7965,-2.7082,-2.7223,-2.7387,-2.7304,-2.7705,-2.7934,-2.7833,-2.7821,-2.7657,-2.7193,-2.7143,0.0,0.0,0.0,0.0,0.0,0.0,-2.6533,-2.6533,-2.6533,-2.6533,-2.6533,-2.6533,-2.6533,-2.6533,-2.6533,-2.6533,-2.6533,-2.6533,-2.6533,-2.6546,-2.6929,-2.7143,-2.7168,-2.762,-2.7871,-2.7996,-2.8461,-2.9206,-3.0184,-3.1687,-3.2779,-3.3575,-3.4845,-3.5325,-3.534,-3.5459,-3.5504,-3.5504,-3.5504,-3.5504,-3.5504,-3.5504,-3.5504,-3.5504,-3.5504,-3.5504,-3.5504,-3.5504,-3.5504,-3.5504,-3.5504,-3.5504,-3.5504,-3.5504,-3.5938,-3.6312,-3.6312,-3.7571,-3.9251,-4.1123,-4.3066,-4.4418,-4.4553,-4.4587,-4.4587,-4.4587,-4.4587,-4.4536,-4.4401,-4.4384,-4.4316,-4.4198,-4.4181,-4.4248,-4.4367,-4.4384,-4.4451,-4.457,-4.472,-4.4776,-4.4776,-4.3956,-4.3549,-4.3549,-4.2933,-4.2833,-4.3269,-4.3822,-4.478,-1.4228,-1.7429,-2.1544,-2.5462,-2.6826,-2.7376,-2.8084,-2.8273,-2.8335,-2.8335,-2.855,-2.8723,-2.8634,-2.8263,-2.7827,-2.7354,-2.736,-2.7218,-2.6753,-2.6678,-2.6722,-2.6647,-2.6634,0.0,0.0,0.0,0.0,0.0,-2.6533,-2.6533,-2.6533,-2.6533,-2.6533,-2.6533,-2.6533,-2.6533,-2.6533,-2.6533,-2.6533,-2.6533,-2.6533,-2.6533,-2.6533,-2.6596,-2.6634,-2.6647,-2.6653,-2.6954,-2.7394,-2.7469,-2.7855,-2.8562,-3.0335,-3.1114,-3.1506,-3.378,-3.4607,-3.4696,-3.5295,-3.5504,-3.5504,-3.5504,-3.5504,-3.5504,-3.5504,-3.5504,-3.5504,-3.5504,-3.5504,-3.5504,-3.5504,-3.5504,-3.5504,-3.5504,-3.5504,-3.5504,-3.5504,-3.5579,-3.5639,-3.5639,-3.739,-3.9747,-4.2562,-4.3322,-4.3809,-4.4485,-4.4587,-4.4587,-4.4587,-4.4587,-4.4316,-4.3639,-4.3572,-4.3301,-4.2658,-4.2591,-4.2878,-4.3538,-4.3572,-4.3876,-4.4553,-4.5089,-4.5372,-4.5372,-4.4664,-4.4267,-4.4267,-4.4547,-4.4736,-4.48,-4.4654,-4.5444,-1.6062,-1.8555,-2.1325,-2.5066,-2.6402,-2.6967,-2.7519,-2.7883,-2.8109,-2.8109,-2.8059,-2.8097,-2.8411,-2.8009,-2.7557,-2.7318,-2.7017,-2.6741,-2.6559,-2.6533,-2.6533,-2.6533,-2.6533,0.0,0.0,0.0,0.0,0.0,-2.6163,-2.5975,-2.5975,-2.5699,-2.5548,-2.5548,-2.5548,-2.5548,-2.5548,-2.5548,-2.5686,-2.5975,-2.637,-2.6533,-2.6533,-2.6533,-2.6533,-2.6533,-2.6533,-2.6603,-2.6854,-2.7155,-2.7678,-2.8516,-3.012,-3.1065,-3.1701,-3.3332,-3.4158,-3.4517,-3.4816,-3.519,-3.5504,-3.5504,-3.5504,-3.5504,-3.5504,-3.5504,-3.5504,-3.5504,-3.5504,-3.5504,-3.5504,-3.5504,-3.5504,-3.5504,-3.5504,-3.5504,-3.5504,-3.5504,-3.5733,-3.66,-3.8307,-4.0097,-4.189,-4.2523,-4.3047,-4.3809,-4.3572,-4.3453,-4.3876,-4.3555,-4.3166,-4.2828,-4.2777,-4.2642,-4.232,-4.2675,-4.3064,-4.3403,-4.3826,-4.4028,-4.3927,-4.4507,-4.4836,-4.4853,-4.5323,-4.5326,-4.4887,-4.5004,-4.5062,-4.5102,-4.4821,-4.5571,-1.7025,-1.8737,-2.0375,-2.3698,-2.5231,-2.6013,-2.6691,-2.718,-2.7507,-2.7657,-2.7356,-2.7205,-2.7607,-2.7356,-2.708,-2.708,-2.6728,-2.6533,-2.6533,-2.6533,-2.6533,-2.6533,-2.6533,0.0,0.0,0.0,0.0,0.0,-2.5636,-2.5398,-2.5398,-2.5034,-2.482,-2.482,-2.482,-2.482,-2.482,-2.482,-2.5021,-2.541,-2.5963,-2.6239,-2.6319,-2.6458,-2.6533,-2.6533,-2.6533,-2.6533,-2.6559,-2.6904,-2.7588,-2.845,-2.9832,-3.0881,-3.1757,-3.285,-3.3559,-3.4023,-3.4367,-3.4816,-3.5265,-3.5444,-3.5504,-3.5504,-3.5504,-3.5504,-3.5504,-3.5504,-3.5504,-3.5504,-3.5504,-3.5504,-3.5504,-3.5504,-3.5604,-3.5733,-3.5569,-3.5668,-3.6196,-3.7531,-3.8869,-4.0088,-4.1049,-4.166,-4.2269,-4.3014,-4.2642,-4.2489,-4.3064,-4.2642,-4.2219,-4.2033,-4.2016,-4.2016,-4.2016,-4.2523,-4.2929,-4.3115,-4.3673,-4.3851,-4.3348,-4.3939,-4.4352,-4.4528,-4.5879,-4.632,-4.5819,-4.5606,-4.5548,-4.5588,-4.5205,-4.5773,-1.5088,-1.6835,-1.8663,-2.1008,-2.285,-2.4406,-2.5448,-2.5699,-2.5887,-2.6496,-2.6596,-2.6584,-2.6609,-2.6596,-2.6571,-2.6571,-2.6546,-2.6533,-2.6533,-2.6533,-2.6533,-2.6533,-2.6533,0.0,0.0,0.0,0.0,0.0,-2.4883,-2.4858,-2.4858,-2.4845,-2.482,-2.482,-2.482,-2.482,-2.482,-2.482,-2.4833,-2.487,-2.5385,-2.5636,-2.5661,-2.6214,-2.6533,-2.6533,-2.6533,-2.6533,-2.6533,-2.6559,-2.7024,-2.7842,-2.8766,-2.9602,-3.0563,-3.2005,-3.2587,-3.2796,-3.4038,-3.4502,-3.4637,-3.5295,-3.5504,-3.5504,-3.5504,-3.5504,-3.5504,-3.5504,-3.5504,-3.5504,-3.5504,-3.5504,-3.5504,-3.5504,-3.6054,-3.6322,-3.5668,-3.6054,-3.6783,-3.7632,-3.8446,-3.9421,-4.0965,-4.1238,-4.1508,-4.2252,-4.232,-4.2303,-4.2337,-4.232,-4.2016,-4.1339,-4.1271,-4.1271,-4.1271,-4.1288,-4.161,-4.2303,-4.2388,-4.2687,-4.3212,-4.3787,-4.4361,-4.4952,-4.6366,-4.7132,-4.727,-4.708,-4.7002,-4.7002,-4.6214,-4.6305,-1.4953,-1.5856,-1.6986,-1.969,-2.1362,-2.2652,-2.3717,-2.4833,-2.5649,-2.5862,-2.6201,-2.6533,-2.6533,-2.6533,-2.6533,-2.6533,-2.6533,-2.6533,-2.6533,-2.6533,-2.6395,-2.595,0.0,0.0,0.0,0.0,0.0,0.0,0.0,-2.4293,-2.4293,-2.3941,-2.3679,-2.3679,-2.3679,-2.3679,-2.3679,-2.4104,-2.4293,-2.4305,-2.4845,-2.5272,-2.5598,-2.5812,-2.6101,-2.6533,-2.6533,-2.6533,-2.6533,-2.6533,-2.6973,-2.7802,-2.8684,-2.9504,-3.0418,-3.1471,-3.2153,-3.2587,-3.3051,-3.3769,-3.4517,-3.4756,-3.5145,-3.5504,-3.5504,-3.5504,-3.5504,-3.5504,-3.5504,-3.5504,-3.5504,-3.5504,-3.5619,-3.6117,-3.6814,-3.7279,-3.6995,-3.7557,-3.8157,-3.8469,-3.9156,-3.9866,-4.0375,-4.0476,-4.073,-4.1474,-4.1187,-4.1052,-4.1525,-4.117,-4.0781,-4.051,-4.0476,-4.0476,-4.0476,-4.0933,-4.146,-4.2139,-4.2602,-4.2918,-4.298,-4.3604,-4.4019,-4.4281,-4.513,-4.5846,-4.6444,-4.6378,-4.6342,-4.6324,-4.603,-4.6342,-1.4204,-1.4742,-1.5622,-1.8499,-1.9634,-2.0609,-2.2668,-2.3841,-2.4607,-2.4983,-2.5523,-2.5963,-2.6138,-2.6025,-2.6025,-2.6471,-2.6533,-2.6533,-2.6533,-2.6302,-2.6025,-2.5636,0.0,0.0,0.0,0.0,0.0,0.0,0.0,0.0,-2.3703,-2.3339,-2.3078,-2.3078,-2.3078,-2.3078,-2.3078,-2.3514,-2.3703,-2.3715,-2.4268,-2.472,-2.5071,-2.5259,-2.5548,-2.5912,-2.5912,-2.6113,-2.6533,-2.6533,-2.7162,-2.8182,-2.8748,-2.969,-3.0777,-3.1278,-3.175,-3.2213,-3.2437,-3.308,-3.3888,-3.4322,-3.4786,-3.5205,-3.5429,-3.5504,-3.5504,-3.5504,-3.5504,-3.5504,-3.5504,-3.5668,-3.607,-3.6798,-3.7616,-3.8246,-3.8486,-3.8745,-3.8908,-3.8908,-3.9542,-4.007,-4.007,-4.007,-4.0257,-4.0747,-4.0392,-4.0257,-4.0764,-4.0392,-4.007,-4.007,-4.007,-4.007,-4.007,-4.0696,-4.1268,-4.167,-4.2328,-4.2763,-4.2821,-4.3194,-4.3565,-4.3757,-4.4364,-4.4837,-4.5094,-4.5369,-4.5498,-4.5498,-4.5773,-4.6342,0.0,0.0,0.0,-1.7198,-1.7678,-1.8384,-2.2048,-2.2527,-2.256,-2.3715,-2.4393,-2.4933,-2.5473,-2.5159,-2.5172,-2.6239,-2.6483,-2.6483,-2.6496,-2.5937,-2.5573,-2.5548,0.0,0.0,0.0,0.0,0.0,0.0,-2.3078,-2.3078,-2.3078,-2.3078,-2.3078,-2.3078,-2.3078,-2.3078,-2.3078,-2.3078,-2.3078,-2.3078,-2.3703,-2.3979,-2.4017,-2.4556,-2.4808,-2.482,-2.482,-2.5423,-2.6483,-2.6496,-2.7471,-2.8939,-2.9002,-3.0011,-3.1467,-3.1482,-3.1482,-3.1556,-3.2258,-3.2497,-3.2721,-3.4023,-3.4457,-3.4607,-3.5295,-3.5504,-3.5504,-3.5504,-3.5504,-3.5504,-3.5504,-3.6054,-3.6843,-3.7632,-3.8358,-3.9139,-3.9952,-3.9489,-3.8908,-3.8908,-3.9558,-4.007,-4.007,-4.007,-4.007,-4.007,-4.007,-4.007,-4.007,-4.007,-4.007,-4.007,-4.007,-4.0138,-4.0121,-4.0625,-4.0903,-4.0949,-4.149,-4.2121,-4.2693,-4.2732,-4.2976,-4.3479,-4.4268,-4.4287,-4.3497,-4.4305,-4.469,-4.469,-4.5498,-4.6305,-1.2842,0.0,0.0,0.0,0.0,0.0,0.0,0.0,-2.0928,-2.2472,-2.3226,-2.3891,-2.4858,-2.4921,-2.4921,-2.5222,-2.5272,-2.541,-2.5787,-2.5372,-2.4895,-2.4481,0.0,0.0,0.0,0.0,0.0,0.0,-2.3078,-2.3078,-2.3078,-2.3078,-2.3078,-2.3078,-2.3078,-2.3078,-2.3078,-2.3078,-2.3078,-2.3078,-2.3301,-2.359,-2.4004,-2.4155,-2.4443,-2.482,-2.482,-2.4996,-2.531,-2.5686,-2.6709,-2.8117,-2.8748,-2.969,-3.0703,-3.1278,-3.1482,-3.1497,-3.1676,-3.2123,-3.2647,-3.3499,-3.4083,-3.4607,-3.5295,-3.5504,-3.5504,-3.5504,-3.5504,-3.5504,-3.5504,-3.6477,-3.7515,-3.7764,-3.8832,-3.9833,-4.007,-3.9901,-3.9782,-3.9782,-3.9952,-4.007,-4.007,-4.007,-4.007,-4.007,-4.007,-4.007,-4.007,-4.007,-4.007,-4.007,-4.007,-4.0254,-4.0655,-4.081,-4.1268,-4.2162,-4.2342,-4.2714,-4.325,-4.3286,-4.3339,-4.3497,-4.3718,-4.3718,-4.3497,-4.4305,-4.4415,-4.3846,-4.4654,-4.5461,-1.2881,-1.2754,-1.2905,-1.4157,0.0,0.0,-1.7133,-1.8225,-1.9196,0.0,-2.1568,-2.2372,-2.3276,-2.3427,-2.3665,-2.4368,-2.4079,-2.4117,-2.5134,-2.4808,-2.4356,-2.4042,0.0,0.0,0.0,-2.3078,-2.3078,-2.3078,-2.3078,-2.3078,-2.3078,-2.3078,-2.3078,-2.3078,-2.3078,-2.3078,-2.3078,-2.3078,-2.3078,-2.3078,-2.3078,-2.3314,-2.364,-2.364,-2.3816,-2.4117,-2.4117,-2.4255,-2.4506,-2.5167,-2.6373,-2.8025,-2.9094,-3.0072,-3.0837,-3.1351,-3.1482,-3.1482,-3.1482,-3.1779,-3.2213,-3.2871,-3.3529,-3.4188,-3.4876,-3.528,-3.5504,-3.5504,-3.5733,-3.5943,-3.5943,-3.71,-3.8246,-3.8246,-3.9209,-4.007,-4.007,-4.007,-4.007,-4.007,-4.007,-4.007,-4.007,-4.007,-4.007,-4.007,-4.007,-4.007,-4.007,-4.007,-4.0221,-4.0417,-4.0449,-4.0672,-4.1223,-4.149,-4.1937,-4.2673,-4.2902,-4.3178,-4.3497,-4.3497,-4.3497,-4.3497,-4.3497,-4.3497,-4.3497,-4.3975,-4.4121,-4.4011,-4.4488,-4.4947,-1.3154,-1.2887,-1.3152,-1.563,-1.488,0.0,-1.7698,-1.7856,-1.7589,0.0,-1.9673,-2.0577,-2.1192,-2.1305,-2.1794,-2.3288,-2.2799,-2.2811,-2.4494,-2.4255,-2.3904,-2.3904,0.0,0.0,-2.3078,-2.3078,-2.3078,-2.3078,-2.3015,-2.2977,-2.2977,-2.2977,-2.3015,-2.3078,-2.3078,-2.3078,-2.3078,-2.3078,-2.3078,-2.3078,-2.3078,-2.3078,-2.3078,-2.3078,-2.3078,-2.3078,-2.3078,-2.3427,-2.3966,-2.4896,-2.6418,-2.833,-2.9697,-3.0719,-3.1482,-3.1482,-3.1482,-3.1482,-3.1482,-3.1482,-3.1586,-3.2302,-3.2901,-3.3499,-3.4173,-3.4801,-3.5295,-3.537,-3.5948,-3.6507,-3.6584,-3.7758,-3.8908,-3.8908,-3.9489,-4.007,-4.007,-4.007,-4.007,-4.007,-4.007,-4.007,-4.007,-4.007,-4.007,-4.007,-4.007,-4.007,-4.007,-4.007,-4.0286,-4.0856,-4.0903,-4.1178,-4.1835,-4.2382,-4.275,-4.2788,-4.325,-4.3497,-4.3497,-4.3497,-4.3497,-4.3497,-4.3497,-4.3497,-4.3497,-4.3497,-4.3864,-4.458,-4.458,-4.458,-1.4784,-1.4821,-1.4729,-1.5088,-1.551,0.0,-1.5181,-1.5916,-1.6873,0.0,-1.8229,-1.8982,-1.9949,-2.0125,-2.0238,-2.0564,-2.1192,-2.2234,-2.3916,-2.3665,-2.3314,-2.3314,0.0,0.0,-2.3078,-2.3078,-2.3078,-2.3078,-2.2723,-2.2472,-2.2472,-2.2472,-2.2673,-2.3065,-2.3078,-2.3078,-2.3078,-2.3078,-2.3078,-2.3078,-2.3078,-2.3078,-2.3078,-2.3078,-2.3078,-2.3078,-2.3078,-2.3201,-2.3387,-2.5351,-2.6955,-2.8302,-2.9152,-3.0324,-3.1482,-3.1482,-3.1482,-3.1482,-3.1482,-3.1482,-3.1586,-3.2302,-3.2602,-3.2826,-3.3484,-3.3784,-3.3993,-3.4517,-3.5232,-3.5918,-3.646,-3.7758,-3.8908,-3.8908,-3.9489,-4.007,-4.007,-4.007,-4.007,-4.007,-4.007,-4.007,-4.007,-4.007,-4.007,-4.007,-4.007,-4.007,-4.007,-4.007,-4.0286,-4.0856,-4.0903,-4.1358,-4.244,-4.2616,-4.2902,-4.3339,-4.3444,-4.3497,-4.3497,-4.3497,-4.3497,-4.3497,-4.3497,-4.3497,-4.3497,-4.3497,-4.3571,-4.3718,-4.3718,-4.3718,-1.4806,-1.4575,-1.4595,-1.5088,-1.5165,0.0,0.0,-1.5927,-1.6271,-1.6835,-1.7174,-1.7526,-1.8066,-1.8405,-1.8681,-1.8957,-1.9924,-2.0853,-2.1443,-2.2221,-2.2623,-2.2347,0.0,0.0,-2.2309,-2.2309,-2.2425,-2.2744,-2.2799,-2.285,-2.285,-2.285,-2.2981,-2.327,-2.323,-2.3212,-2.3212,-2.3106,-2.3078,-2.3078,-2.3078,-2.3078,-2.3078,-2.3078,-2.3078,-2.3138,-2.3531,-2.3708,-2.3852,-2.5659,-2.7018,-2.7981,-2.9362,-3.0362,-3.1061,-3.1347,-3.1482,-3.1482,-3.1482,-3.1482,-3.1584,-3.1913,-3.2243,-3.2572,-3.2901,-3.323,-3.3621,-3.4334,-3.5038,-3.578,-3.6469,-3.7518,-3.8421,-3.8421,-3.8706,-3.8988,-3.8988,-3.8988,-3.8988,-3.8988,-3.8988,-3.9225,-3.9952,-4.007,-4.007,-4.007,-3.9766,-3.9665,-4.002,-4.0012,-4.0169,-4.0709,-4.0979,-4.1538,-4.2414,-4.2505,-4.2794,-4.3461,-4.3497,-4.3497,-4.3497,-4.3497,-4.3497,-4.3497,-4.3497,-4.3497,-4.3497,-4.3497,-4.3497,-4.3497,-4.3497,-4.3497,-1.5251,-1.4875,-1.5088,-1.5839,-1.5545,-1.5402,0.0,0.0,0.0,0.0,0.0,0.0,0.0,0.0,0.0,0.0,0.0,0.0,0.0,-2.0263,0.0,-2.1054,0.0,0.0,0.0,-2.1492,-2.1725,-2.2406,-2.2701,-2.2981,-2.3214,-2.3228,-2.3283,-2.3393,-2.3447,-2.3493,-2.3493,-2.3528,-2.3471,-2.3305,-2.3305,-2.3245,-2.3078,-2.3078,-2.3078,-2.3125,-2.3943,-2.4292,-2.4408,-2.5892,-2.6813,-2.7498,-2.9381,-3.0283,-3.0567,-3.1135,-3.1362,-3.1482,-3.1482,-3.1482,-3.1482,-3.1482,-3.1898,-3.2317,-3.2494,-3.2915,-3.3471,-3.428,-3.5086,-3.584,-3.6512,-3.7286,-3.7905,-3.7905,-3.7905,-3.7905,-3.7905,-3.7905,-3.7905,-3.7905,-3.7905,-3.8278,-3.9462,-3.9665,-3.9665,-3.9665,-3.9157,-3.9037,-3.9695,-3.9662,-3.9818,-4.0471,-4.0891,-4.1415,-4.2032,-4.2213,-4.258,-4.3222,-4.3406,-4.3497,-4.3497,-4.3497,-4.3497,-4.3497,-4.3497,-4.3497,-4.3497,-4.3497,-4.3497,-4.3497,-4.3497,-4.3548,-1.837,-1.8654,-1.8762,-1.8056,-1.8523,-1.8572,-1.6366,0.0,-1.6923,-1.5982,0.0,0.0,0.0,0.0,0.0,0.0,0.0,0.0,-1.6886,-1.7877,-1.8832,-1.9208,0.0,0.0,0.0,-2.1499,-2.174,-2.2519,-2.1527,-2.1438,-2.2641,-2.2696,-2.2894,-2.3379,-2.3982,-2.4284,-2.4284,-2.486,-2.4781,-2.4176,-2.4176,-2.3767,-2.3078,-2.3078,-2.3078,-2.3125,-2.3943,-2.4292,-2.4408,-2.5892,-2.6553,-2.6736,-2.824,-2.9505,-3.0507,-3.0597,-3.1001,-3.1482,-3.1482,-3.1482,-3.1482,-3.1482,-3.1526,-3.1745,-3.2394,-3.2647,-3.2998,-3.4216,-3.5117,-3.5843,-3.6534,-3.7286,-3.7905,-3.7905,-3.7905,-3.7905,-3.7905,-3.7905,-3.7905,-3.7905,-3.7905,-3.7956,-3.8125,-3.8159,-3.8159,-3.8159,-3.8091,-3.8214,-3.8687,-3.8735,-3.9143,-4.0161,-4.031,-4.0564,-4.1174,-4.1901,-4.2341,-4.2433,-4.3112,-4.3497,-4.3497,-4.3497,-4.3497,-4.3497,-4.3497,-4.3497,-4.3497,-4.3497,-4.3497,-4.3497,-4.3497,-4.3646,-1.8263,-1.8367,-1.855,-1.7836,-1.802,-1.8068,-1.6954,0.0,-1.6748,0.0,0.0,0.0,0.0,0.0,0.0,0.0,-1.5881,0.0,0.0,0.0,-1.72,0.0,0.0,0.0,0.0,0.0,0.0,0.0,-2.0812,-2.1268,-2.2582,-2.264,-2.2915,-2.349,-2.3737,-2.4083,-2.4436,-2.4702,-2.4874,-2.4951,-2.4509,-2.4337,-2.4439,-2.3989,-2.4047,-2.4496,-2.5217,-2.5563,-2.5673,-2.6707,-2.7137,-2.7181,-2.7786,-2.8577,-2.949,-3.0238,-3.0687,-3.1001,-3.1405,-3.1482,-3.1582,-3.2007,-3.212,-3.2272,-3.2986,-3.3198,-3.3403,-3.4343,-3.4824,-3.5217,-3.5902,-3.6303,-3.6586,-3.6586,-3.6586,-3.6586,-3.6586,-3.6586,-3.6586,-3.6586,-3.6586,-3.6586,-3.6586,-3.733,-3.7984,-3.8271,-3.794,-3.8025,-3.8926,-3.8969,-3.9055,-3.9445,-3.9819,-4.0112,-4.0364,-4.0708,-4.1111,-4.1589,-4.2359,-4.3002,-4.3461,-4.3497,-4.3497,-4.3497,-4.3497,-4.3497,-4.3497,-4.3497,-4.3597,-4.3804,-4.3804,-4.3986,-1.8448,0.0,0.0,0.0,0.0,0.0,0.0,0.0,0.0,0.0,0.0,0.0,0.0,0.0,0.0,0.0,0.0,-1.518,0.0,-1.4777,0.0,0.0,0.0,0.0,0.0,0.0,0.0,0.0,0.0,-2.0902,-2.2634,-2.2724,-2.2966,-2.358,-2.3728,-2.4138,-2.4776,-2.4946,-2.5258,-2.5673,-2.5175,-2.5063,-2.5398,-2.4851,-2.4908,-2.5453,-2.6176,-2.651,-2.6563,-2.7306,-2.7625,-2.7625,-2.7625,-2.7874,-2.8457,-2.9564,-3.0208,-3.0567,-3.1076,-3.1375,-3.164,-3.2382,-3.2586,-3.2734,-3.3649,-3.3887,-3.4037,-3.4688,-3.4894,-3.5005,-3.547,-3.5622,-3.5622,-3.5622,-3.5622,-3.5622,-3.5622,-3.5622,-3.5622,-3.5622,-3.5622,-3.5622,-3.5622,-3.6535,-3.7432,-3.7914,-3.7534,-3.7614,-3.8844,-3.8869,-3.8829,-3.8916,-3.9323,-3.957,-3.957,-3.9772,-4.023,-4.1056,-4.1662,-4.2323,-4.313,-4.3167,-4.3259,-4.3497,-4.3497,-4.3497,-4.3497,-4.3597,-4.3804,-4.4146,-4.4058,-4.4261,0.0,0.0,0.0,-1.8695,0.0,0.0,0.0,0.0,-1.72,0.0,0.0,0.0,0.0,0.0,0.0,0.0,0.0,0.0,0.0,0.0,0.0,0.0,0.0,0.0,0.0,0.0,0.0,0.0,0.0,0.0,-2.2574,-2.2724,-2.2966,-2.358,-2.4224,-2.4896,-2.5553,-2.621,-2.6503,-2.6457,-2.6457,-2.6068,-2.5398,-2.5398,-2.5398,-2.5453,-2.6176,-2.651,-2.6563,-2.7306,-2.7625,-2.7625,-2.7625,-2.7625,-2.7745,-2.8397,-2.9445,-3.0507,-3.0522,-3.0971,-3.164,-3.2382,-3.2586,-3.2841,-3.4186,-3.4576,-3.4688,-3.5362,-3.5577,-3.5577,-3.5577,-3.5622,-3.5622,-3.5622,-3.5622,-3.5622,-3.5622,-3.5622,-3.5622,-3.5622,-3.5622,-3.5622,-3.5622,-3.5656,-3.5851,-3.6377,-3.6426,-3.6799,-3.7827,-3.7948,-3.8135,-3.8664,-3.8744,-3.8744,-3.8744,-3.9441,-4.023,-4.1056,-4.113,-4.1515,-4.2304,-4.2341,-4.269,-4.3461,-4.3497,-4.3497,-4.3497,-4.3836,-4.4175,-4.4553,-4.4175,-4.4382,0.0,0.0,-2.1581,-1.9723,0.0,0.0,0.0,0.0,0.0,0.0,0.0,0.0,0.0,0.0,0.0,0.0,0.0,0.0,0.0,0.0,0.0,0.0,0.0,0.0,0.0,0.0,0.0,0.0,-1.8886,0.0,0.0,-2.1799,-2.2323,-2.2966,-2.361,-2.4268,-2.4956,-2.5615,-2.6176,-2.6568,-2.6518,-2.6602,-2.6864,-2.6336,-2.639,-2.6864,-2.7137,-2.7255,-2.7255,-2.7509,-2.7625,-2.7625,-2.7625,-2.7625,-2.77,-2.8353,-2.8876,-2.9355,-3.0208,-3.1263,-3.2327,-3.3039,-3.3531,-3.4087,-3.5005,-3.5253,-3.5316,-3.5532,-3.5622,-3.5622,-3.5622,-3.5622,-3.5622,-3.5622,-3.5622,-3.5622,-3.5622,-3.5622,-3.5622,-3.5622,-3.5898,-3.6139,-3.6139,-3.6399,-3.6706,-3.6921,-3.7193,-3.7649,-3.835,-3.8433,-3.8496,-3.8676,-3.8707,-3.8707,-3.8707,-3.8946,-3.9441,-4.0267,-4.0304,-4.0671,-4.1479,-4.1515,-4.1882,-4.269,-4.2913,-4.3311,-4.3818,-4.4223,-4.458,-4.4919,-4.4806,-4.4969,-2.1594,-2.1895,0.0,-2.0476,-2.0112,0.0,-1.8053,0.0,-1.7752,0.0,0.0,0.0,0.0,0.0,0.0,0.0,0.0,0.0,0.0,-1.4031,0.0,0.0,0.0,-1.6908,0.0,-1.7341,-1.7975,-1.8512,-1.8184,-1.8772,0.0,0.0,-2.1994,-2.2694,-2.3281,-2.3924,-2.4567,-2.5046,-2.5585,-2.6243,-2.6203,-2.6409,-2.6886,-2.6644,-2.6798,-2.7245,-2.752,-2.7625,-2.7625,-2.7625,-2.7625,-2.7625,-2.7625,-2.7625,-2.7619,-2.8068,-2.8397,-2.8794,-3.0045,-3.1282,-3.2376,-3.3281,-3.4023,-3.4736,-3.5407,-3.5622,-3.5622,-3.5622,-3.5622,-3.5622,-3.5622,-3.5622,-3.5622,-3.5622,-3.5622,-3.5622,-3.5622,-3.5622,-3.5667,-3.5871,-3.6182,-3.6457,-3.6643,-3.7097,-3.7433,-3.7433,-3.772,-3.8099,-3.8627,-3.8707,-3.8707,-3.8707,-3.8707,-3.8707,-3.8707,-3.8707,-3.8927,-3.9441,-3.946,-3.9827,-4.0653,-4.0762,-4.1224,-4.2036,-4.2358,-4.2754,-4.3296,-4.3674,-4.3961,-4.4181,-4.4324,-4.4499]}]]